<?xml version="1.0" encoding="UTF-8" standalone="no" ?>
<gpx xmlns="http://www.topografix.com/GPX/1/1" xmlns:xsi="http://www.w3.org/2001/XMLSchema-instance" xsi:schemaLocation="http://www.topografix.com/GPX/1/1 http://www.topografix.com/GPX/1/1/gpx.xsd" version="1.1" creator="VisuGPX - https://www.visugpx.com">
  <metadata>
    <name>2023-06-12 18:39:07</name>
    <desc><![CDATA[

]]></desc>
  </metadata>
  <trk>
    <name><![CDATA[2023-06-12 18:39:07]]></name>
    <extensions>
      <line xmlns="http://www.topografix.com/GPX/gpx_style/0/2">
        <color>0000FF</color>
        <width>4</width>
      </line>
    </extensions>
    <trkseg>
      <trkpt lat="44.30373" lon="0.63057">
        <ele>207.78</ele>
        <time>2023-05-30T07:10:49Z</time>
      </trkpt>
      <trkpt lat="44.30375" lon="0.6307">
        <ele>202.01</ele>
        <time>2023-05-30T07:10:58Z</time>
      </trkpt>
      <trkpt lat="44.30376" lon="0.63086">
        <ele>201.53</ele>
        <time>2023-05-30T07:11:08Z</time>
      </trkpt>
      <trkpt lat="44.30377" lon="0.63101">
        <ele>199.13</ele>
        <time>2023-05-30T07:11:17Z</time>
      </trkpt>
      <trkpt lat="44.30377" lon="0.63137">
        <ele>188.08</ele>
        <time>2023-05-30T07:11:43Z</time>
      </trkpt>
      <trkpt lat="44.30368" lon="0.63147">
        <ele>186.15</ele>
        <time>2023-05-30T07:11:52Z</time>
      </trkpt>
      <trkpt lat="44.30363" lon="0.63155">
        <ele>185.19</ele>
        <time>2023-05-30T07:12:02Z</time>
      </trkpt>
      <trkpt lat="44.30356" lon="0.63164">
        <ele>185.19</ele>
        <time>2023-05-30T07:12:11Z</time>
      </trkpt>
      <trkpt lat="44.30347" lon="0.63172">
        <ele>184.71</ele>
        <time>2023-05-30T07:12:20Z</time>
      </trkpt>
      <trkpt lat="44.30337" lon="0.63178">
        <ele>184.23</ele>
        <time>2023-05-30T07:12:28Z</time>
      </trkpt>
      <trkpt lat="44.30328" lon="0.63185">
        <ele>184.23</ele>
        <time>2023-05-30T07:12:36Z</time>
      </trkpt>
      <trkpt lat="44.30319" lon="0.63194">
        <ele>184.71</ele>
        <time>2023-05-30T07:12:46Z</time>
      </trkpt>
      <trkpt lat="44.3031" lon="0.63198">
        <ele>184.23</ele>
        <time>2023-05-30T07:12:56Z</time>
      </trkpt>
      <trkpt lat="44.303" lon="0.63196">
        <ele>183.27</ele>
        <time>2023-05-30T07:13:07Z</time>
      </trkpt>
      <trkpt lat="44.30299" lon="0.63204">
        <ele>197.69</ele>
        <time>2023-05-30T07:15:19Z</time>
      </trkpt>
      <trkpt lat="44.30303" lon="0.63216">
        <ele>197.21</ele>
        <time>2023-05-30T07:15:28Z</time>
      </trkpt>
      <trkpt lat="44.30306" lon="0.63228">
        <ele>197.21</ele>
        <time>2023-05-30T07:15:35Z</time>
      </trkpt>
      <trkpt lat="44.30311" lon="0.63241">
        <ele>197.21</ele>
        <time>2023-05-30T07:15:43Z</time>
      </trkpt>
      <trkpt lat="44.30316" lon="0.63253">
        <ele>197.21</ele>
        <time>2023-05-30T07:15:50Z</time>
      </trkpt>
      <trkpt lat="44.3032" lon="0.63266">
        <ele>196.73</ele>
        <time>2023-05-30T07:15:57Z</time>
      </trkpt>
      <trkpt lat="44.30324" lon="0.63278">
        <ele>196.73</ele>
        <time>2023-05-30T07:16:04Z</time>
      </trkpt>
      <trkpt lat="44.3033" lon="0.6329">
        <ele>196.25</ele>
        <time>2023-05-30T07:16:12Z</time>
      </trkpt>
      <trkpt lat="44.30334" lon="0.63302">
        <ele>195.77</ele>
        <time>2023-05-30T07:16:19Z</time>
      </trkpt>
      <trkpt lat="44.30338" lon="0.63313">
        <ele>195.28</ele>
        <time>2023-05-30T07:16:26Z</time>
      </trkpt>
      <trkpt lat="44.30342" lon="0.63324">
        <ele>194.8</ele>
        <time>2023-05-30T07:16:33Z</time>
      </trkpt>
      <trkpt lat="44.30347" lon="0.63335">
        <ele>194.8</ele>
        <time>2023-05-30T07:16:40Z</time>
      </trkpt>
      <trkpt lat="44.30352" lon="0.63346">
        <ele>194.32</ele>
        <time>2023-05-30T07:16:47Z</time>
      </trkpt>
      <trkpt lat="44.30358" lon="0.63358">
        <ele>193.84</ele>
        <time>2023-05-30T07:16:54Z</time>
      </trkpt>
      <trkpt lat="44.30363" lon="0.6337">
        <ele>193.84</ele>
        <time>2023-05-30T07:17:01Z</time>
      </trkpt>
      <trkpt lat="44.30368" lon="0.63383">
        <ele>194.32</ele>
        <time>2023-05-30T07:17:09Z</time>
      </trkpt>
      <trkpt lat="44.30364" lon="0.63395">
        <ele>193.84</ele>
        <time>2023-05-30T07:17:17Z</time>
      </trkpt>
      <trkpt lat="44.30366" lon="0.63407">
        <ele>193.84</ele>
        <time>2023-05-30T07:17:23Z</time>
      </trkpt>
      <trkpt lat="44.30371" lon="0.6342">
        <ele>193.84</ele>
        <time>2023-05-30T07:17:30Z</time>
      </trkpt>
      <trkpt lat="44.30376" lon="0.63434">
        <ele>193.84</ele>
        <time>2023-05-30T07:17:34Z</time>
      </trkpt>
      <trkpt lat="44.30382" lon="0.63447">
        <ele>193.36</ele>
        <time>2023-05-30T07:17:37Z</time>
      </trkpt>
      <trkpt lat="44.30386" lon="0.6346">
        <ele>192.4</ele>
        <time>2023-05-30T07:17:40Z</time>
      </trkpt>
      <trkpt lat="44.30391" lon="0.63472">
        <ele>192.4</ele>
        <time>2023-05-30T07:17:43Z</time>
      </trkpt>
      <trkpt lat="44.30395" lon="0.63484">
        <ele>191.92</ele>
        <time>2023-05-30T07:17:46Z</time>
      </trkpt>
      <trkpt lat="44.304" lon="0.63495">
        <ele>191.92</ele>
        <time>2023-05-30T07:17:49Z</time>
      </trkpt>
      <trkpt lat="44.30405" lon="0.63506">
        <ele>191.92</ele>
        <time>2023-05-30T07:17:52Z</time>
      </trkpt>
      <trkpt lat="44.30408" lon="0.6352">
        <ele>191.92</ele>
        <time>2023-05-30T07:17:55Z</time>
      </trkpt>
      <trkpt lat="44.30409" lon="0.63534">
        <ele>191.92</ele>
        <time>2023-05-30T07:17:58Z</time>
      </trkpt>
      <trkpt lat="44.30412" lon="0.63547">
        <ele>191.44</ele>
        <time>2023-05-30T07:18:01Z</time>
      </trkpt>
      <trkpt lat="44.30415" lon="0.63559">
        <ele>190.48</ele>
        <time>2023-05-30T07:18:04Z</time>
      </trkpt>
      <trkpt lat="44.3042" lon="0.63572">
        <ele>190</ele>
        <time>2023-05-30T07:18:07Z</time>
      </trkpt>
      <trkpt lat="44.30425" lon="0.63584">
        <ele>189.52</ele>
        <time>2023-05-30T07:18:10Z</time>
      </trkpt>
      <trkpt lat="44.3043" lon="0.63596">
        <ele>189.52</ele>
        <time>2023-05-30T07:18:13Z</time>
      </trkpt>
      <trkpt lat="44.30436" lon="0.63608">
        <ele>189.04</ele>
        <time>2023-05-30T07:18:16Z</time>
      </trkpt>
      <trkpt lat="44.30444" lon="0.63622">
        <ele>189.52</ele>
        <time>2023-05-30T07:18:19Z</time>
      </trkpt>
      <trkpt lat="44.30453" lon="0.63637">
        <ele>189.52</ele>
        <time>2023-05-30T07:18:22Z</time>
      </trkpt>
      <trkpt lat="44.30461" lon="0.63651">
        <ele>189.52</ele>
        <time>2023-05-30T07:18:25Z</time>
      </trkpt>
      <trkpt lat="44.30468" lon="0.63665">
        <ele>189.52</ele>
        <time>2023-05-30T07:18:28Z</time>
      </trkpt>
      <trkpt lat="44.30474" lon="0.63677">
        <ele>189.52</ele>
        <time>2023-05-30T07:18:31Z</time>
      </trkpt>
      <trkpt lat="44.30479" lon="0.6369">
        <ele>189.04</ele>
        <time>2023-05-30T07:18:36Z</time>
      </trkpt>
      <trkpt lat="44.30482" lon="0.63704">
        <ele>188.56</ele>
        <time>2023-05-30T07:18:43Z</time>
      </trkpt>
      <trkpt lat="44.30484" lon="0.63718">
        <ele>187.59</ele>
        <time>2023-05-30T07:18:50Z</time>
      </trkpt>
      <trkpt lat="44.30486" lon="0.63733">
        <ele>187.59</ele>
        <time>2023-05-30T07:18:57Z</time>
      </trkpt>
      <trkpt lat="44.30487" lon="0.63748">
        <ele>187.59</ele>
        <time>2023-05-30T07:19:04Z</time>
      </trkpt>
      <trkpt lat="44.30489" lon="0.63762">
        <ele>188.08</ele>
        <time>2023-05-30T07:19:11Z</time>
      </trkpt>
      <trkpt lat="44.3049" lon="0.63775">
        <ele>188.56</ele>
        <time>2023-05-30T07:19:17Z</time>
      </trkpt>
      <trkpt lat="44.30492" lon="0.6379">
        <ele>188.56</ele>
        <time>2023-05-30T07:19:24Z</time>
      </trkpt>
      <trkpt lat="44.30493" lon="0.63804">
        <ele>189.04</ele>
        <time>2023-05-30T07:19:31Z</time>
      </trkpt>
      <trkpt lat="44.30494" lon="0.63819">
        <ele>189.52</ele>
        <time>2023-05-30T07:19:38Z</time>
      </trkpt>
      <trkpt lat="44.30494" lon="0.63833">
        <ele>190.96</ele>
        <time>2023-05-30T07:19:45Z</time>
      </trkpt>
      <trkpt lat="44.30495" lon="0.63845">
        <ele>191.44</ele>
        <time>2023-05-30T07:19:52Z</time>
      </trkpt>
      <trkpt lat="44.30495" lon="0.63859">
        <ele>192.88</ele>
        <time>2023-05-30T07:19:59Z</time>
      </trkpt>
      <trkpt lat="44.30495" lon="0.63873">
        <ele>193.84</ele>
        <time>2023-05-30T07:20:06Z</time>
      </trkpt>
      <trkpt lat="44.30496" lon="0.63887">
        <ele>194.32</ele>
        <time>2023-05-30T07:20:13Z</time>
      </trkpt>
      <trkpt lat="44.30496" lon="0.63903">
        <ele>194.8</ele>
        <time>2023-05-30T07:20:21Z</time>
      </trkpt>
      <trkpt lat="44.30494" lon="0.63917">
        <ele>195.28</ele>
        <time>2023-05-30T07:20:28Z</time>
      </trkpt>
      <trkpt lat="44.30487" lon="0.63927">
        <ele>195.77</ele>
        <time>2023-05-30T07:20:35Z</time>
      </trkpt>
      <trkpt lat="44.30478" lon="0.63934">
        <ele>195.77</ele>
        <time>2023-05-30T07:20:42Z</time>
      </trkpt>
      <trkpt lat="44.30468" lon="0.63941">
        <ele>196.25</ele>
        <time>2023-05-30T07:20:49Z</time>
      </trkpt>
      <trkpt lat="44.3046" lon="0.63946">
        <ele>196.25</ele>
        <time>2023-05-30T07:20:55Z</time>
      </trkpt>
      <trkpt lat="44.30451" lon="0.63953">
        <ele>196.25</ele>
        <time>2023-05-30T07:21:02Z</time>
      </trkpt>
      <trkpt lat="44.30442" lon="0.63958">
        <ele>196.73</ele>
        <time>2023-05-30T07:21:08Z</time>
      </trkpt>
      <trkpt lat="44.30434" lon="0.63964">
        <ele>197.21</ele>
        <time>2023-05-30T07:21:14Z</time>
      </trkpt>
      <trkpt lat="44.30424" lon="0.6397">
        <ele>196.73</ele>
        <time>2023-05-30T07:21:21Z</time>
      </trkpt>
      <trkpt lat="44.30415" lon="0.63977">
        <ele>196.73</ele>
        <time>2023-05-30T07:21:28Z</time>
      </trkpt>
      <trkpt lat="44.30406" lon="0.63984">
        <ele>196.25</ele>
        <time>2023-05-30T07:21:35Z</time>
      </trkpt>
      <trkpt lat="44.30397" lon="0.63989">
        <ele>196.25</ele>
        <time>2023-05-30T07:21:42Z</time>
      </trkpt>
      <trkpt lat="44.30389" lon="0.63994">
        <ele>196.25</ele>
        <time>2023-05-30T07:21:48Z</time>
      </trkpt>
      <trkpt lat="44.30381" lon="0.63999">
        <ele>196.73</ele>
        <time>2023-05-30T07:21:54Z</time>
      </trkpt>
      <trkpt lat="44.30372" lon="0.64007">
        <ele>196.25</ele>
        <time>2023-05-30T07:22:01Z</time>
      </trkpt>
      <trkpt lat="44.30363" lon="0.64012">
        <ele>196.73</ele>
        <time>2023-05-30T07:22:07Z</time>
      </trkpt>
      <trkpt lat="44.30354" lon="0.64019">
        <ele>196.25</ele>
        <time>2023-05-30T07:22:13Z</time>
      </trkpt>
      <trkpt lat="44.30346" lon="0.64026">
        <ele>196.25</ele>
        <time>2023-05-30T07:22:19Z</time>
      </trkpt>
      <trkpt lat="44.30337" lon="0.64033">
        <ele>195.28</ele>
        <time>2023-05-30T07:22:25Z</time>
      </trkpt>
      <trkpt lat="44.30329" lon="0.64039">
        <ele>195.77</ele>
        <time>2023-05-30T07:22:31Z</time>
      </trkpt>
      <trkpt lat="44.30321" lon="0.64045">
        <ele>195.77</ele>
        <time>2023-05-30T07:22:37Z</time>
      </trkpt>
      <trkpt lat="44.30314" lon="0.64052">
        <ele>195.28</ele>
        <time>2023-05-30T07:22:43Z</time>
      </trkpt>
      <trkpt lat="44.30305" lon="0.64059">
        <ele>195.28</ele>
        <time>2023-05-30T07:22:49Z</time>
      </trkpt>
      <trkpt lat="44.30298" lon="0.64065">
        <ele>195.77</ele>
        <time>2023-05-30T07:22:55Z</time>
      </trkpt>
      <trkpt lat="44.30289" lon="0.64073">
        <ele>195.77</ele>
        <time>2023-05-30T07:23:01Z</time>
      </trkpt>
      <trkpt lat="44.30281" lon="0.64079">
        <ele>196.25</ele>
        <time>2023-05-30T07:23:07Z</time>
      </trkpt>
      <trkpt lat="44.30273" lon="0.64086">
        <ele>195.77</ele>
        <time>2023-05-30T07:23:13Z</time>
      </trkpt>
      <trkpt lat="44.30265" lon="0.64093">
        <ele>195.77</ele>
        <time>2023-05-30T07:23:19Z</time>
      </trkpt>
      <trkpt lat="44.30256" lon="0.64098">
        <ele>195.77</ele>
        <time>2023-05-30T07:23:25Z</time>
      </trkpt>
      <trkpt lat="44.30248" lon="0.64104">
        <ele>195.28</ele>
        <time>2023-05-30T07:23:31Z</time>
      </trkpt>
      <trkpt lat="44.3024" lon="0.6411">
        <ele>194.8</ele>
        <time>2023-05-30T07:23:37Z</time>
      </trkpt>
      <trkpt lat="44.30232" lon="0.64116">
        <ele>194.32</ele>
        <time>2023-05-30T07:23:43Z</time>
      </trkpt>
      <trkpt lat="44.30223" lon="0.64122">
        <ele>194.32</ele>
        <time>2023-05-30T07:23:49Z</time>
      </trkpt>
      <trkpt lat="44.30215" lon="0.64127">
        <ele>194.32</ele>
        <time>2023-05-30T07:23:55Z</time>
      </trkpt>
      <trkpt lat="44.30206" lon="0.64132">
        <ele>194.32</ele>
        <time>2023-05-30T07:24:01Z</time>
      </trkpt>
      <trkpt lat="44.30197" lon="0.64138">
        <ele>194.32</ele>
        <time>2023-05-30T07:24:07Z</time>
      </trkpt>
      <trkpt lat="44.30188" lon="0.64143">
        <ele>194.32</ele>
        <time>2023-05-30T07:24:13Z</time>
      </trkpt>
      <trkpt lat="44.30179" lon="0.64147">
        <ele>193.84</ele>
        <time>2023-05-30T07:24:19Z</time>
      </trkpt>
      <trkpt lat="44.3017" lon="0.64153">
        <ele>194.32</ele>
        <time>2023-05-30T07:24:25Z</time>
      </trkpt>
      <trkpt lat="44.30161" lon="0.64158">
        <ele>193.84</ele>
        <time>2023-05-30T07:24:31Z</time>
      </trkpt>
      <trkpt lat="44.30153" lon="0.64163">
        <ele>193.36</ele>
        <time>2023-05-30T07:24:37Z</time>
      </trkpt>
      <trkpt lat="44.30144" lon="0.64168">
        <ele>193.36</ele>
        <time>2023-05-30T07:24:43Z</time>
      </trkpt>
      <trkpt lat="44.30134" lon="0.64173">
        <ele>193.36</ele>
        <time>2023-05-30T07:24:50Z</time>
      </trkpt>
      <trkpt lat="44.30125" lon="0.64178">
        <ele>193.84</ele>
        <time>2023-05-30T07:24:56Z</time>
      </trkpt>
      <trkpt lat="44.30116" lon="0.64183">
        <ele>195.28</ele>
        <time>2023-05-30T07:25:02Z</time>
      </trkpt>
      <trkpt lat="44.30107" lon="0.64187">
        <ele>196.25</ele>
        <time>2023-05-30T07:25:08Z</time>
      </trkpt>
      <trkpt lat="44.30099" lon="0.64192">
        <ele>196.25</ele>
        <time>2023-05-30T07:25:14Z</time>
      </trkpt>
      <trkpt lat="44.3009" lon="0.64197">
        <ele>197.21</ele>
        <time>2023-05-30T07:25:21Z</time>
      </trkpt>
      <trkpt lat="44.3008" lon="0.64202">
        <ele>198.17</ele>
        <time>2023-05-30T07:25:28Z</time>
      </trkpt>
      <trkpt lat="44.3007" lon="0.64207">
        <ele>198.65</ele>
        <time>2023-05-30T07:25:35Z</time>
      </trkpt>
      <trkpt lat="44.3006" lon="0.64209">
        <ele>199.13</ele>
        <time>2023-05-30T07:25:42Z</time>
      </trkpt>
      <trkpt lat="44.30051" lon="0.64206">
        <ele>200.09</ele>
        <time>2023-05-30T07:25:49Z</time>
      </trkpt>
      <trkpt lat="44.30042" lon="0.64198">
        <ele>200.09</ele>
        <time>2023-05-30T07:25:58Z</time>
      </trkpt>
      <trkpt lat="44.30033" lon="0.64189">
        <ele>199.61</ele>
        <time>2023-05-30T07:26:05Z</time>
      </trkpt>
      <trkpt lat="44.30025" lon="0.64178">
        <ele>199.61</ele>
        <time>2023-05-30T07:26:11Z</time>
      </trkpt>
      <trkpt lat="44.30017" lon="0.64167">
        <ele>199.13</ele>
        <time>2023-05-30T07:26:17Z</time>
      </trkpt>
      <trkpt lat="44.30009" lon="0.64155">
        <ele>199.13</ele>
        <time>2023-05-30T07:26:24Z</time>
      </trkpt>
      <trkpt lat="44.30003" lon="0.64143">
        <ele>198.65</ele>
        <time>2023-05-30T07:26:31Z</time>
      </trkpt>
      <trkpt lat="44.29999" lon="0.64131">
        <ele>198.17</ele>
        <time>2023-05-30T07:26:37Z</time>
      </trkpt>
      <trkpt lat="44.29995" lon="0.64117">
        <ele>198.17</ele>
        <time>2023-05-30T07:26:43Z</time>
      </trkpt>
      <trkpt lat="44.29991" lon="0.64103">
        <ele>198.17</ele>
        <time>2023-05-30T07:26:49Z</time>
      </trkpt>
      <trkpt lat="44.29988" lon="0.6409">
        <ele>197.69</ele>
        <time>2023-05-30T07:26:55Z</time>
      </trkpt>
      <trkpt lat="44.29985" lon="0.64077">
        <ele>197.21</ele>
        <time>2023-05-30T07:27:01Z</time>
      </trkpt>
      <trkpt lat="44.29982" lon="0.64064">
        <ele>196.25</ele>
        <time>2023-05-30T07:27:08Z</time>
      </trkpt>
      <trkpt lat="44.29978" lon="0.64051">
        <ele>195.77</ele>
        <time>2023-05-30T07:27:15Z</time>
      </trkpt>
      <trkpt lat="44.29972" lon="0.64039">
        <ele>194.8</ele>
        <time>2023-05-30T07:27:22Z</time>
      </trkpt>
      <trkpt lat="44.29963" lon="0.64028">
        <ele>193.84</ele>
        <time>2023-05-30T07:27:30Z</time>
      </trkpt>
      <trkpt lat="44.29952" lon="0.64015">
        <ele>193.36</ele>
        <time>2023-05-30T07:27:34Z</time>
      </trkpt>
      <trkpt lat="44.2994" lon="0.64006">
        <ele>192.88</ele>
        <time>2023-05-30T07:27:38Z</time>
      </trkpt>
      <trkpt lat="44.29924" lon="0.63974">
        <ele>193.36</ele>
        <time>2023-05-30T07:27:55Z</time>
      </trkpt>
      <trkpt lat="44.29896" lon="0.63928">
        <ele>190</ele>
        <time>2023-05-30T07:28:26Z</time>
      </trkpt>
      <trkpt lat="44.29884" lon="0.63916">
        <ele>190</ele>
        <time>2023-05-30T07:28:36Z</time>
      </trkpt>
      <trkpt lat="44.29873" lon="0.6391">
        <ele>191.44</ele>
        <time>2023-05-30T07:28:43Z</time>
      </trkpt>
      <trkpt lat="44.29863" lon="0.63906">
        <ele>192.88</ele>
        <time>2023-05-30T07:28:51Z</time>
      </trkpt>
      <trkpt lat="44.29853" lon="0.63904">
        <ele>193.84</ele>
        <time>2023-05-30T07:28:58Z</time>
      </trkpt>
      <trkpt lat="44.29842" lon="0.63904">
        <ele>195.77</ele>
        <time>2023-05-30T07:29:05Z</time>
      </trkpt>
      <trkpt lat="44.29831" lon="0.63905">
        <ele>196.73</ele>
        <time>2023-05-30T07:29:12Z</time>
      </trkpt>
      <trkpt lat="44.2982" lon="0.63906">
        <ele>198.17</ele>
        <time>2023-05-30T07:29:19Z</time>
      </trkpt>
      <trkpt lat="44.2981" lon="0.63906">
        <ele>199.61</ele>
        <time>2023-05-30T07:29:25Z</time>
      </trkpt>
      <trkpt lat="44.298" lon="0.63904">
        <ele>199.61</ele>
        <time>2023-05-30T07:29:31Z</time>
      </trkpt>
      <trkpt lat="44.29796" lon="0.6389">
        <ele>200.57</ele>
        <time>2023-05-30T07:29:38Z</time>
      </trkpt>
      <trkpt lat="44.29795" lon="0.63876">
        <ele>202.01</ele>
        <time>2023-05-30T07:29:44Z</time>
      </trkpt>
      <trkpt lat="44.29793" lon="0.63861">
        <ele>202.98</ele>
        <time>2023-05-30T07:29:51Z</time>
      </trkpt>
      <trkpt lat="44.29792" lon="0.63847">
        <ele>203.94</ele>
        <time>2023-05-30T07:29:58Z</time>
      </trkpt>
      <trkpt lat="44.29791" lon="0.63831">
        <ele>203.94</ele>
        <time>2023-05-30T07:30:05Z</time>
      </trkpt>
      <trkpt lat="44.29791" lon="0.63817">
        <ele>203.94</ele>
        <time>2023-05-30T07:30:12Z</time>
      </trkpt>
      <trkpt lat="44.29791" lon="0.63802">
        <ele>203.46</ele>
        <time>2023-05-30T07:30:19Z</time>
      </trkpt>
      <trkpt lat="44.29792" lon="0.63788">
        <ele>203.46</ele>
        <time>2023-05-30T07:30:26Z</time>
      </trkpt>
      <trkpt lat="44.29791" lon="0.63773">
        <ele>202.49</ele>
        <time>2023-05-30T07:30:34Z</time>
      </trkpt>
      <trkpt lat="44.2979" lon="0.63755">
        <ele>201.05</ele>
        <time>2023-05-30T07:30:42Z</time>
      </trkpt>
      <trkpt lat="44.29787" lon="0.63739">
        <ele>199.61</ele>
        <time>2023-05-30T07:30:49Z</time>
      </trkpt>
      <trkpt lat="44.29785" lon="0.63723">
        <ele>198.65</ele>
        <time>2023-05-30T07:30:53Z</time>
      </trkpt>
      <trkpt lat="44.29784" lon="0.63706">
        <ele>197.69</ele>
        <time>2023-05-30T07:30:56Z</time>
      </trkpt>
      <trkpt lat="44.29783" lon="0.6369">
        <ele>197.69</ele>
        <time>2023-05-30T07:31:01Z</time>
      </trkpt>
      <trkpt lat="44.29783" lon="0.63676">
        <ele>197.69</ele>
        <time>2023-05-30T07:31:07Z</time>
      </trkpt>
      <trkpt lat="44.29783" lon="0.63662">
        <ele>197.21</ele>
        <time>2023-05-30T07:31:14Z</time>
      </trkpt>
      <trkpt lat="44.29783" lon="0.63645">
        <ele>196.25</ele>
        <time>2023-05-30T07:31:21Z</time>
      </trkpt>
      <trkpt lat="44.29781" lon="0.63631">
        <ele>195.77</ele>
        <time>2023-05-30T07:31:27Z</time>
      </trkpt>
      <trkpt lat="44.29781" lon="0.63616">
        <ele>195.28</ele>
        <time>2023-05-30T07:31:34Z</time>
      </trkpt>
      <trkpt lat="44.29782" lon="0.63602">
        <ele>195.28</ele>
        <time>2023-05-30T07:31:41Z</time>
      </trkpt>
      <trkpt lat="44.29781" lon="0.63588">
        <ele>195.77</ele>
        <time>2023-05-30T07:31:48Z</time>
      </trkpt>
      <trkpt lat="44.29779" lon="0.63573">
        <ele>196.73</ele>
        <time>2023-05-30T07:31:55Z</time>
      </trkpt>
      <trkpt lat="44.29778" lon="0.63558">
        <ele>197.69</ele>
        <time>2023-05-30T07:32:02Z</time>
      </trkpt>
      <trkpt lat="44.29777" lon="0.63545">
        <ele>198.17</ele>
        <time>2023-05-30T07:32:08Z</time>
      </trkpt>
      <trkpt lat="44.29777" lon="0.63533">
        <ele>198.17</ele>
        <time>2023-05-30T07:32:14Z</time>
      </trkpt>
      <trkpt lat="44.29777" lon="0.6352">
        <ele>198.17</ele>
        <time>2023-05-30T07:32:20Z</time>
      </trkpt>
      <trkpt lat="44.29776" lon="0.63507">
        <ele>197.69</ele>
        <time>2023-05-30T07:32:26Z</time>
      </trkpt>
      <trkpt lat="44.29774" lon="0.63493">
        <ele>197.69</ele>
        <time>2023-05-30T07:32:32Z</time>
      </trkpt>
      <trkpt lat="44.29772" lon="0.6348">
        <ele>197.69</ele>
        <time>2023-05-30T07:32:38Z</time>
      </trkpt>
      <trkpt lat="44.29771" lon="0.63464">
        <ele>197.69</ele>
        <time>2023-05-30T07:32:45Z</time>
      </trkpt>
      <trkpt lat="44.29771" lon="0.63451">
        <ele>198.17</ele>
        <time>2023-05-30T07:32:52Z</time>
      </trkpt>
      <trkpt lat="44.2977" lon="0.63435">
        <ele>198.17</ele>
        <time>2023-05-30T07:33:00Z</time>
      </trkpt>
      <trkpt lat="44.29766" lon="0.63419">
        <ele>198.17</ele>
        <time>2023-05-30T07:33:08Z</time>
      </trkpt>
      <trkpt lat="44.29764" lon="0.63403">
        <ele>197.69</ele>
        <time>2023-05-30T07:33:17Z</time>
      </trkpt>
      <trkpt lat="44.29766" lon="0.63387">
        <ele>197.21</ele>
        <time>2023-05-30T07:33:24Z</time>
      </trkpt>
      <trkpt lat="44.29766" lon="0.6337">
        <ele>196.25</ele>
        <time>2023-05-30T07:33:32Z</time>
      </trkpt>
      <trkpt lat="44.29767" lon="0.6335">
        <ele>194.8</ele>
        <time>2023-05-30T07:33:39Z</time>
      </trkpt>
      <trkpt lat="44.2977" lon="0.63336">
        <ele>193.36</ele>
        <time>2023-05-30T07:33:43Z</time>
      </trkpt>
      <trkpt lat="44.29774" lon="0.63322">
        <ele>191.92</ele>
        <time>2023-05-30T07:33:50Z</time>
      </trkpt>
      <trkpt lat="44.2978" lon="0.63306">
        <ele>190.48</ele>
        <time>2023-05-30T07:33:58Z</time>
      </trkpt>
      <trkpt lat="44.29786" lon="0.63293">
        <ele>189.52</ele>
        <time>2023-05-30T07:34:05Z</time>
      </trkpt>
      <trkpt lat="44.29791" lon="0.63281">
        <ele>189.04</ele>
        <time>2023-05-30T07:34:11Z</time>
      </trkpt>
      <trkpt lat="44.29794" lon="0.63268">
        <ele>189.04</ele>
        <time>2023-05-30T07:34:17Z</time>
      </trkpt>
      <trkpt lat="44.29793" lon="0.63254">
        <ele>188.56</ele>
        <time>2023-05-30T07:34:23Z</time>
      </trkpt>
      <trkpt lat="44.29794" lon="0.6324">
        <ele>188.08</ele>
        <time>2023-05-30T07:34:31Z</time>
      </trkpt>
      <trkpt lat="44.29791" lon="0.63225">
        <ele>187.59</ele>
        <time>2023-05-30T07:34:39Z</time>
      </trkpt>
      <trkpt lat="44.29787" lon="0.63212">
        <ele>189.52</ele>
        <time>2023-05-30T07:34:45Z</time>
      </trkpt>
      <trkpt lat="44.29781" lon="0.63199">
        <ele>190.96</ele>
        <time>2023-05-30T07:34:52Z</time>
      </trkpt>
      <trkpt lat="44.29776" lon="0.63185">
        <ele>193.84</ele>
        <time>2023-05-30T07:34:58Z</time>
      </trkpt>
      <trkpt lat="44.29768" lon="0.63175">
        <ele>195.28</ele>
        <time>2023-05-30T07:35:03Z</time>
      </trkpt>
      <trkpt lat="44.29761" lon="0.63166">
        <ele>197.21</ele>
        <time>2023-05-30T07:35:09Z</time>
      </trkpt>
      <trkpt lat="44.29753" lon="0.63156">
        <ele>199.13</ele>
        <time>2023-05-30T07:35:16Z</time>
      </trkpt>
      <trkpt lat="44.29745" lon="0.63149">
        <ele>200.09</ele>
        <time>2023-05-30T07:35:23Z</time>
      </trkpt>
      <trkpt lat="44.29736" lon="0.63142">
        <ele>200.57</ele>
        <time>2023-05-30T07:35:30Z</time>
      </trkpt>
      <trkpt lat="44.29727" lon="0.63135">
        <ele>200.57</ele>
        <time>2023-05-30T07:35:38Z</time>
      </trkpt>
      <trkpt lat="44.29717" lon="0.63126">
        <ele>201.05</ele>
        <time>2023-05-30T07:35:47Z</time>
      </trkpt>
      <trkpt lat="44.29706" lon="0.63115">
        <ele>202.49</ele>
        <time>2023-05-30T07:35:55Z</time>
      </trkpt>
      <trkpt lat="44.29695" lon="0.63106">
        <ele>203.46</ele>
        <time>2023-05-30T07:36:02Z</time>
      </trkpt>
      <trkpt lat="44.29687" lon="0.63099">
        <ele>204.9</ele>
        <time>2023-05-30T07:36:06Z</time>
      </trkpt>
      <trkpt lat="44.29678" lon="0.63091">
        <ele>207.3</ele>
        <time>2023-05-30T07:36:14Z</time>
      </trkpt>
      <trkpt lat="44.29669" lon="0.63083">
        <ele>209.22</ele>
        <time>2023-05-30T07:36:22Z</time>
      </trkpt>
      <trkpt lat="44.2966" lon="0.63065">
        <ele>211.63</ele>
        <time>2023-05-30T07:36:44Z</time>
      </trkpt>
      <trkpt lat="44.29648" lon="0.6306">
        <ele>212.59</ele>
        <time>2023-05-30T07:36:52Z</time>
      </trkpt>
      <trkpt lat="44.29637" lon="0.63057">
        <ele>212.59</ele>
        <time>2023-05-30T07:37:00Z</time>
      </trkpt>
      <trkpt lat="44.29625" lon="0.63054">
        <ele>212.59</ele>
        <time>2023-05-30T07:37:09Z</time>
      </trkpt>
      <trkpt lat="44.29621" lon="0.63041">
        <ele>213.55</ele>
        <time>2023-05-30T07:37:18Z</time>
      </trkpt>
      <trkpt lat="44.29622" lon="0.63025">
        <ele>214.03</ele>
        <time>2023-05-30T07:37:26Z</time>
      </trkpt>
      <trkpt lat="44.29623" lon="0.63009">
        <ele>214.51</ele>
        <time>2023-05-30T07:37:34Z</time>
      </trkpt>
      <trkpt lat="44.29625" lon="0.62994">
        <ele>215.47</ele>
        <time>2023-05-30T07:37:41Z</time>
      </trkpt>
      <trkpt lat="44.29627" lon="0.62979">
        <ele>216.43</ele>
        <time>2023-05-30T07:37:49Z</time>
      </trkpt>
      <trkpt lat="44.2963" lon="0.62966">
        <ele>216.91</ele>
        <time>2023-05-30T07:37:56Z</time>
      </trkpt>
      <trkpt lat="44.29633" lon="0.62953">
        <ele>217.88</ele>
        <time>2023-05-30T07:38:04Z</time>
      </trkpt>
      <trkpt lat="44.29625" lon="0.62948">
        <ele>216.91</ele>
        <time>2023-05-30T07:38:14Z</time>
      </trkpt>
      <trkpt lat="44.29614" lon="0.6295">
        <ele>216.43</ele>
        <time>2023-05-30T07:38:21Z</time>
      </trkpt>
      <trkpt lat="44.29604" lon="0.62952">
        <ele>214.99</ele>
        <time>2023-05-30T07:38:28Z</time>
      </trkpt>
      <trkpt lat="44.29592" lon="0.62954">
        <ele>213.07</ele>
        <time>2023-05-30T07:38:36Z</time>
      </trkpt>
      <trkpt lat="44.29581" lon="0.62956">
        <ele>212.59</ele>
        <time>2023-05-30T07:38:44Z</time>
      </trkpt>
      <trkpt lat="44.29568" lon="0.62957">
        <ele>211.15</ele>
        <time>2023-05-30T07:38:52Z</time>
      </trkpt>
      <trkpt lat="44.29557" lon="0.62959">
        <ele>208.74</ele>
        <time>2023-05-30T07:38:59Z</time>
      </trkpt>
      <trkpt lat="44.29545" lon="0.62961">
        <ele>205.86</ele>
        <time>2023-05-30T07:39:06Z</time>
      </trkpt>
      <trkpt lat="44.29536" lon="0.62963">
        <ele>204.42</ele>
        <time>2023-05-30T07:39:12Z</time>
      </trkpt>
      <trkpt lat="44.29527" lon="0.62964">
        <ele>202.98</ele>
        <time>2023-05-30T07:39:18Z</time>
      </trkpt>
      <trkpt lat="44.29517" lon="0.62966">
        <ele>201.05</ele>
        <time>2023-05-30T07:39:24Z</time>
      </trkpt>
      <trkpt lat="44.29508" lon="0.62967">
        <ele>199.61</ele>
        <time>2023-05-30T07:39:30Z</time>
      </trkpt>
      <trkpt lat="44.29498" lon="0.62969">
        <ele>198.17</ele>
        <time>2023-05-30T07:39:36Z</time>
      </trkpt>
      <trkpt lat="44.29488" lon="0.62971">
        <ele>197.69</ele>
        <time>2023-05-30T07:39:42Z</time>
      </trkpt>
      <trkpt lat="44.29478" lon="0.62973">
        <ele>196.73</ele>
        <time>2023-05-30T07:39:49Z</time>
      </trkpt>
      <trkpt lat="44.29466" lon="0.62971">
        <ele>195.77</ele>
        <time>2023-05-30T07:39:58Z</time>
      </trkpt>
      <trkpt lat="44.29455" lon="0.62969">
        <ele>194.8</ele>
        <time>2023-05-30T07:40:06Z</time>
      </trkpt>
      <trkpt lat="44.29444" lon="0.62967">
        <ele>193.84</ele>
        <time>2023-05-30T07:40:14Z</time>
      </trkpt>
      <trkpt lat="44.29431" lon="0.62965">
        <ele>194.32</ele>
        <time>2023-05-30T07:40:22Z</time>
      </trkpt>
      <trkpt lat="44.29419" lon="0.62963">
        <ele>195.28</ele>
        <time>2023-05-30T07:40:30Z</time>
      </trkpt>
      <trkpt lat="44.29408" lon="0.62962">
        <ele>195.28</ele>
        <time>2023-05-30T07:40:37Z</time>
      </trkpt>
      <trkpt lat="44.29398" lon="0.62962">
        <ele>194.8</ele>
        <time>2023-05-30T07:40:44Z</time>
      </trkpt>
      <trkpt lat="44.29386" lon="0.62964">
        <ele>194.8</ele>
        <time>2023-05-30T07:40:52Z</time>
      </trkpt>
      <trkpt lat="44.29375" lon="0.62965">
        <ele>194.32</ele>
        <time>2023-05-30T07:41:01Z</time>
      </trkpt>
      <trkpt lat="44.29342" lon="0.62955">
        <ele>190.96</ele>
        <time>2023-05-30T07:41:33Z</time>
      </trkpt>
      <trkpt lat="44.2933" lon="0.62953">
        <ele>190</ele>
        <time>2023-05-30T07:41:41Z</time>
      </trkpt>
      <trkpt lat="44.2932" lon="0.62954">
        <ele>189.04</ele>
        <time>2023-05-30T07:41:49Z</time>
      </trkpt>
      <trkpt lat="44.29306" lon="0.62954">
        <ele>187.59</ele>
        <time>2023-05-30T07:41:59Z</time>
      </trkpt>
      <trkpt lat="44.29284" lon="0.62954">
        <ele>187.11</ele>
        <time>2023-05-30T07:42:14Z</time>
      </trkpt>
      <trkpt lat="44.29272" lon="0.62942">
        <ele>190.48</ele>
        <time>2023-05-30T07:42:25Z</time>
      </trkpt>
      <trkpt lat="44.29262" lon="0.62935">
        <ele>191.92</ele>
        <time>2023-05-30T07:42:32Z</time>
      </trkpt>
      <trkpt lat="44.29253" lon="0.6293">
        <ele>192.4</ele>
        <time>2023-05-30T07:42:39Z</time>
      </trkpt>
      <trkpt lat="44.29244" lon="0.62925">
        <ele>193.36</ele>
        <time>2023-05-30T07:42:46Z</time>
      </trkpt>
      <trkpt lat="44.29235" lon="0.62919">
        <ele>194.32</ele>
        <time>2023-05-30T07:42:53Z</time>
      </trkpt>
      <trkpt lat="44.29225" lon="0.62912">
        <ele>194.8</ele>
        <time>2023-05-30T07:43:01Z</time>
      </trkpt>
      <trkpt lat="44.29216" lon="0.62907">
        <ele>194.8</ele>
        <time>2023-05-30T07:43:08Z</time>
      </trkpt>
      <trkpt lat="44.29207" lon="0.62904">
        <ele>194.32</ele>
        <time>2023-05-30T07:43:15Z</time>
      </trkpt>
      <trkpt lat="44.29196" lon="0.62905">
        <ele>193.84</ele>
        <time>2023-05-30T07:43:22Z</time>
      </trkpt>
      <trkpt lat="44.29186" lon="0.62907">
        <ele>193.36</ele>
        <time>2023-05-30T07:43:29Z</time>
      </trkpt>
      <trkpt lat="44.29176" lon="0.62908">
        <ele>192.88</ele>
        <time>2023-05-30T07:43:35Z</time>
      </trkpt>
      <trkpt lat="44.29166" lon="0.62911">
        <ele>192.4</ele>
        <time>2023-05-30T07:43:42Z</time>
      </trkpt>
      <trkpt lat="44.29156" lon="0.62913">
        <ele>192.4</ele>
        <time>2023-05-30T07:43:49Z</time>
      </trkpt>
      <trkpt lat="44.29145" lon="0.62914">
        <ele>192.4</ele>
        <time>2023-05-30T07:43:56Z</time>
      </trkpt>
      <trkpt lat="44.29135" lon="0.62916">
        <ele>192.4</ele>
        <time>2023-05-30T07:44:03Z</time>
      </trkpt>
      <trkpt lat="44.29126" lon="0.62919">
        <ele>192.88</ele>
        <time>2023-05-30T07:44:09Z</time>
      </trkpt>
      <trkpt lat="44.29115" lon="0.6292">
        <ele>192.88</ele>
        <time>2023-05-30T07:44:16Z</time>
      </trkpt>
      <trkpt lat="44.29106" lon="0.62923">
        <ele>192.4</ele>
        <time>2023-05-30T07:44:23Z</time>
      </trkpt>
      <trkpt lat="44.29096" lon="0.62925">
        <ele>192.88</ele>
        <time>2023-05-30T07:44:29Z</time>
      </trkpt>
      <trkpt lat="44.29086" lon="0.62927">
        <ele>192.88</ele>
        <time>2023-05-30T07:44:36Z</time>
      </trkpt>
      <trkpt lat="44.29074" lon="0.62928">
        <ele>193.36</ele>
        <time>2023-05-30T07:44:43Z</time>
      </trkpt>
      <trkpt lat="44.29065" lon="0.62929">
        <ele>193.36</ele>
        <time>2023-05-30T07:44:49Z</time>
      </trkpt>
      <trkpt lat="44.29055" lon="0.6293">
        <ele>193.84</ele>
        <time>2023-05-30T07:44:56Z</time>
      </trkpt>
      <trkpt lat="44.29045" lon="0.62936">
        <ele>194.32</ele>
        <time>2023-05-30T07:45:04Z</time>
      </trkpt>
      <trkpt lat="44.29034" lon="0.62939">
        <ele>193.84</ele>
        <time>2023-05-30T07:45:11Z</time>
      </trkpt>
      <trkpt lat="44.29022" lon="0.62943">
        <ele>194.8</ele>
        <time>2023-05-30T07:45:20Z</time>
      </trkpt>
      <trkpt lat="44.29011" lon="0.62949">
        <ele>194.8</ele>
        <time>2023-05-30T07:45:27Z</time>
      </trkpt>
      <trkpt lat="44.29001" lon="0.62955">
        <ele>194.8</ele>
        <time>2023-05-30T07:45:35Z</time>
      </trkpt>
      <trkpt lat="44.29001" lon="0.62971">
        <ele>194.32</ele>
        <time>2023-05-30T07:45:43Z</time>
      </trkpt>
      <trkpt lat="44.28999" lon="0.62987">
        <ele>192.4</ele>
        <time>2023-05-30T07:45:51Z</time>
      </trkpt>
      <trkpt lat="44.28995" lon="0.63003">
        <ele>192.4</ele>
        <time>2023-05-30T07:45:57Z</time>
      </trkpt>
      <trkpt lat="44.28992" lon="0.63017">
        <ele>192.88</ele>
        <time>2023-05-30T07:46:01Z</time>
      </trkpt>
      <trkpt lat="44.28988" lon="0.6303">
        <ele>192.88</ele>
        <time>2023-05-30T07:46:06Z</time>
      </trkpt>
      <trkpt lat="44.28984" lon="0.63044">
        <ele>192.88</ele>
        <time>2023-05-30T07:46:13Z</time>
      </trkpt>
      <trkpt lat="44.2898" lon="0.63056">
        <ele>192.88</ele>
        <time>2023-05-30T07:46:19Z</time>
      </trkpt>
      <trkpt lat="44.28972" lon="0.63066">
        <ele>192.88</ele>
        <time>2023-05-30T07:46:25Z</time>
      </trkpt>
      <trkpt lat="44.28964" lon="0.63078">
        <ele>193.84</ele>
        <time>2023-05-30T07:46:32Z</time>
      </trkpt>
      <trkpt lat="44.28957" lon="0.63088">
        <ele>194.8</ele>
        <time>2023-05-30T07:46:39Z</time>
      </trkpt>
      <trkpt lat="44.28951" lon="0.631">
        <ele>194.8</ele>
        <time>2023-05-30T07:46:46Z</time>
      </trkpt>
      <trkpt lat="44.28948" lon="0.63113">
        <ele>194.32</ele>
        <time>2023-05-30T07:46:52Z</time>
      </trkpt>
      <trkpt lat="44.28945" lon="0.63126">
        <ele>193.84</ele>
        <time>2023-05-30T07:46:59Z</time>
      </trkpt>
      <trkpt lat="44.28942" lon="0.63139">
        <ele>193.36</ele>
        <time>2023-05-30T07:47:05Z</time>
      </trkpt>
      <trkpt lat="44.28939" lon="0.63151">
        <ele>192.88</ele>
        <time>2023-05-30T07:47:11Z</time>
      </trkpt>
      <trkpt lat="44.28937" lon="0.63166">
        <ele>191.44</ele>
        <time>2023-05-30T07:47:17Z</time>
      </trkpt>
      <trkpt lat="44.28936" lon="0.63182">
        <ele>190.48</ele>
        <time>2023-05-30T07:47:22Z</time>
      </trkpt>
      <trkpt lat="44.28935" lon="0.63196">
        <ele>189.52</ele>
        <time>2023-05-30T07:47:28Z</time>
      </trkpt>
      <trkpt lat="44.28936" lon="0.6321">
        <ele>189.04</ele>
        <time>2023-05-30T07:47:34Z</time>
      </trkpt>
      <trkpt lat="44.28938" lon="0.63224">
        <ele>189.04</ele>
        <time>2023-05-30T07:47:40Z</time>
      </trkpt>
      <trkpt lat="44.2894" lon="0.63237">
        <ele>189.04</ele>
        <time>2023-05-30T07:47:46Z</time>
      </trkpt>
      <trkpt lat="44.28942" lon="0.6325">
        <ele>189.52</ele>
        <time>2023-05-30T07:47:52Z</time>
      </trkpt>
      <trkpt lat="44.28945" lon="0.63264">
        <ele>189.52</ele>
        <time>2023-05-30T07:47:58Z</time>
      </trkpt>
      <trkpt lat="44.28948" lon="0.63278">
        <ele>190</ele>
        <time>2023-05-30T07:48:04Z</time>
      </trkpt>
      <trkpt lat="44.28951" lon="0.6329">
        <ele>189.52</ele>
        <time>2023-05-30T07:48:10Z</time>
      </trkpt>
      <trkpt lat="44.28953" lon="0.63303">
        <ele>190</ele>
        <time>2023-05-30T07:48:16Z</time>
      </trkpt>
      <trkpt lat="44.28956" lon="0.63315">
        <ele>190.48</ele>
        <time>2023-05-30T07:48:22Z</time>
      </trkpt>
      <trkpt lat="44.28959" lon="0.63327">
        <ele>190.96</ele>
        <time>2023-05-30T07:48:28Z</time>
      </trkpt>
      <trkpt lat="44.28962" lon="0.6334">
        <ele>190.96</ele>
        <time>2023-05-30T07:48:34Z</time>
      </trkpt>
      <trkpt lat="44.28965" lon="0.63352">
        <ele>190</ele>
        <time>2023-05-30T07:48:40Z</time>
      </trkpt>
      <trkpt lat="44.2897" lon="0.63364">
        <ele>189.04</ele>
        <time>2023-05-30T07:48:46Z</time>
      </trkpt>
      <trkpt lat="44.28973" lon="0.63375">
        <ele>189.04</ele>
        <time>2023-05-30T07:48:52Z</time>
      </trkpt>
      <trkpt lat="44.28975" lon="0.63388">
        <ele>188.56</ele>
        <time>2023-05-30T07:48:58Z</time>
      </trkpt>
      <trkpt lat="44.28975" lon="0.63403">
        <ele>189.04</ele>
        <time>2023-05-30T07:49:05Z</time>
      </trkpt>
      <trkpt lat="44.28973" lon="0.63418">
        <ele>189.52</ele>
        <time>2023-05-30T07:49:11Z</time>
      </trkpt>
      <trkpt lat="44.28971" lon="0.63432">
        <ele>190</ele>
        <time>2023-05-30T07:49:18Z</time>
      </trkpt>
      <trkpt lat="44.28968" lon="0.63444">
        <ele>190.48</ele>
        <time>2023-05-30T07:49:24Z</time>
      </trkpt>
      <trkpt lat="44.28963" lon="0.63457">
        <ele>190.96</ele>
        <time>2023-05-30T07:49:31Z</time>
      </trkpt>
      <trkpt lat="44.28958" lon="0.63467">
        <ele>191.92</ele>
        <time>2023-05-30T07:49:37Z</time>
      </trkpt>
      <trkpt lat="44.28951" lon="0.63477">
        <ele>192.4</ele>
        <time>2023-05-30T07:49:43Z</time>
      </trkpt>
      <trkpt lat="44.28942" lon="0.63484">
        <ele>191.92</ele>
        <time>2023-05-30T07:49:49Z</time>
      </trkpt>
      <trkpt lat="44.28934" lon="0.6349">
        <ele>191.92</ele>
        <time>2023-05-30T07:49:55Z</time>
      </trkpt>
      <trkpt lat="44.28926" lon="0.63498">
        <ele>191.44</ele>
        <time>2023-05-30T07:50:01Z</time>
      </trkpt>
      <trkpt lat="44.28917" lon="0.63505">
        <ele>190.96</ele>
        <time>2023-05-30T07:50:07Z</time>
      </trkpt>
      <trkpt lat="44.2891" lon="0.63512">
        <ele>190.48</ele>
        <time>2023-05-30T07:50:13Z</time>
      </trkpt>
      <trkpt lat="44.289" lon="0.63518">
        <ele>190</ele>
        <time>2023-05-30T07:50:20Z</time>
      </trkpt>
      <trkpt lat="44.28891" lon="0.63521">
        <ele>189.04</ele>
        <time>2023-05-30T07:50:27Z</time>
      </trkpt>
      <trkpt lat="44.2888" lon="0.63522">
        <ele>188.56</ele>
        <time>2023-05-30T07:50:35Z</time>
      </trkpt>
      <trkpt lat="44.2887" lon="0.63527">
        <ele>188.08</ele>
        <time>2023-05-30T07:50:42Z</time>
      </trkpt>
      <trkpt lat="44.28859" lon="0.63535">
        <ele>188.56</ele>
        <time>2023-05-30T07:50:49Z</time>
      </trkpt>
      <trkpt lat="44.28857" lon="0.63549">
        <ele>188.08</ele>
        <time>2023-05-30T07:50:57Z</time>
      </trkpt>
      <trkpt lat="44.28861" lon="0.63561">
        <ele>189.04</ele>
        <time>2023-05-30T07:51:04Z</time>
      </trkpt>
      <trkpt lat="44.2887" lon="0.63575">
        <ele>189.52</ele>
        <time>2023-05-30T07:51:12Z</time>
      </trkpt>
      <trkpt lat="44.28887" lon="0.63583">
        <ele>190.48</ele>
        <time>2023-05-30T07:53:13Z</time>
      </trkpt>
      <trkpt lat="44.28897" lon="0.63589">
        <ele>190</ele>
        <time>2023-05-30T07:53:23Z</time>
      </trkpt>
      <trkpt lat="44.28907" lon="0.63596">
        <ele>189.04</ele>
        <time>2023-05-30T07:53:31Z</time>
      </trkpt>
      <trkpt lat="44.28916" lon="0.63604">
        <ele>189.52</ele>
        <time>2023-05-30T07:53:39Z</time>
      </trkpt>
      <trkpt lat="44.28927" lon="0.63614">
        <ele>189.04</ele>
        <time>2023-05-30T07:53:48Z</time>
      </trkpt>
      <trkpt lat="44.28937" lon="0.63629">
        <ele>187.59</ele>
        <time>2023-05-30T07:53:58Z</time>
      </trkpt>
      <trkpt lat="44.28945" lon="0.63642">
        <ele>186.63</ele>
        <time>2023-05-30T07:54:06Z</time>
      </trkpt>
      <trkpt lat="44.28953" lon="0.63656">
        <ele>185.67</ele>
        <time>2023-05-30T07:54:15Z</time>
      </trkpt>
      <trkpt lat="44.28958" lon="0.63676">
        <ele>184.23</ele>
        <time>2023-05-30T07:54:26Z</time>
      </trkpt>
      <trkpt lat="44.28963" lon="0.63694">
        <ele>184.23</ele>
        <time>2023-05-30T07:54:34Z</time>
      </trkpt>
      <trkpt lat="44.28969" lon="0.63708">
        <ele>183.27</ele>
        <time>2023-05-30T07:54:41Z</time>
      </trkpt>
      <trkpt lat="44.28976" lon="0.63718">
        <ele>183.27</ele>
        <time>2023-05-30T07:54:48Z</time>
      </trkpt>
      <trkpt lat="44.28982" lon="0.63728">
        <ele>182.79</ele>
        <time>2023-05-30T07:54:55Z</time>
      </trkpt>
      <trkpt lat="44.28983" lon="0.63742">
        <ele>182.31</ele>
        <time>2023-05-30T07:55:03Z</time>
      </trkpt>
      <trkpt lat="44.28982" lon="0.63755">
        <ele>181.35</ele>
        <time>2023-05-30T07:55:09Z</time>
      </trkpt>
      <trkpt lat="44.28979" lon="0.63771">
        <ele>179.9</ele>
        <time>2023-05-30T07:55:17Z</time>
      </trkpt>
      <trkpt lat="44.28975" lon="0.63788">
        <ele>178.94</ele>
        <time>2023-05-30T07:55:25Z</time>
      </trkpt>
      <trkpt lat="44.28969" lon="0.63808">
        <ele>176.54</ele>
        <time>2023-05-30T07:55:38Z</time>
      </trkpt>
      <trkpt lat="44.28958" lon="0.63812">
        <ele>174.14</ele>
        <time>2023-05-30T07:55:50Z</time>
      </trkpt>
      <trkpt lat="44.28947" lon="0.63805">
        <ele>173.17</ele>
        <time>2023-05-30T07:55:58Z</time>
      </trkpt>
      <trkpt lat="44.28936" lon="0.63798">
        <ele>172.21</ele>
        <time>2023-05-30T07:56:06Z</time>
      </trkpt>
      <trkpt lat="44.28925" lon="0.63793">
        <ele>171.25</ele>
        <time>2023-05-30T07:56:15Z</time>
      </trkpt>
      <trkpt lat="44.28913" lon="0.63792">
        <ele>169.81</ele>
        <time>2023-05-30T07:56:22Z</time>
      </trkpt>
      <trkpt lat="44.28902" lon="0.63792">
        <ele>168.37</ele>
        <time>2023-05-30T07:56:29Z</time>
      </trkpt>
      <trkpt lat="44.28893" lon="0.63795">
        <ele>167.41</ele>
        <time>2023-05-30T07:56:36Z</time>
      </trkpt>
      <trkpt lat="44.28883" lon="0.638">
        <ele>165.96</ele>
        <time>2023-05-30T07:56:43Z</time>
      </trkpt>
      <trkpt lat="44.28874" lon="0.63805">
        <ele>164.52</ele>
        <time>2023-05-30T07:56:49Z</time>
      </trkpt>
      <trkpt lat="44.28865" lon="0.63812">
        <ele>163.08</ele>
        <time>2023-05-30T07:56:55Z</time>
      </trkpt>
      <trkpt lat="44.28856" lon="0.63818">
        <ele>162.12</ele>
        <time>2023-05-30T07:57:01Z</time>
      </trkpt>
      <trkpt lat="44.28846" lon="0.63824">
        <ele>161.16</ele>
        <time>2023-05-30T07:57:07Z</time>
      </trkpt>
      <trkpt lat="44.28836" lon="0.63831">
        <ele>159.72</ele>
        <time>2023-05-30T07:57:14Z</time>
      </trkpt>
      <trkpt lat="44.28826" lon="0.63836">
        <ele>157.79</ele>
        <time>2023-05-30T07:57:21Z</time>
      </trkpt>
      <trkpt lat="44.28816" lon="0.63844">
        <ele>156.83</ele>
        <time>2023-05-30T07:57:28Z</time>
      </trkpt>
      <trkpt lat="44.28807" lon="0.63849">
        <ele>155.39</ele>
        <time>2023-05-30T07:57:35Z</time>
      </trkpt>
      <trkpt lat="44.28797" lon="0.63855">
        <ele>153.47</ele>
        <time>2023-05-30T07:57:42Z</time>
      </trkpt>
      <trkpt lat="44.28789" lon="0.6386">
        <ele>152.03</ele>
        <time>2023-05-30T07:57:48Z</time>
      </trkpt>
      <trkpt lat="44.28778" lon="0.63865">
        <ele>151.06</ele>
        <time>2023-05-30T07:57:55Z</time>
      </trkpt>
      <trkpt lat="44.28768" lon="0.63871">
        <ele>150.58</ele>
        <time>2023-05-30T07:58:02Z</time>
      </trkpt>
      <trkpt lat="44.28759" lon="0.63878">
        <ele>150.58</ele>
        <time>2023-05-30T07:58:08Z</time>
      </trkpt>
      <trkpt lat="44.28751" lon="0.63889">
        <ele>150.58</ele>
        <time>2023-05-30T07:58:14Z</time>
      </trkpt>
      <trkpt lat="44.28746" lon="0.639">
        <ele>150.1</ele>
        <time>2023-05-30T07:58:19Z</time>
      </trkpt>
      <trkpt lat="44.28745" lon="0.63914">
        <ele>150.1</ele>
        <time>2023-05-30T07:58:25Z</time>
      </trkpt>
      <trkpt lat="44.28745" lon="0.63929">
        <ele>149.62</ele>
        <time>2023-05-30T07:58:32Z</time>
      </trkpt>
      <trkpt lat="44.28748" lon="0.63942">
        <ele>148.18</ele>
        <time>2023-05-30T07:58:39Z</time>
      </trkpt>
      <trkpt lat="44.28754" lon="0.63955">
        <ele>146.26</ele>
        <time>2023-05-30T07:58:48Z</time>
      </trkpt>
      <trkpt lat="44.28746" lon="0.64014">
        <ele>141.93</ele>
        <time>2023-05-30T07:59:42Z</time>
      </trkpt>
      <trkpt lat="44.28766" lon="0.64058">
        <ele>136.64</ele>
        <time>2023-05-30T08:00:12Z</time>
      </trkpt>
      <trkpt lat="44.28778" lon="0.64071">
        <ele>133.76</ele>
        <time>2023-05-30T08:00:22Z</time>
      </trkpt>
      <trkpt lat="44.28787" lon="0.6408">
        <ele>133.28</ele>
        <time>2023-05-30T08:00:30Z</time>
      </trkpt>
      <trkpt lat="44.28795" lon="0.64087">
        <ele>131.84</ele>
        <time>2023-05-30T08:00:39Z</time>
      </trkpt>
      <trkpt lat="44.28805" lon="0.64097">
        <ele>130.4</ele>
        <time>2023-05-30T08:00:50Z</time>
      </trkpt>
      <trkpt lat="44.28819" lon="0.64122">
        <ele>127.51</ele>
        <time>2023-05-30T08:01:06Z</time>
      </trkpt>
      <trkpt lat="44.28829" lon="0.64148">
        <ele>122.71</ele>
        <time>2023-05-30T08:01:22Z</time>
      </trkpt>
      <trkpt lat="44.28833" lon="0.64164">
        <ele>119.82</ele>
        <time>2023-05-30T08:01:32Z</time>
      </trkpt>
      <trkpt lat="44.28838" lon="0.64179">
        <ele>119.34</ele>
        <time>2023-05-30T08:01:40Z</time>
      </trkpt>
      <trkpt lat="44.28845" lon="0.64194">
        <ele>119.82</ele>
        <time>2023-05-30T08:01:49Z</time>
      </trkpt>
      <trkpt lat="44.28852" lon="0.64206">
        <ele>120.3</ele>
        <time>2023-05-30T08:01:57Z</time>
      </trkpt>
      <trkpt lat="44.28861" lon="0.64217">
        <ele>120.3</ele>
        <time>2023-05-30T08:02:05Z</time>
      </trkpt>
      <trkpt lat="44.28868" lon="0.64228">
        <ele>118.38</ele>
        <time>2023-05-30T08:02:12Z</time>
      </trkpt>
      <trkpt lat="44.28875" lon="0.6424">
        <ele>115.98</ele>
        <time>2023-05-30T08:02:21Z</time>
      </trkpt>
      <trkpt lat="44.28883" lon="0.6425">
        <ele>113.57</ele>
        <time>2023-05-30T08:02:30Z</time>
      </trkpt>
      <trkpt lat="44.289" lon="0.64263">
        <ele>109.73</ele>
        <time>2023-05-30T08:03:02Z</time>
      </trkpt>
      <trkpt lat="44.28908" lon="0.64283">
        <ele>111.65</ele>
        <time>2023-05-30T08:03:29Z</time>
      </trkpt>
      <trkpt lat="44.2891" lon="0.64299">
        <ele>115.5</ele>
        <time>2023-05-30T08:03:37Z</time>
      </trkpt>
      <trkpt lat="44.28916" lon="0.64312">
        <ele>115.5</ele>
        <time>2023-05-30T08:03:45Z</time>
      </trkpt>
      <trkpt lat="44.28925" lon="0.64322">
        <ele>115.5</ele>
        <time>2023-05-30T08:03:53Z</time>
      </trkpt>
      <trkpt lat="44.28933" lon="0.64332">
        <ele>115.98</ele>
        <time>2023-05-30T08:04:01Z</time>
      </trkpt>
      <trkpt lat="44.2893" lon="0.64347">
        <ele>117.42</ele>
        <time>2023-05-30T08:04:09Z</time>
      </trkpt>
      <trkpt lat="44.28924" lon="0.64353">
        <ele>122.22</ele>
        <time>2023-05-30T08:05:22Z</time>
      </trkpt>
      <trkpt lat="44.28927" lon="0.64358">
        <ele>119.34</ele>
        <time>2023-05-30T08:05:54Z</time>
      </trkpt>
      <trkpt lat="44.28934" lon="0.64343">
        <ele>119.82</ele>
        <time>2023-05-30T08:06:20Z</time>
      </trkpt>
      <trkpt lat="44.28937" lon="0.64329">
        <ele>119.34</ele>
        <time>2023-05-30T08:06:29Z</time>
      </trkpt>
      <trkpt lat="44.28948" lon="0.64329">
        <ele>118.38</ele>
        <time>2023-05-30T08:06:37Z</time>
      </trkpt>
      <trkpt lat="44.28941" lon="0.64328">
        <ele>117.42</ele>
        <time>2023-05-30T08:06:54Z</time>
      </trkpt>
      <trkpt lat="44.28936" lon="0.64334">
        <ele>116.94</ele>
        <time>2023-05-30T08:07:03Z</time>
      </trkpt>
      <trkpt lat="44.28946" lon="0.64334">
        <ele>116.46</ele>
        <time>2023-05-30T08:07:09Z</time>
      </trkpt>
      <trkpt lat="44.28956" lon="0.64336">
        <ele>117.42</ele>
        <time>2023-05-30T08:07:15Z</time>
      </trkpt>
      <trkpt lat="44.28968" lon="0.64337">
        <ele>117.42</ele>
        <time>2023-05-30T08:07:23Z</time>
      </trkpt>
      <trkpt lat="44.2898" lon="0.64337">
        <ele>117.9</ele>
        <time>2023-05-30T08:07:31Z</time>
      </trkpt>
      <trkpt lat="44.28992" lon="0.64335">
        <ele>118.38</ele>
        <time>2023-05-30T08:07:39Z</time>
      </trkpt>
      <trkpt lat="44.29006" lon="0.64331">
        <ele>118.86</ele>
        <time>2023-05-30T08:07:48Z</time>
      </trkpt>
      <trkpt lat="44.29019" lon="0.64323">
        <ele>117.9</ele>
        <time>2023-05-30T08:07:57Z</time>
      </trkpt>
      <trkpt lat="44.29104" lon="0.64251">
        <ele>118.38</ele>
        <time>2023-05-30T08:14:31Z</time>
      </trkpt>
      <trkpt lat="44.29111" lon="0.64267">
        <ele>117.9</ele>
        <time>2023-05-30T08:14:39Z</time>
      </trkpt>
      <trkpt lat="44.2911" lon="0.64288">
        <ele>119.34</ele>
        <time>2023-05-30T08:14:48Z</time>
      </trkpt>
      <trkpt lat="44.29107" lon="0.64304">
        <ele>119.82</ele>
        <time>2023-05-30T08:14:56Z</time>
      </trkpt>
      <trkpt lat="44.2911" lon="0.64349">
        <ele>119.82</ele>
        <time>2023-05-30T08:15:21Z</time>
      </trkpt>
      <trkpt lat="44.29115" lon="0.64369">
        <ele>117.9</ele>
        <time>2023-05-30T08:15:31Z</time>
      </trkpt>
      <trkpt lat="44.29133" lon="0.6441">
        <ele>115.98</ele>
        <time>2023-05-30T08:15:54Z</time>
      </trkpt>
      <trkpt lat="44.29145" lon="0.64426">
        <ele>118.38</ele>
        <time>2023-05-30T08:16:05Z</time>
      </trkpt>
      <trkpt lat="44.29158" lon="0.64434">
        <ele>119.34</ele>
        <time>2023-05-30T08:16:14Z</time>
      </trkpt>
      <trkpt lat="44.29171" lon="0.64444">
        <ele>120.78</ele>
        <time>2023-05-30T08:16:24Z</time>
      </trkpt>
      <trkpt lat="44.29186" lon="0.64457">
        <ele>122.22</ele>
        <time>2023-05-30T08:16:36Z</time>
      </trkpt>
      <trkpt lat="44.29204" lon="0.64475">
        <ele>124.63</ele>
        <time>2023-05-30T08:16:52Z</time>
      </trkpt>
      <trkpt lat="44.29218" lon="0.64486">
        <ele>122.71</ele>
        <time>2023-05-30T08:17:04Z</time>
      </trkpt>
      <trkpt lat="44.29229" lon="0.64495">
        <ele>120.78</ele>
        <time>2023-05-30T08:17:12Z</time>
      </trkpt>
      <trkpt lat="44.29238" lon="0.64502">
        <ele>119.34</ele>
        <time>2023-05-30T08:17:19Z</time>
      </trkpt>
      <trkpt lat="44.29249" lon="0.6451">
        <ele>118.86</ele>
        <time>2023-05-30T08:17:28Z</time>
      </trkpt>
      <trkpt lat="44.29259" lon="0.64523">
        <ele>117.9</ele>
        <time>2023-05-30T08:17:38Z</time>
      </trkpt>
      <trkpt lat="44.29268" lon="0.64537">
        <ele>117.42</ele>
        <time>2023-05-30T08:17:46Z</time>
      </trkpt>
      <trkpt lat="44.29277" lon="0.64551">
        <ele>116.46</ele>
        <time>2023-05-30T08:17:54Z</time>
      </trkpt>
      <trkpt lat="44.29283" lon="0.64564">
        <ele>115.5</ele>
        <time>2023-05-30T08:18:02Z</time>
      </trkpt>
      <trkpt lat="44.29288" lon="0.64578">
        <ele>113.57</ele>
        <time>2023-05-30T08:18:10Z</time>
      </trkpt>
      <trkpt lat="44.29292" lon="0.64592">
        <ele>112.13</ele>
        <time>2023-05-30T08:18:17Z</time>
      </trkpt>
      <trkpt lat="44.29295" lon="0.64607">
        <ele>111.17</ele>
        <time>2023-05-30T08:18:24Z</time>
      </trkpt>
      <trkpt lat="44.29297" lon="0.64623">
        <ele>109.25</ele>
        <time>2023-05-30T08:18:32Z</time>
      </trkpt>
      <trkpt lat="44.29303" lon="0.64646">
        <ele>110.21</ele>
        <time>2023-05-30T08:18:43Z</time>
      </trkpt>
      <trkpt lat="44.29309" lon="0.64664">
        <ele>109.73</ele>
        <time>2023-05-30T08:18:51Z</time>
      </trkpt>
      <trkpt lat="44.29315" lon="0.64681">
        <ele>110.21</ele>
        <time>2023-05-30T08:18:59Z</time>
      </trkpt>
      <trkpt lat="44.29321" lon="0.647">
        <ele>110.21</ele>
        <time>2023-05-30T08:19:07Z</time>
      </trkpt>
      <trkpt lat="44.29325" lon="0.64716">
        <ele>110.21</ele>
        <time>2023-05-30T08:19:14Z</time>
      </trkpt>
      <trkpt lat="44.29328" lon="0.64732">
        <ele>110.21</ele>
        <time>2023-05-30T08:19:22Z</time>
      </trkpt>
      <trkpt lat="44.29331" lon="0.64751">
        <ele>110.69</ele>
        <time>2023-05-30T08:19:32Z</time>
      </trkpt>
      <trkpt lat="44.29335" lon="0.64786">
        <ele>112.61</ele>
        <time>2023-05-30T08:19:48Z</time>
      </trkpt>
      <trkpt lat="44.29341" lon="0.64799">
        <ele>113.09</ele>
        <time>2023-05-30T08:19:55Z</time>
      </trkpt>
      <trkpt lat="44.2935" lon="0.64805">
        <ele>113.09</ele>
        <time>2023-05-30T08:20:02Z</time>
      </trkpt>
      <trkpt lat="44.29361" lon="0.64808">
        <ele>114.05</ele>
        <time>2023-05-30T08:20:10Z</time>
      </trkpt>
      <trkpt lat="44.29368" lon="0.64825">
        <ele>115.5</ele>
        <time>2023-05-30T08:20:18Z</time>
      </trkpt>
      <trkpt lat="44.29366" lon="0.64842">
        <ele>116.94</ele>
        <time>2023-05-30T08:20:25Z</time>
      </trkpt>
      <trkpt lat="44.29362" lon="0.64854">
        <ele>116.94</ele>
        <time>2023-05-30T08:20:31Z</time>
      </trkpt>
      <trkpt lat="44.29358" lon="0.64868">
        <ele>116.46</ele>
        <time>2023-05-30T08:20:38Z</time>
      </trkpt>
      <trkpt lat="44.2936" lon="0.64886">
        <ele>114.53</ele>
        <time>2023-05-30T08:20:46Z</time>
      </trkpt>
      <trkpt lat="44.29363" lon="0.64902">
        <ele>113.57</ele>
        <time>2023-05-30T08:20:53Z</time>
      </trkpt>
      <trkpt lat="44.29368" lon="0.64917">
        <ele>112.61</ele>
        <time>2023-05-30T08:21:00Z</time>
      </trkpt>
      <trkpt lat="44.29372" lon="0.6493">
        <ele>113.09</ele>
        <time>2023-05-30T08:21:06Z</time>
      </trkpt>
      <trkpt lat="44.29378" lon="0.64943">
        <ele>113.57</ele>
        <time>2023-05-30T08:21:13Z</time>
      </trkpt>
      <trkpt lat="44.29385" lon="0.64954">
        <ele>114.53</ele>
        <time>2023-05-30T08:21:19Z</time>
      </trkpt>
      <trkpt lat="44.29391" lon="0.64964">
        <ele>114.53</ele>
        <time>2023-05-30T08:21:25Z</time>
      </trkpt>
      <trkpt lat="44.29399" lon="0.64977">
        <ele>114.53</ele>
        <time>2023-05-30T08:21:32Z</time>
      </trkpt>
      <trkpt lat="44.29406" lon="0.64989">
        <ele>115.01</ele>
        <time>2023-05-30T08:21:39Z</time>
      </trkpt>
      <trkpt lat="44.29413" lon="0.65001">
        <ele>115.5</ele>
        <time>2023-05-30T08:21:46Z</time>
      </trkpt>
      <trkpt lat="44.29419" lon="0.65014">
        <ele>116.46</ele>
        <time>2023-05-30T08:21:54Z</time>
      </trkpt>
      <trkpt lat="44.29427" lon="0.65026">
        <ele>115.98</ele>
        <time>2023-05-30T08:21:59Z</time>
      </trkpt>
      <trkpt lat="44.29433" lon="0.65039">
        <ele>116.94</ele>
        <time>2023-05-30T08:22:06Z</time>
      </trkpt>
      <trkpt lat="44.2944" lon="0.65054">
        <ele>116.46</ele>
        <time>2023-05-30T08:22:15Z</time>
      </trkpt>
      <trkpt lat="44.29447" lon="0.65065">
        <ele>116.46</ele>
        <time>2023-05-30T08:22:20Z</time>
      </trkpt>
      <trkpt lat="44.29453" lon="0.65079">
        <ele>115.98</ele>
        <time>2023-05-30T08:22:28Z</time>
      </trkpt>
      <trkpt lat="44.29461" lon="0.65092">
        <ele>116.46</ele>
        <time>2023-05-30T08:22:34Z</time>
      </trkpt>
      <trkpt lat="44.29468" lon="0.65103">
        <ele>116.46</ele>
        <time>2023-05-30T08:22:41Z</time>
      </trkpt>
      <trkpt lat="44.29477" lon="0.65113">
        <ele>115.98</ele>
        <time>2023-05-30T08:22:49Z</time>
      </trkpt>
      <trkpt lat="44.29487" lon="0.65121">
        <ele>115.5</ele>
        <time>2023-05-30T08:22:57Z</time>
      </trkpt>
      <trkpt lat="44.29498" lon="0.6513">
        <ele>116.46</ele>
        <time>2023-05-30T08:23:04Z</time>
      </trkpt>
      <trkpt lat="44.29509" lon="0.65139">
        <ele>118.38</ele>
        <time>2023-05-30T08:23:12Z</time>
      </trkpt>
      <trkpt lat="44.29523" lon="0.65155">
        <ele>119.82</ele>
        <time>2023-05-30T08:23:24Z</time>
      </trkpt>
      <trkpt lat="44.29535" lon="0.65169">
        <ele>121.26</ele>
        <time>2023-05-30T08:23:32Z</time>
      </trkpt>
      <trkpt lat="44.29544" lon="0.65184">
        <ele>124.15</ele>
        <time>2023-05-30T08:23:40Z</time>
      </trkpt>
      <trkpt lat="44.29552" lon="0.65201">
        <ele>124.15</ele>
        <time>2023-05-30T08:23:50Z</time>
      </trkpt>
      <trkpt lat="44.2956" lon="0.65221">
        <ele>124.15</ele>
        <time>2023-05-30T08:23:59Z</time>
      </trkpt>
      <trkpt lat="44.29566" lon="0.65235">
        <ele>124.15</ele>
        <time>2023-05-30T08:24:06Z</time>
      </trkpt>
      <trkpt lat="44.29576" lon="0.6525">
        <ele>122.22</ele>
        <time>2023-05-30T08:24:17Z</time>
      </trkpt>
      <trkpt lat="44.29589" lon="0.65267">
        <ele>121.26</ele>
        <time>2023-05-30T08:24:27Z</time>
      </trkpt>
      <trkpt lat="44.29601" lon="0.6528">
        <ele>120.3</ele>
        <time>2023-05-30T08:24:36Z</time>
      </trkpt>
      <trkpt lat="44.29608" lon="0.65295">
        <ele>119.34</ele>
        <time>2023-05-30T08:24:44Z</time>
      </trkpt>
      <trkpt lat="44.29614" lon="0.65311">
        <ele>118.38</ele>
        <time>2023-05-30T08:24:51Z</time>
      </trkpt>
      <trkpt lat="44.29619" lon="0.65323">
        <ele>117.9</ele>
        <time>2023-05-30T08:24:57Z</time>
      </trkpt>
      <trkpt lat="44.29625" lon="0.65337">
        <ele>118.38</ele>
        <time>2023-05-30T08:25:04Z</time>
      </trkpt>
      <trkpt lat="44.29629" lon="0.65352">
        <ele>118.38</ele>
        <time>2023-05-30T08:25:11Z</time>
      </trkpt>
      <trkpt lat="44.29631" lon="0.65368">
        <ele>119.34</ele>
        <time>2023-05-30T08:25:18Z</time>
      </trkpt>
      <trkpt lat="44.29633" lon="0.65382">
        <ele>119.34</ele>
        <time>2023-05-30T08:25:24Z</time>
      </trkpt>
      <trkpt lat="44.29635" lon="0.65395">
        <ele>119.82</ele>
        <time>2023-05-30T08:25:30Z</time>
      </trkpt>
      <trkpt lat="44.29636" lon="0.65408">
        <ele>118.38</ele>
        <time>2023-05-30T08:25:36Z</time>
      </trkpt>
      <trkpt lat="44.29637" lon="0.65422">
        <ele>117.9</ele>
        <time>2023-05-30T08:25:42Z</time>
      </trkpt>
      <trkpt lat="44.2964" lon="0.65438">
        <ele>116.94</ele>
        <time>2023-05-30T08:25:49Z</time>
      </trkpt>
      <trkpt lat="44.29641" lon="0.65454">
        <ele>115.5</ele>
        <time>2023-05-30T08:25:56Z</time>
      </trkpt>
      <trkpt lat="44.29643" lon="0.6547">
        <ele>114.53</ele>
        <time>2023-05-30T08:26:03Z</time>
      </trkpt>
      <trkpt lat="44.29646" lon="0.65485">
        <ele>113.09</ele>
        <time>2023-05-30T08:26:10Z</time>
      </trkpt>
      <trkpt lat="44.29647" lon="0.65501">
        <ele>112.13</ele>
        <time>2023-05-30T08:26:17Z</time>
      </trkpt>
      <trkpt lat="44.29649" lon="0.65517">
        <ele>110.69</ele>
        <time>2023-05-30T08:26:24Z</time>
      </trkpt>
      <trkpt lat="44.29653" lon="0.65532">
        <ele>110.21</ele>
        <time>2023-05-30T08:26:31Z</time>
      </trkpt>
      <trkpt lat="44.29655" lon="0.65546">
        <ele>110.69</ele>
        <time>2023-05-30T08:26:38Z</time>
      </trkpt>
      <trkpt lat="44.29656" lon="0.65561">
        <ele>110.69</ele>
        <time>2023-05-30T08:26:45Z</time>
      </trkpt>
      <trkpt lat="44.29657" lon="0.65577">
        <ele>111.17</ele>
        <time>2023-05-30T08:26:52Z</time>
      </trkpt>
      <trkpt lat="44.29659" lon="0.65593">
        <ele>111.65</ele>
        <time>2023-05-30T08:27:00Z</time>
      </trkpt>
      <trkpt lat="44.29661" lon="0.65616">
        <ele>112.61</ele>
        <time>2023-05-30T08:27:14Z</time>
      </trkpt>
      <trkpt lat="44.2966" lon="0.65634">
        <ele>112.61</ele>
        <time>2023-05-30T08:27:23Z</time>
      </trkpt>
      <trkpt lat="44.29648" lon="0.65653">
        <ele>112.61</ele>
        <time>2023-05-30T08:27:30Z</time>
      </trkpt>
      <trkpt lat="44.29634" lon="0.65661">
        <ele>113.57</ele>
        <time>2023-05-30T08:27:36Z</time>
      </trkpt>
      <trkpt lat="44.29627" lon="0.6567">
        <ele>114.53</ele>
        <time>2023-05-30T08:27:41Z</time>
      </trkpt>
      <trkpt lat="44.29623" lon="0.65682">
        <ele>114.53</ele>
        <time>2023-05-30T08:27:47Z</time>
      </trkpt>
      <trkpt lat="44.29624" lon="0.65697">
        <ele>115.01</ele>
        <time>2023-05-30T08:27:53Z</time>
      </trkpt>
      <trkpt lat="44.29624" lon="0.65712">
        <ele>116.46</ele>
        <time>2023-05-30T08:27:59Z</time>
      </trkpt>
      <trkpt lat="44.29626" lon="0.65726">
        <ele>117.9</ele>
        <time>2023-05-30T08:28:05Z</time>
      </trkpt>
      <trkpt lat="44.29627" lon="0.6574">
        <ele>118.38</ele>
        <time>2023-05-30T08:28:11Z</time>
      </trkpt>
      <trkpt lat="44.29624" lon="0.65755">
        <ele>118.86</ele>
        <time>2023-05-30T08:28:17Z</time>
      </trkpt>
      <trkpt lat="44.29618" lon="0.65769">
        <ele>119.82</ele>
        <time>2023-05-30T08:28:24Z</time>
      </trkpt>
      <trkpt lat="44.29613" lon="0.65781">
        <ele>119.82</ele>
        <time>2023-05-30T08:28:30Z</time>
      </trkpt>
      <trkpt lat="44.29606" lon="0.65791">
        <ele>119.82</ele>
        <time>2023-05-30T08:28:36Z</time>
      </trkpt>
      <trkpt lat="44.29601" lon="0.65805">
        <ele>122.22</ele>
        <time>2023-05-30T08:29:20Z</time>
      </trkpt>
      <trkpt lat="44.29601" lon="0.65819">
        <ele>121.26</ele>
        <time>2023-05-30T08:29:27Z</time>
      </trkpt>
      <trkpt lat="44.29601" lon="0.65831">
        <ele>120.78</ele>
        <time>2023-05-30T08:29:34Z</time>
      </trkpt>
      <trkpt lat="44.29606" lon="0.65859">
        <ele>119.82</ele>
        <time>2023-05-30T08:29:54Z</time>
      </trkpt>
      <trkpt lat="44.29616" lon="0.65877">
        <ele>118.86</ele>
        <time>2023-05-30T08:30:03Z</time>
      </trkpt>
      <trkpt lat="44.29624" lon="0.65893">
        <ele>118.86</ele>
        <time>2023-05-30T08:30:12Z</time>
      </trkpt>
      <trkpt lat="44.29634" lon="0.65915">
        <ele>119.82</ele>
        <time>2023-05-30T08:30:22Z</time>
      </trkpt>
      <trkpt lat="44.2964" lon="0.65928">
        <ele>120.3</ele>
        <time>2023-05-30T08:30:30Z</time>
      </trkpt>
      <trkpt lat="44.29646" lon="0.65939">
        <ele>120.3</ele>
        <time>2023-05-30T08:30:39Z</time>
      </trkpt>
      <trkpt lat="44.29653" lon="0.65959">
        <ele>120.78</ele>
        <time>2023-05-30T08:30:49Z</time>
      </trkpt>
      <trkpt lat="44.2966" lon="0.65976">
        <ele>120.78</ele>
        <time>2023-05-30T08:30:58Z</time>
      </trkpt>
      <trkpt lat="44.29679" lon="0.66003">
        <ele>117.42</ele>
        <time>2023-05-30T08:31:22Z</time>
      </trkpt>
      <trkpt lat="44.29691" lon="0.66019">
        <ele>116.46</ele>
        <time>2023-05-30T08:31:33Z</time>
      </trkpt>
      <trkpt lat="44.29705" lon="0.66032">
        <ele>115.98</ele>
        <time>2023-05-30T08:31:43Z</time>
      </trkpt>
      <trkpt lat="44.29723" lon="0.6605">
        <ele>118.86</ele>
        <time>2023-05-30T08:31:53Z</time>
      </trkpt>
      <trkpt lat="44.29736" lon="0.66068">
        <ele>122.22</ele>
        <time>2023-05-30T08:32:03Z</time>
      </trkpt>
      <trkpt lat="44.29748" lon="0.66087">
        <ele>126.07</ele>
        <time>2023-05-30T08:32:13Z</time>
      </trkpt>
      <trkpt lat="44.29755" lon="0.66099">
        <ele>127.03</ele>
        <time>2023-05-30T08:32:20Z</time>
      </trkpt>
      <trkpt lat="44.29767" lon="0.66145">
        <ele>126.07</ele>
        <time>2023-05-30T08:32:43Z</time>
      </trkpt>
      <trkpt lat="44.29771" lon="0.66172">
        <ele>124.15</ele>
        <time>2023-05-30T08:32:53Z</time>
      </trkpt>
      <trkpt lat="44.29774" lon="0.66192">
        <ele>123.19</ele>
        <time>2023-05-30T08:33:03Z</time>
      </trkpt>
      <trkpt lat="44.29777" lon="0.66211">
        <ele>124.15</ele>
        <time>2023-05-30T08:33:12Z</time>
      </trkpt>
      <trkpt lat="44.29779" lon="0.66227">
        <ele>123.67</ele>
        <time>2023-05-30T08:33:20Z</time>
      </trkpt>
      <trkpt lat="44.29783" lon="0.66241">
        <ele>123.67</ele>
        <time>2023-05-30T08:33:28Z</time>
      </trkpt>
      <trkpt lat="44.29786" lon="0.66258">
        <ele>123.67</ele>
        <time>2023-05-30T08:33:36Z</time>
      </trkpt>
      <trkpt lat="44.2979" lon="0.66275">
        <ele>123.19</ele>
        <time>2023-05-30T08:33:45Z</time>
      </trkpt>
      <trkpt lat="44.29796" lon="0.6629">
        <ele>123.67</ele>
        <time>2023-05-30T08:33:53Z</time>
      </trkpt>
      <trkpt lat="44.29806" lon="0.66305">
        <ele>125.11</ele>
        <time>2023-05-30T08:34:03Z</time>
      </trkpt>
      <trkpt lat="44.29817" lon="0.66326">
        <ele>125.59</ele>
        <time>2023-05-30T08:34:17Z</time>
      </trkpt>
      <trkpt lat="44.29822" lon="0.66357">
        <ele>126.07</ele>
        <time>2023-05-30T08:34:33Z</time>
      </trkpt>
      <trkpt lat="44.29828" lon="0.66383">
        <ele>127.99</ele>
        <time>2023-05-30T08:34:46Z</time>
      </trkpt>
      <trkpt lat="44.29831" lon="0.66401">
        <ele>128.47</ele>
        <time>2023-05-30T08:34:54Z</time>
      </trkpt>
      <trkpt lat="44.29836" lon="0.66419">
        <ele>129.43</ele>
        <time>2023-05-30T08:35:04Z</time>
      </trkpt>
      <trkpt lat="44.29841" lon="0.66452">
        <ele>131.84</ele>
        <time>2023-05-30T08:35:21Z</time>
      </trkpt>
      <trkpt lat="44.29847" lon="0.66472">
        <ele>133.76</ele>
        <time>2023-05-30T08:35:30Z</time>
      </trkpt>
      <trkpt lat="44.29853" lon="0.66487">
        <ele>135.68</ele>
        <time>2023-05-30T08:35:39Z</time>
      </trkpt>
      <trkpt lat="44.29865" lon="0.66499">
        <ele>135.68</ele>
        <time>2023-05-30T08:35:49Z</time>
      </trkpt>
      <trkpt lat="44.29875" lon="0.66511">
        <ele>135.2</ele>
        <time>2023-05-30T08:35:58Z</time>
      </trkpt>
      <trkpt lat="44.29898" lon="0.66541">
        <ele>136.64</ele>
        <time>2023-05-30T08:36:19Z</time>
      </trkpt>
      <trkpt lat="44.29906" lon="0.66558">
        <ele>137.61</ele>
        <time>2023-05-30T08:36:28Z</time>
      </trkpt>
      <trkpt lat="44.29917" lon="0.66576">
        <ele>139.53</ele>
        <time>2023-05-30T08:36:38Z</time>
      </trkpt>
      <trkpt lat="44.29934" lon="0.66601">
        <ele>138.09</ele>
        <time>2023-05-30T08:36:53Z</time>
      </trkpt>
      <trkpt lat="44.29951" lon="0.66627">
        <ele>133.76</ele>
        <time>2023-05-30T08:37:11Z</time>
      </trkpt>
      <trkpt lat="44.29967" lon="0.66646">
        <ele>127.99</ele>
        <time>2023-05-30T08:37:25Z</time>
      </trkpt>
      <trkpt lat="44.29979" lon="0.66655">
        <ele>126.55</ele>
        <time>2023-05-30T08:37:34Z</time>
      </trkpt>
      <trkpt lat="44.29993" lon="0.66666">
        <ele>125.11</ele>
        <time>2023-05-30T08:37:43Z</time>
      </trkpt>
      <trkpt lat="44.30007" lon="0.6667">
        <ele>126.07</ele>
        <time>2023-05-30T08:37:52Z</time>
      </trkpt>
      <trkpt lat="44.30022" lon="0.66673">
        <ele>128.47</ele>
        <time>2023-05-30T08:38:01Z</time>
      </trkpt>
      <trkpt lat="44.30036" lon="0.66677">
        <ele>131.36</ele>
        <time>2023-05-30T08:38:09Z</time>
      </trkpt>
      <trkpt lat="44.30046" lon="0.66686">
        <ele>134.72</ele>
        <time>2023-05-30T08:38:18Z</time>
      </trkpt>
      <trkpt lat="44.3004" lon="0.66716">
        <ele>134.24</ele>
        <time>2023-05-30T08:38:33Z</time>
      </trkpt>
      <trkpt lat="44.30037" lon="0.66732">
        <ele>134.72</ele>
        <time>2023-05-30T08:38:40Z</time>
      </trkpt>
      <trkpt lat="44.30036" lon="0.66747">
        <ele>135.2</ele>
        <time>2023-05-30T08:38:47Z</time>
      </trkpt>
      <trkpt lat="44.30034" lon="0.66763">
        <ele>135.2</ele>
        <time>2023-05-30T08:38:54Z</time>
      </trkpt>
      <trkpt lat="44.30033" lon="0.6678">
        <ele>135.68</ele>
        <time>2023-05-30T08:39:01Z</time>
      </trkpt>
      <trkpt lat="44.30032" lon="0.66796">
        <ele>135.68</ele>
        <time>2023-05-30T08:39:08Z</time>
      </trkpt>
      <trkpt lat="44.3003" lon="0.66812">
        <ele>134.24</ele>
        <time>2023-05-30T08:39:15Z</time>
      </trkpt>
      <trkpt lat="44.30028" lon="0.66828">
        <ele>134.24</ele>
        <time>2023-05-30T08:39:22Z</time>
      </trkpt>
      <trkpt lat="44.30027" lon="0.66842">
        <ele>133.76</ele>
        <time>2023-05-30T08:39:28Z</time>
      </trkpt>
      <trkpt lat="44.30024" lon="0.66856">
        <ele>132.8</ele>
        <time>2023-05-30T08:39:34Z</time>
      </trkpt>
      <trkpt lat="44.3002" lon="0.66869">
        <ele>131.36</ele>
        <time>2023-05-30T08:39:40Z</time>
      </trkpt>
      <trkpt lat="44.30016" lon="0.66881">
        <ele>130.4</ele>
        <time>2023-05-30T08:39:46Z</time>
      </trkpt>
      <trkpt lat="44.30011" lon="0.66892">
        <ele>129.43</ele>
        <time>2023-05-30T08:39:53Z</time>
      </trkpt>
      <trkpt lat="44.30004" lon="0.66907">
        <ele>126.07</ele>
        <time>2023-05-30T08:40:17Z</time>
      </trkpt>
      <trkpt lat="44.29998" lon="0.6692">
        <ele>125.59</ele>
        <time>2023-05-30T08:40:24Z</time>
      </trkpt>
      <trkpt lat="44.29993" lon="0.66933">
        <ele>125.11</ele>
        <time>2023-05-30T08:40:31Z</time>
      </trkpt>
      <trkpt lat="44.29995" lon="0.66947">
        <ele>125.11</ele>
        <time>2023-05-30T08:40:41Z</time>
      </trkpt>
      <trkpt lat="44.30005" lon="0.66951">
        <ele>124.15</ele>
        <time>2023-05-30T08:40:48Z</time>
      </trkpt>
      <trkpt lat="44.30016" lon="0.66957">
        <ele>124.15</ele>
        <time>2023-05-30T08:40:55Z</time>
      </trkpt>
      <trkpt lat="44.30025" lon="0.6696">
        <ele>123.67</ele>
        <time>2023-05-30T08:41:02Z</time>
      </trkpt>
      <trkpt lat="44.30037" lon="0.66963">
        <ele>123.19</ele>
        <time>2023-05-30T08:41:10Z</time>
      </trkpt>
      <trkpt lat="44.30048" lon="0.66966">
        <ele>123.67</ele>
        <time>2023-05-30T08:41:17Z</time>
      </trkpt>
      <trkpt lat="44.30058" lon="0.6697">
        <ele>123.67</ele>
        <time>2023-05-30T08:41:24Z</time>
      </trkpt>
      <trkpt lat="44.30067" lon="0.66975">
        <ele>124.15</ele>
        <time>2023-05-30T08:41:31Z</time>
      </trkpt>
      <trkpt lat="44.30079" lon="0.6698">
        <ele>125.11</ele>
        <time>2023-05-30T08:41:39Z</time>
      </trkpt>
      <trkpt lat="44.3009" lon="0.66982">
        <ele>126.55</ele>
        <time>2023-05-30T08:41:46Z</time>
      </trkpt>
      <trkpt lat="44.30101" lon="0.66985">
        <ele>127.03</ele>
        <time>2023-05-30T08:41:56Z</time>
      </trkpt>
      <trkpt lat="44.30111" lon="0.66995">
        <ele>127.51</ele>
        <time>2023-05-30T08:42:04Z</time>
      </trkpt>
      <trkpt lat="44.30124" lon="0.67008">
        <ele>128.95</ele>
        <time>2023-05-30T08:42:13Z</time>
      </trkpt>
      <trkpt lat="44.30132" lon="0.67016">
        <ele>129.43</ele>
        <time>2023-05-30T08:42:21Z</time>
      </trkpt>
      <trkpt lat="44.3014" lon="0.67026">
        <ele>131.36</ele>
        <time>2023-05-30T08:42:30Z</time>
      </trkpt>
      <trkpt lat="44.30147" lon="0.67036">
        <ele>132.32</ele>
        <time>2023-05-30T08:42:38Z</time>
      </trkpt>
      <trkpt lat="44.30168" lon="0.67043">
        <ele>139.05</ele>
        <time>2023-05-30T08:43:30Z</time>
      </trkpt>
      <trkpt lat="44.30184" lon="0.67049">
        <ele>140.49</ele>
        <time>2023-05-30T08:43:43Z</time>
      </trkpt>
      <trkpt lat="44.30188" lon="0.67072">
        <ele>142.41</ele>
        <time>2023-05-30T08:43:55Z</time>
      </trkpt>
      <trkpt lat="44.30189" lon="0.67091">
        <ele>143.85</ele>
        <time>2023-05-30T08:44:04Z</time>
      </trkpt>
      <trkpt lat="44.30193" lon="0.67106">
        <ele>146.74</ele>
        <time>2023-05-30T08:44:11Z</time>
      </trkpt>
      <trkpt lat="44.30202" lon="0.67112">
        <ele>148.66</ele>
        <time>2023-05-30T08:44:19Z</time>
      </trkpt>
      <trkpt lat="44.30212" lon="0.67117">
        <ele>150.1</ele>
        <time>2023-05-30T08:44:29Z</time>
      </trkpt>
      <trkpt lat="44.30224" lon="0.67125">
        <ele>150.1</ele>
        <time>2023-05-30T08:44:43Z</time>
      </trkpt>
      <trkpt lat="44.30235" lon="0.67132">
        <ele>149.62</ele>
        <time>2023-05-30T08:44:53Z</time>
      </trkpt>
      <trkpt lat="44.30249" lon="0.67142">
        <ele>150.1</ele>
        <time>2023-05-30T08:45:02Z</time>
      </trkpt>
      <trkpt lat="44.3026" lon="0.67152">
        <ele>151.54</ele>
        <time>2023-05-30T08:45:10Z</time>
      </trkpt>
      <trkpt lat="44.3027" lon="0.67164">
        <ele>152.99</ele>
        <time>2023-05-30T08:45:21Z</time>
      </trkpt>
      <trkpt lat="44.3028" lon="0.67176">
        <ele>153.47</ele>
        <time>2023-05-30T08:45:31Z</time>
      </trkpt>
      <trkpt lat="44.30293" lon="0.67188">
        <ele>153.95</ele>
        <time>2023-05-30T08:45:41Z</time>
      </trkpt>
      <trkpt lat="44.30286" lon="0.67215">
        <ele>155.87</ele>
        <time>2023-05-30T08:46:06Z</time>
      </trkpt>
      <trkpt lat="44.30274" lon="0.67208">
        <ele>159.24</ele>
        <time>2023-05-30T08:46:16Z</time>
      </trkpt>
      <trkpt lat="44.30264" lon="0.67203">
        <ele>161.16</ele>
        <time>2023-05-30T08:46:23Z</time>
      </trkpt>
      <trkpt lat="44.30252" lon="0.67201">
        <ele>163.56</ele>
        <time>2023-05-30T08:46:32Z</time>
      </trkpt>
      <trkpt lat="44.30241" lon="0.67194">
        <ele>165.96</ele>
        <time>2023-05-30T08:46:41Z</time>
      </trkpt>
      <trkpt lat="44.30231" lon="0.67185">
        <ele>168.85</ele>
        <time>2023-05-30T08:46:49Z</time>
      </trkpt>
      <trkpt lat="44.3022" lon="0.67181">
        <ele>170.29</ele>
        <time>2023-05-30T08:46:56Z</time>
      </trkpt>
      <trkpt lat="44.30207" lon="0.67187">
        <ele>171.25</ele>
        <time>2023-05-30T08:47:08Z</time>
      </trkpt>
      <trkpt lat="44.30173" lon="0.67238">
        <ele>172.21</ele>
        <time>2023-05-30T08:47:48Z</time>
      </trkpt>
      <trkpt lat="44.3016" lon="0.67254">
        <ele>174.14</ele>
        <time>2023-05-30T08:47:58Z</time>
      </trkpt>
      <trkpt lat="44.3014" lon="0.67261">
        <ele>177.98</ele>
        <time>2023-05-30T08:48:11Z</time>
      </trkpt>
      <trkpt lat="44.30126" lon="0.67267">
        <ele>179.9</ele>
        <time>2023-05-30T08:48:19Z</time>
      </trkpt>
      <trkpt lat="44.30108" lon="0.67273">
        <ele>184.71</ele>
        <time>2023-05-30T08:48:31Z</time>
      </trkpt>
      <trkpt lat="44.30087" lon="0.67279">
        <ele>185.67</ele>
        <time>2023-05-30T08:48:45Z</time>
      </trkpt>
      <trkpt lat="44.30076" lon="0.67281">
        <ele>184.23</ele>
        <time>2023-05-30T08:48:54Z</time>
      </trkpt>
      <trkpt lat="44.30064" lon="0.67287">
        <ele>183.27</ele>
        <time>2023-05-30T08:49:02Z</time>
      </trkpt>
      <trkpt lat="44.30054" lon="0.67296">
        <ele>183.75</ele>
        <time>2023-05-30T08:49:09Z</time>
      </trkpt>
      <trkpt lat="44.30047" lon="0.67306">
        <ele>183.75</ele>
        <time>2023-05-30T08:49:15Z</time>
      </trkpt>
      <trkpt lat="44.30039" lon="0.67319">
        <ele>184.23</ele>
        <time>2023-05-30T08:49:23Z</time>
      </trkpt>
      <trkpt lat="44.30038" lon="0.67333">
        <ele>185.19</ele>
        <time>2023-05-30T08:49:27Z</time>
      </trkpt>
      <trkpt lat="44.30038" lon="0.67352">
        <ele>186.15</ele>
        <time>2023-05-30T08:49:30Z</time>
      </trkpt>
      <trkpt lat="44.3004" lon="0.67367">
        <ele>186.15</ele>
        <time>2023-05-30T08:49:32Z</time>
      </trkpt>
      <trkpt lat="44.30042" lon="0.67383">
        <ele>186.63</ele>
        <time>2023-05-30T08:49:34Z</time>
      </trkpt>
      <trkpt lat="44.30044" lon="0.67399">
        <ele>187.11</ele>
        <time>2023-05-30T08:49:36Z</time>
      </trkpt>
      <trkpt lat="44.30048" lon="0.67414">
        <ele>187.11</ele>
        <time>2023-05-30T08:49:38Z</time>
      </trkpt>
      <trkpt lat="44.30051" lon="0.67429">
        <ele>187.59</ele>
        <time>2023-05-30T08:49:40Z</time>
      </trkpt>
      <trkpt lat="44.30056" lon="0.67444">
        <ele>188.08</ele>
        <time>2023-05-30T08:49:42Z</time>
      </trkpt>
      <trkpt lat="44.30061" lon="0.67458">
        <ele>188.08</ele>
        <time>2023-05-30T08:49:44Z</time>
      </trkpt>
      <trkpt lat="44.30065" lon="0.67473">
        <ele>188.08</ele>
        <time>2023-05-30T08:49:46Z</time>
      </trkpt>
      <trkpt lat="44.3007" lon="0.67488">
        <ele>188.56</ele>
        <time>2023-05-30T08:49:48Z</time>
      </trkpt>
      <trkpt lat="44.30076" lon="0.67504">
        <ele>189.04</ele>
        <time>2023-05-30T08:49:50Z</time>
      </trkpt>
      <trkpt lat="44.30082" lon="0.6752">
        <ele>189.52</ele>
        <time>2023-05-30T08:49:52Z</time>
      </trkpt>
      <trkpt lat="44.30088" lon="0.67534">
        <ele>190</ele>
        <time>2023-05-30T08:49:54Z</time>
      </trkpt>
      <trkpt lat="44.30094" lon="0.67547">
        <ele>190.48</ele>
        <time>2023-05-30T08:49:56Z</time>
      </trkpt>
      <trkpt lat="44.30099" lon="0.67559">
        <ele>190.96</ele>
        <time>2023-05-30T08:49:58Z</time>
      </trkpt>
      <trkpt lat="44.30105" lon="0.67574">
        <ele>191.92</ele>
        <time>2023-05-30T08:50:01Z</time>
      </trkpt>
      <trkpt lat="44.30105" lon="0.67586">
        <ele>192.4</ele>
        <time>2023-05-30T08:50:06Z</time>
      </trkpt>
      <trkpt lat="44.30096" lon="0.67593">
        <ele>192.4</ele>
        <time>2023-05-30T08:50:14Z</time>
      </trkpt>
      <trkpt lat="44.30089" lon="0.67603">
        <ele>191.92</ele>
        <time>2023-05-30T08:50:21Z</time>
      </trkpt>
      <trkpt lat="44.30092" lon="0.6762">
        <ele>191.92</ele>
        <time>2023-05-30T08:50:25Z</time>
      </trkpt>
      <trkpt lat="44.30093" lon="0.67636">
        <ele>191.44</ele>
        <time>2023-05-30T08:50:28Z</time>
      </trkpt>
      <trkpt lat="44.30089" lon="0.6766">
        <ele>191.44</ele>
        <time>2023-05-30T08:50:31Z</time>
      </trkpt>
      <trkpt lat="44.30087" lon="0.67676">
        <ele>191.92</ele>
        <time>2023-05-30T08:50:33Z</time>
      </trkpt>
      <trkpt lat="44.30088" lon="0.67692">
        <ele>192.4</ele>
        <time>2023-05-30T08:50:35Z</time>
      </trkpt>
      <trkpt lat="44.30092" lon="0.67712">
        <ele>193.36</ele>
        <time>2023-05-30T08:50:38Z</time>
      </trkpt>
      <trkpt lat="44.30093" lon="0.67732">
        <ele>193.84</ele>
        <time>2023-05-30T08:50:41Z</time>
      </trkpt>
      <trkpt lat="44.30093" lon="0.67748">
        <ele>194.32</ele>
        <time>2023-05-30T08:50:43Z</time>
      </trkpt>
      <trkpt lat="44.30094" lon="0.67762">
        <ele>194.8</ele>
        <time>2023-05-30T08:50:45Z</time>
      </trkpt>
      <trkpt lat="44.30093" lon="0.67781">
        <ele>195.77</ele>
        <time>2023-05-30T08:50:48Z</time>
      </trkpt>
      <trkpt lat="44.30092" lon="0.67796">
        <ele>196.25</ele>
        <time>2023-05-30T08:50:50Z</time>
      </trkpt>
      <trkpt lat="44.30092" lon="0.67812">
        <ele>196.73</ele>
        <time>2023-05-30T08:50:52Z</time>
      </trkpt>
      <trkpt lat="44.30093" lon="0.67829">
        <ele>197.21</ele>
        <time>2023-05-30T08:50:54Z</time>
      </trkpt>
      <trkpt lat="44.30095" lon="0.67844">
        <ele>197.69</ele>
        <time>2023-05-30T08:50:56Z</time>
      </trkpt>
      <trkpt lat="44.30098" lon="0.67865">
        <ele>198.17</ele>
        <time>2023-05-30T08:50:59Z</time>
      </trkpt>
      <trkpt lat="44.30101" lon="0.67885">
        <ele>198.65</ele>
        <time>2023-05-30T08:51:02Z</time>
      </trkpt>
      <trkpt lat="44.30106" lon="0.67898">
        <ele>199.13</ele>
        <time>2023-05-30T08:51:04Z</time>
      </trkpt>
      <trkpt lat="44.30112" lon="0.67911">
        <ele>199.13</ele>
        <time>2023-05-30T08:51:06Z</time>
      </trkpt>
      <trkpt lat="44.3012" lon="0.67923">
        <ele>199.61</ele>
        <time>2023-05-30T08:51:08Z</time>
      </trkpt>
      <trkpt lat="44.30125" lon="0.67935">
        <ele>200.09</ele>
        <time>2023-05-30T08:51:10Z</time>
      </trkpt>
      <trkpt lat="44.3013" lon="0.67948">
        <ele>200.57</ele>
        <time>2023-05-30T08:51:12Z</time>
      </trkpt>
      <trkpt lat="44.30133" lon="0.67962">
        <ele>201.05</ele>
        <time>2023-05-30T08:51:14Z</time>
      </trkpt>
      <trkpt lat="44.30136" lon="0.67975">
        <ele>201.05</ele>
        <time>2023-05-30T08:51:16Z</time>
      </trkpt>
      <trkpt lat="44.30138" lon="0.67989">
        <ele>201.53</ele>
        <time>2023-05-30T08:51:18Z</time>
      </trkpt>
      <trkpt lat="44.30135" lon="0.68005">
        <ele>202.01</ele>
        <time>2023-05-30T08:51:20Z</time>
      </trkpt>
      <trkpt lat="44.30131" lon="0.68021">
        <ele>202.01</ele>
        <time>2023-05-30T08:51:22Z</time>
      </trkpt>
      <trkpt lat="44.30125" lon="0.68037">
        <ele>202.49</ele>
        <time>2023-05-30T08:51:24Z</time>
      </trkpt>
      <trkpt lat="44.30119" lon="0.68051">
        <ele>202.98</ele>
        <time>2023-05-30T08:51:26Z</time>
      </trkpt>
      <trkpt lat="44.30115" lon="0.68064">
        <ele>202.98</ele>
        <time>2023-05-30T08:51:28Z</time>
      </trkpt>
      <trkpt lat="44.30113" lon="0.68077">
        <ele>203.46</ele>
        <time>2023-05-30T08:51:30Z</time>
      </trkpt>
      <trkpt lat="44.30112" lon="0.68098">
        <ele>203.46</ele>
        <time>2023-05-30T08:51:33Z</time>
      </trkpt>
      <trkpt lat="44.30112" lon="0.68111">
        <ele>203.94</ele>
        <time>2023-05-30T08:51:35Z</time>
      </trkpt>
      <trkpt lat="44.30114" lon="0.68129">
        <ele>203.46</ele>
        <time>2023-05-30T08:51:38Z</time>
      </trkpt>
      <trkpt lat="44.30114" lon="0.68146">
        <ele>202.98</ele>
        <time>2023-05-30T08:51:41Z</time>
      </trkpt>
      <trkpt lat="44.30113" lon="0.68166">
        <ele>202.49</ele>
        <time>2023-05-30T08:51:44Z</time>
      </trkpt>
      <trkpt lat="44.30113" lon="0.68186">
        <ele>201.53</ele>
        <time>2023-05-30T08:51:47Z</time>
      </trkpt>
      <trkpt lat="44.30116" lon="0.682">
        <ele>201.05</ele>
        <time>2023-05-30T08:51:49Z</time>
      </trkpt>
      <trkpt lat="44.30124" lon="0.68212">
        <ele>200.57</ele>
        <time>2023-05-30T08:51:51Z</time>
      </trkpt>
      <trkpt lat="44.30133" lon="0.68222">
        <ele>200.09</ele>
        <time>2023-05-30T08:51:53Z</time>
      </trkpt>
      <trkpt lat="44.30142" lon="0.68229">
        <ele>200.09</ele>
        <time>2023-05-30T08:51:55Z</time>
      </trkpt>
      <trkpt lat="44.30151" lon="0.68236">
        <ele>200.09</ele>
        <time>2023-05-30T08:51:57Z</time>
      </trkpt>
      <trkpt lat="44.30161" lon="0.68244">
        <ele>199.61</ele>
        <time>2023-05-30T08:51:59Z</time>
      </trkpt>
      <trkpt lat="44.3017" lon="0.68253">
        <ele>199.61</ele>
        <time>2023-05-30T08:52:01Z</time>
      </trkpt>
      <trkpt lat="44.30178" lon="0.68264">
        <ele>199.13</ele>
        <time>2023-05-30T08:52:03Z</time>
      </trkpt>
      <trkpt lat="44.30187" lon="0.68274">
        <ele>199.13</ele>
        <time>2023-05-30T08:52:05Z</time>
      </trkpt>
      <trkpt lat="44.30194" lon="0.68284">
        <ele>198.65</ele>
        <time>2023-05-30T08:52:07Z</time>
      </trkpt>
      <trkpt lat="44.30205" lon="0.68296">
        <ele>198.65</ele>
        <time>2023-05-30T08:52:10Z</time>
      </trkpt>
      <trkpt lat="44.30216" lon="0.68307">
        <ele>198.17</ele>
        <time>2023-05-30T08:52:13Z</time>
      </trkpt>
      <trkpt lat="44.30229" lon="0.68318">
        <ele>197.69</ele>
        <time>2023-05-30T08:52:16Z</time>
      </trkpt>
      <trkpt lat="44.30241" lon="0.68325">
        <ele>198.17</ele>
        <time>2023-05-30T08:52:19Z</time>
      </trkpt>
      <trkpt lat="44.30254" lon="0.68329">
        <ele>197.69</ele>
        <time>2023-05-30T08:52:22Z</time>
      </trkpt>
      <trkpt lat="44.30264" lon="0.68334">
        <ele>197.69</ele>
        <time>2023-05-30T08:52:24Z</time>
      </trkpt>
      <trkpt lat="44.30276" lon="0.68348">
        <ele>196.73</ele>
        <time>2023-05-30T08:52:27Z</time>
      </trkpt>
      <trkpt lat="44.30287" lon="0.68364">
        <ele>195.77</ele>
        <time>2023-05-30T08:52:30Z</time>
      </trkpt>
      <trkpt lat="44.30295" lon="0.68374">
        <ele>195.77</ele>
        <time>2023-05-30T08:52:32Z</time>
      </trkpt>
      <trkpt lat="44.30304" lon="0.68384">
        <ele>195.28</ele>
        <time>2023-05-30T08:52:34Z</time>
      </trkpt>
      <trkpt lat="44.30314" lon="0.68394">
        <ele>195.77</ele>
        <time>2023-05-30T08:52:36Z</time>
      </trkpt>
      <trkpt lat="44.30322" lon="0.68404">
        <ele>196.73</ele>
        <time>2023-05-30T08:52:38Z</time>
      </trkpt>
      <trkpt lat="44.30329" lon="0.68414">
        <ele>196.73</ele>
        <time>2023-05-30T08:52:40Z</time>
      </trkpt>
      <trkpt lat="44.30336" lon="0.6843">
        <ele>198.17</ele>
        <time>2023-05-30T08:52:43Z</time>
      </trkpt>
      <trkpt lat="44.30342" lon="0.68442">
        <ele>199.13</ele>
        <time>2023-05-30T08:52:45Z</time>
      </trkpt>
      <trkpt lat="44.30351" lon="0.68459">
        <ele>200.09</ele>
        <time>2023-05-30T08:52:48Z</time>
      </trkpt>
      <trkpt lat="44.30358" lon="0.68471">
        <ele>200.57</ele>
        <time>2023-05-30T08:52:50Z</time>
      </trkpt>
      <trkpt lat="44.30367" lon="0.68485">
        <ele>202.01</ele>
        <time>2023-05-30T08:52:53Z</time>
      </trkpt>
      <trkpt lat="44.30375" lon="0.68495">
        <ele>203.94</ele>
        <time>2023-05-30T08:52:56Z</time>
      </trkpt>
      <trkpt lat="44.30383" lon="0.68508">
        <ele>206.82</ele>
        <time>2023-05-30T08:53:03Z</time>
      </trkpt>
      <trkpt lat="44.30394" lon="0.68525">
        <ele>209.7</ele>
        <time>2023-05-30T08:53:13Z</time>
      </trkpt>
      <trkpt lat="44.30405" lon="0.6854">
        <ele>209.7</ele>
        <time>2023-05-30T08:53:21Z</time>
      </trkpt>
      <trkpt lat="44.30413" lon="0.68556">
        <ele>206.82</ele>
        <time>2023-05-30T08:53:28Z</time>
      </trkpt>
      <trkpt lat="44.30419" lon="0.68572">
        <ele>204.9</ele>
        <time>2023-05-30T08:53:36Z</time>
      </trkpt>
      <trkpt lat="44.30422" lon="0.68594">
        <ele>202.01</ele>
        <time>2023-05-30T08:53:49Z</time>
      </trkpt>
      <trkpt lat="44.30418" lon="0.68609">
        <ele>200.09</ele>
        <time>2023-05-30T08:53:57Z</time>
      </trkpt>
      <trkpt lat="44.30409" lon="0.6862">
        <ele>198.17</ele>
        <time>2023-05-30T08:54:06Z</time>
      </trkpt>
      <trkpt lat="44.30399" lon="0.68633">
        <ele>197.21</ele>
        <time>2023-05-30T08:54:14Z</time>
      </trkpt>
      <trkpt lat="44.3039" lon="0.68643">
        <ele>195.77</ele>
        <time>2023-05-30T08:54:22Z</time>
      </trkpt>
      <trkpt lat="44.30378" lon="0.68651">
        <ele>193.84</ele>
        <time>2023-05-30T08:54:32Z</time>
      </trkpt>
      <trkpt lat="44.30367" lon="0.68659">
        <ele>191.92</ele>
        <time>2023-05-30T08:54:40Z</time>
      </trkpt>
      <trkpt lat="44.30364" lon="0.6867">
        <ele>189.52</ele>
        <time>2023-05-30T08:54:52Z</time>
      </trkpt>
      <trkpt lat="44.3037" lon="0.68681">
        <ele>189.04</ele>
        <time>2023-05-30T08:55:00Z</time>
      </trkpt>
      <trkpt lat="44.30367" lon="0.68699">
        <ele>192.4</ele>
        <time>2023-05-30T08:55:09Z</time>
      </trkpt>
      <trkpt lat="44.30363" lon="0.68714">
        <ele>195.28</ele>
        <time>2023-05-30T08:55:17Z</time>
      </trkpt>
      <trkpt lat="44.3036" lon="0.68728">
        <ele>196.73</ele>
        <time>2023-05-30T08:55:25Z</time>
      </trkpt>
      <trkpt lat="44.30359" lon="0.68743">
        <ele>199.13</ele>
        <time>2023-05-30T08:55:38Z</time>
      </trkpt>
      <trkpt lat="44.30355" lon="0.68757">
        <ele>201.05</ele>
        <time>2023-05-30T08:55:46Z</time>
      </trkpt>
      <trkpt lat="44.30352" lon="0.6877">
        <ele>202.01</ele>
        <time>2023-05-30T08:55:53Z</time>
      </trkpt>
      <trkpt lat="44.30349" lon="0.68783">
        <ele>202.49</ele>
        <time>2023-05-30T08:56:01Z</time>
      </trkpt>
      <trkpt lat="44.30345" lon="0.68798">
        <ele>202.98</ele>
        <time>2023-05-30T08:56:09Z</time>
      </trkpt>
      <trkpt lat="44.30341" lon="0.68813">
        <ele>203.46</ele>
        <time>2023-05-30T08:56:16Z</time>
      </trkpt>
      <trkpt lat="44.30337" lon="0.68825">
        <ele>203.94</ele>
        <time>2023-05-30T08:56:23Z</time>
      </trkpt>
      <trkpt lat="44.30332" lon="0.68838">
        <ele>204.42</ele>
        <time>2023-05-30T08:56:30Z</time>
      </trkpt>
      <trkpt lat="44.30328" lon="0.6885">
        <ele>204.9</ele>
        <time>2023-05-30T08:56:37Z</time>
      </trkpt>
      <trkpt lat="44.30323" lon="0.68861">
        <ele>204.9</ele>
        <time>2023-05-30T08:56:44Z</time>
      </trkpt>
      <trkpt lat="44.30317" lon="0.68874">
        <ele>204.42</ele>
        <time>2023-05-30T08:56:52Z</time>
      </trkpt>
      <trkpt lat="44.30311" lon="0.68885">
        <ele>204.9</ele>
        <time>2023-05-30T08:57:00Z</time>
      </trkpt>
      <trkpt lat="44.30304" lon="0.68895">
        <ele>204.9</ele>
        <time>2023-05-30T08:57:07Z</time>
      </trkpt>
      <trkpt lat="44.30296" lon="0.68904">
        <ele>204.9</ele>
        <time>2023-05-30T08:57:14Z</time>
      </trkpt>
      <trkpt lat="44.30287" lon="0.68913">
        <ele>205.38</ele>
        <time>2023-05-30T08:57:21Z</time>
      </trkpt>
      <trkpt lat="44.30279" lon="0.6892">
        <ele>205.86</ele>
        <time>2023-05-30T08:57:28Z</time>
      </trkpt>
      <trkpt lat="44.3027" lon="0.68925">
        <ele>206.82</ele>
        <time>2023-05-30T08:57:35Z</time>
      </trkpt>
      <trkpt lat="44.30261" lon="0.68931">
        <ele>206.82</ele>
        <time>2023-05-30T08:57:42Z</time>
      </trkpt>
      <trkpt lat="44.30253" lon="0.68938">
        <ele>206.82</ele>
        <time>2023-05-30T08:57:49Z</time>
      </trkpt>
      <trkpt lat="44.30244" lon="0.68944">
        <ele>206.34</ele>
        <time>2023-05-30T08:57:57Z</time>
      </trkpt>
      <trkpt lat="44.30236" lon="0.6895">
        <ele>206.34</ele>
        <time>2023-05-30T08:58:04Z</time>
      </trkpt>
      <trkpt lat="44.30227" lon="0.68956">
        <ele>206.34</ele>
        <time>2023-05-30T08:58:11Z</time>
      </trkpt>
      <trkpt lat="44.3022" lon="0.68964">
        <ele>206.34</ele>
        <time>2023-05-30T08:58:18Z</time>
      </trkpt>
      <trkpt lat="44.30212" lon="0.68973">
        <ele>206.34</ele>
        <time>2023-05-30T08:58:25Z</time>
      </trkpt>
      <trkpt lat="44.30205" lon="0.68983">
        <ele>205.86</ele>
        <time>2023-05-30T08:58:32Z</time>
      </trkpt>
      <trkpt lat="44.30199" lon="0.68994">
        <ele>205.38</ele>
        <time>2023-05-30T08:58:39Z</time>
      </trkpt>
      <trkpt lat="44.30191" lon="0.69003">
        <ele>204.9</ele>
        <time>2023-05-30T08:58:46Z</time>
      </trkpt>
      <trkpt lat="44.30183" lon="0.69014">
        <ele>204.9</ele>
        <time>2023-05-30T08:58:53Z</time>
      </trkpt>
      <trkpt lat="44.30176" lon="0.69024">
        <ele>204.42</ele>
        <time>2023-05-30T08:58:59Z</time>
      </trkpt>
      <trkpt lat="44.30169" lon="0.69031">
        <ele>203.94</ele>
        <time>2023-05-30T08:59:05Z</time>
      </trkpt>
      <trkpt lat="44.3016" lon="0.69036">
        <ele>203.94</ele>
        <time>2023-05-30T08:59:11Z</time>
      </trkpt>
      <trkpt lat="44.3015" lon="0.69042">
        <ele>203.46</ele>
        <time>2023-05-30T08:59:18Z</time>
      </trkpt>
      <trkpt lat="44.30141" lon="0.69048">
        <ele>203.46</ele>
        <time>2023-05-30T08:59:25Z</time>
      </trkpt>
      <trkpt lat="44.30132" lon="0.69053">
        <ele>202.98</ele>
        <time>2023-05-30T08:59:32Z</time>
      </trkpt>
      <trkpt lat="44.30122" lon="0.69056">
        <ele>201.53</ele>
        <time>2023-05-30T08:59:39Z</time>
      </trkpt>
      <trkpt lat="44.30112" lon="0.6906">
        <ele>201.05</ele>
        <time>2023-05-30T08:59:46Z</time>
      </trkpt>
      <trkpt lat="44.30101" lon="0.69064">
        <ele>199.61</ele>
        <time>2023-05-30T08:59:54Z</time>
      </trkpt>
      <trkpt lat="44.30092" lon="0.69068">
        <ele>199.13</ele>
        <time>2023-05-30T09:00:00Z</time>
      </trkpt>
      <trkpt lat="44.30082" lon="0.69071">
        <ele>197.69</ele>
        <time>2023-05-30T09:00:06Z</time>
      </trkpt>
      <trkpt lat="44.30071" lon="0.69075">
        <ele>196.25</ele>
        <time>2023-05-30T09:00:13Z</time>
      </trkpt>
      <trkpt lat="44.3006" lon="0.69078">
        <ele>195.28</ele>
        <time>2023-05-30T09:00:20Z</time>
      </trkpt>
      <trkpt lat="44.30051" lon="0.69082">
        <ele>194.32</ele>
        <time>2023-05-30T09:00:27Z</time>
      </trkpt>
      <trkpt lat="44.30038" lon="0.69081">
        <ele>193.36</ele>
        <time>2023-05-30T09:00:36Z</time>
      </trkpt>
      <trkpt lat="44.30034" lon="0.69062">
        <ele>191.92</ele>
        <time>2023-05-30T09:00:45Z</time>
      </trkpt>
      <trkpt lat="44.30033" lon="0.69046">
        <ele>189.52</ele>
        <time>2023-05-30T09:00:54Z</time>
      </trkpt>
      <trkpt lat="44.3003" lon="0.69027">
        <ele>187.59</ele>
        <time>2023-05-30T09:01:04Z</time>
      </trkpt>
      <trkpt lat="44.30019" lon="0.68996">
        <ele>184.71</ele>
        <time>2023-05-30T09:01:21Z</time>
      </trkpt>
      <trkpt lat="44.30006" lon="0.69055">
        <ele>176.06</ele>
        <time>2023-05-30T09:01:58Z</time>
      </trkpt>
      <trkpt lat="44.30003" lon="0.69079">
        <ele>174.62</ele>
        <time>2023-05-30T09:02:10Z</time>
      </trkpt>
      <trkpt lat="44.29984" lon="0.69117">
        <ele>169.33</ele>
        <time>2023-05-30T09:02:36Z</time>
      </trkpt>
      <trkpt lat="44.2998" lon="0.69136">
        <ele>167.41</ele>
        <time>2023-05-30T09:02:45Z</time>
      </trkpt>
      <trkpt lat="44.29965" lon="0.69132">
        <ele>162.12</ele>
        <time>2023-05-30T09:02:57Z</time>
      </trkpt>
      <trkpt lat="44.29946" lon="0.69133">
        <ele>161.64</ele>
        <time>2023-05-30T09:03:18Z</time>
      </trkpt>
      <trkpt lat="44.29936" lon="0.69138">
        <ele>162.12</ele>
        <time>2023-05-30T09:03:26Z</time>
      </trkpt>
      <trkpt lat="44.29932" lon="0.69138">
        <ele>163.56</ele>
        <time>2023-05-30T09:04:02Z</time>
      </trkpt>
      <trkpt lat="44.29921" lon="0.69141">
        <ele>165</ele>
        <time>2023-05-30T09:04:10Z</time>
      </trkpt>
      <trkpt lat="44.29911" lon="0.69145">
        <ele>165</ele>
        <time>2023-05-30T09:04:17Z</time>
      </trkpt>
      <trkpt lat="44.29901" lon="0.6915">
        <ele>165.48</ele>
        <time>2023-05-30T09:04:24Z</time>
      </trkpt>
      <trkpt lat="44.29891" lon="0.69153">
        <ele>166.45</ele>
        <time>2023-05-30T09:04:31Z</time>
      </trkpt>
      <trkpt lat="44.29881" lon="0.69154">
        <ele>168.37</ele>
        <time>2023-05-30T09:04:38Z</time>
      </trkpt>
      <trkpt lat="44.29871" lon="0.69155">
        <ele>169.81</ele>
        <time>2023-05-30T09:04:45Z</time>
      </trkpt>
      <trkpt lat="44.29836" lon="0.69163">
        <ele>170.77</ele>
        <time>2023-05-30T09:05:08Z</time>
      </trkpt>
      <trkpt lat="44.29825" lon="0.69164">
        <ele>172.21</ele>
        <time>2023-05-30T09:05:15Z</time>
      </trkpt>
      <trkpt lat="44.29815" lon="0.69165">
        <ele>174.14</ele>
        <time>2023-05-30T09:05:21Z</time>
      </trkpt>
      <trkpt lat="44.29804" lon="0.69166">
        <ele>176.06</ele>
        <time>2023-05-30T09:05:29Z</time>
      </trkpt>
      <trkpt lat="44.29792" lon="0.6917">
        <ele>177.98</ele>
        <time>2023-05-30T09:05:38Z</time>
      </trkpt>
      <trkpt lat="44.29782" lon="0.69173">
        <ele>178.46</ele>
        <time>2023-05-30T09:05:47Z</time>
      </trkpt>
      <trkpt lat="44.2977" lon="0.69177">
        <ele>179.9</ele>
        <time>2023-05-30T09:05:55Z</time>
      </trkpt>
      <trkpt lat="44.29759" lon="0.69183">
        <ele>180.38</ele>
        <time>2023-05-30T09:06:04Z</time>
      </trkpt>
      <trkpt lat="44.29747" lon="0.69192">
        <ele>180.87</ele>
        <time>2023-05-30T09:06:12Z</time>
      </trkpt>
      <trkpt lat="44.29737" lon="0.69197">
        <ele>180.87</ele>
        <time>2023-05-30T09:06:20Z</time>
      </trkpt>
      <trkpt lat="44.29726" lon="0.69209">
        <ele>180.87</ele>
        <time>2023-05-30T09:06:29Z</time>
      </trkpt>
      <trkpt lat="44.29716" lon="0.6922">
        <ele>181.35</ele>
        <time>2023-05-30T09:06:37Z</time>
      </trkpt>
      <trkpt lat="44.29703" lon="0.69228">
        <ele>181.83</ele>
        <time>2023-05-30T09:06:46Z</time>
      </trkpt>
      <trkpt lat="44.2969" lon="0.69235">
        <ele>182.79</ele>
        <time>2023-05-30T09:06:55Z</time>
      </trkpt>
      <trkpt lat="44.29677" lon="0.69241">
        <ele>183.27</ele>
        <time>2023-05-30T09:07:03Z</time>
      </trkpt>
      <trkpt lat="44.29664" lon="0.69247">
        <ele>183.75</ele>
        <time>2023-05-30T09:07:12Z</time>
      </trkpt>
      <trkpt lat="44.29651" lon="0.69253">
        <ele>186.15</ele>
        <time>2023-05-30T09:07:20Z</time>
      </trkpt>
      <trkpt lat="44.29641" lon="0.69258">
        <ele>186.63</ele>
        <time>2023-05-30T09:07:27Z</time>
      </trkpt>
      <trkpt lat="44.29631" lon="0.69263">
        <ele>188.56</ele>
        <time>2023-05-30T09:07:34Z</time>
      </trkpt>
      <trkpt lat="44.29621" lon="0.69268">
        <ele>190.48</ele>
        <time>2023-05-30T09:07:41Z</time>
      </trkpt>
      <trkpt lat="44.29613" lon="0.69274">
        <ele>191.44</ele>
        <time>2023-05-30T09:07:48Z</time>
      </trkpt>
      <trkpt lat="44.296" lon="0.6928">
        <ele>192.88</ele>
        <time>2023-05-30T09:07:57Z</time>
      </trkpt>
      <trkpt lat="44.29588" lon="0.69287">
        <ele>192.4</ele>
        <time>2023-05-30T09:08:07Z</time>
      </trkpt>
      <trkpt lat="44.29577" lon="0.69298">
        <ele>191.92</ele>
        <time>2023-05-30T09:08:15Z</time>
      </trkpt>
      <trkpt lat="44.2957" lon="0.69309">
        <ele>193.36</ele>
        <time>2023-05-30T09:08:22Z</time>
      </trkpt>
      <trkpt lat="44.29564" lon="0.69321">
        <ele>193.84</ele>
        <time>2023-05-30T09:08:30Z</time>
      </trkpt>
      <trkpt lat="44.29556" lon="0.69333">
        <ele>195.77</ele>
        <time>2023-05-30T09:08:39Z</time>
      </trkpt>
      <trkpt lat="44.29547" lon="0.69349">
        <ele>197.21</ele>
        <time>2023-05-30T09:08:48Z</time>
      </trkpt>
      <trkpt lat="44.29538" lon="0.69361">
        <ele>199.13</ele>
        <time>2023-05-30T09:09:01Z</time>
      </trkpt>
      <trkpt lat="44.29528" lon="0.69356">
        <ele>198.65</ele>
        <time>2023-05-30T09:09:09Z</time>
      </trkpt>
      <trkpt lat="44.29518" lon="0.6935">
        <ele>198.65</ele>
        <time>2023-05-30T09:09:16Z</time>
      </trkpt>
      <trkpt lat="44.29509" lon="0.69342">
        <ele>199.13</ele>
        <time>2023-05-30T09:09:23Z</time>
      </trkpt>
      <trkpt lat="44.295" lon="0.69335">
        <ele>200.09</ele>
        <time>2023-05-30T09:09:31Z</time>
      </trkpt>
      <trkpt lat="44.29491" lon="0.69333">
        <ele>201.05</ele>
        <time>2023-05-30T09:09:39Z</time>
      </trkpt>
      <trkpt lat="44.29485" lon="0.69344">
        <ele>200.09</ele>
        <time>2023-05-30T09:09:47Z</time>
      </trkpt>
      <trkpt lat="44.29482" lon="0.69362">
        <ele>199.61</ele>
        <time>2023-05-30T09:09:55Z</time>
      </trkpt>
      <trkpt lat="44.29481" lon="0.69377">
        <ele>199.13</ele>
        <time>2023-05-30T09:10:02Z</time>
      </trkpt>
      <trkpt lat="44.29482" lon="0.6939">
        <ele>200.09</ele>
        <time>2023-05-30T09:10:08Z</time>
      </trkpt>
      <trkpt lat="44.29482" lon="0.69404">
        <ele>201.05</ele>
        <time>2023-05-30T09:10:14Z</time>
      </trkpt>
      <trkpt lat="44.29482" lon="0.6942">
        <ele>202.49</ele>
        <time>2023-05-30T09:10:22Z</time>
      </trkpt>
      <trkpt lat="44.29479" lon="0.69434">
        <ele>202.98</ele>
        <time>2023-05-30T09:10:30Z</time>
      </trkpt>
      <trkpt lat="44.29475" lon="0.69448">
        <ele>203.94</ele>
        <time>2023-05-30T09:10:37Z</time>
      </trkpt>
      <trkpt lat="44.2947" lon="0.69462">
        <ele>204.42</ele>
        <time>2023-05-30T09:10:44Z</time>
      </trkpt>
      <trkpt lat="44.29464" lon="0.69474">
        <ele>204.42</ele>
        <time>2023-05-30T09:10:51Z</time>
      </trkpt>
      <trkpt lat="44.29459" lon="0.69486">
        <ele>204.42</ele>
        <time>2023-05-30T09:10:57Z</time>
      </trkpt>
      <trkpt lat="44.29454" lon="0.69499">
        <ele>204.42</ele>
        <time>2023-05-30T09:11:04Z</time>
      </trkpt>
      <trkpt lat="44.29451" lon="0.69514">
        <ele>205.38</ele>
        <time>2023-05-30T09:11:11Z</time>
      </trkpt>
      <trkpt lat="44.2945" lon="0.69529">
        <ele>205.38</ele>
        <time>2023-05-30T09:11:18Z</time>
      </trkpt>
      <trkpt lat="44.29449" lon="0.69543">
        <ele>204.9</ele>
        <time>2023-05-30T09:11:25Z</time>
      </trkpt>
      <trkpt lat="44.2945" lon="0.69558">
        <ele>204.9</ele>
        <time>2023-05-30T09:11:32Z</time>
      </trkpt>
      <trkpt lat="44.29452" lon="0.69572">
        <ele>204.9</ele>
        <time>2023-05-30T09:11:38Z</time>
      </trkpt>
      <trkpt lat="44.29454" lon="0.69585">
        <ele>205.38</ele>
        <time>2023-05-30T09:11:44Z</time>
      </trkpt>
      <trkpt lat="44.29456" lon="0.69598">
        <ele>204.9</ele>
        <time>2023-05-30T09:11:50Z</time>
      </trkpt>
      <trkpt lat="44.29458" lon="0.69611">
        <ele>204.42</ele>
        <time>2023-05-30T09:11:56Z</time>
      </trkpt>
      <trkpt lat="44.29454" lon="0.69623">
        <ele>204.42</ele>
        <time>2023-05-30T09:12:03Z</time>
      </trkpt>
      <trkpt lat="44.29447" lon="0.69634">
        <ele>204.42</ele>
        <time>2023-05-30T09:12:10Z</time>
      </trkpt>
      <trkpt lat="44.29441" lon="0.69647">
        <ele>203.94</ele>
        <time>2023-05-30T09:12:17Z</time>
      </trkpt>
      <trkpt lat="44.29434" lon="0.6966">
        <ele>202.98</ele>
        <time>2023-05-30T09:12:25Z</time>
      </trkpt>
      <trkpt lat="44.29429" lon="0.69672">
        <ele>202.49</ele>
        <time>2023-05-30T09:12:31Z</time>
      </trkpt>
      <trkpt lat="44.29425" lon="0.69685">
        <ele>202.01</ele>
        <time>2023-05-30T09:12:38Z</time>
      </trkpt>
      <trkpt lat="44.29421" lon="0.69698">
        <ele>201.53</ele>
        <time>2023-05-30T09:12:45Z</time>
      </trkpt>
      <trkpt lat="44.29415" lon="0.69712">
        <ele>201.53</ele>
        <time>2023-05-30T09:12:52Z</time>
      </trkpt>
      <trkpt lat="44.29408" lon="0.69722">
        <ele>201.05</ele>
        <time>2023-05-30T09:12:58Z</time>
      </trkpt>
      <trkpt lat="44.29401" lon="0.69733">
        <ele>200.57</ele>
        <time>2023-05-30T09:13:05Z</time>
      </trkpt>
      <trkpt lat="44.29394" lon="0.69743">
        <ele>200.09</ele>
        <time>2023-05-30T09:13:12Z</time>
      </trkpt>
      <trkpt lat="44.29386" lon="0.6975">
        <ele>199.61</ele>
        <time>2023-05-30T09:13:19Z</time>
      </trkpt>
      <trkpt lat="44.29374" lon="0.69758">
        <ele>198.65</ele>
        <time>2023-05-30T09:13:27Z</time>
      </trkpt>
      <trkpt lat="44.29366" lon="0.69768">
        <ele>198.17</ele>
        <time>2023-05-30T09:13:34Z</time>
      </trkpt>
      <trkpt lat="44.29356" lon="0.69777">
        <ele>197.69</ele>
        <time>2023-05-30T09:13:42Z</time>
      </trkpt>
      <trkpt lat="44.29346" lon="0.6978">
        <ele>197.69</ele>
        <time>2023-05-30T09:13:50Z</time>
      </trkpt>
      <trkpt lat="44.29335" lon="0.69785">
        <ele>196.73</ele>
        <time>2023-05-30T09:14:00Z</time>
      </trkpt>
      <trkpt lat="44.29323" lon="0.69793">
        <ele>195.77</ele>
        <time>2023-05-30T09:14:10Z</time>
      </trkpt>
      <trkpt lat="44.29306" lon="0.6982">
        <ele>193.84</ele>
        <time>2023-05-30T09:14:27Z</time>
      </trkpt>
      <trkpt lat="44.29297" lon="0.69832">
        <ele>193.84</ele>
        <time>2023-05-30T09:14:35Z</time>
      </trkpt>
      <trkpt lat="44.29287" lon="0.69845">
        <ele>191.92</ele>
        <time>2023-05-30T09:14:44Z</time>
      </trkpt>
      <trkpt lat="44.29277" lon="0.6986">
        <ele>190.48</ele>
        <time>2023-05-30T09:14:53Z</time>
      </trkpt>
      <trkpt lat="44.29255" lon="0.69893">
        <ele>186.15</ele>
        <time>2023-05-30T09:15:16Z</time>
      </trkpt>
      <trkpt lat="44.29286" lon="0.69903">
        <ele>169.33</ele>
        <time>2023-05-30T09:15:59Z</time>
      </trkpt>
      <trkpt lat="44.29336" lon="0.69895">
        <ele>162.6</ele>
        <time>2023-05-30T09:16:52Z</time>
      </trkpt>
      <trkpt lat="44.29327" lon="0.69908">
        <ele>163.08</ele>
        <time>2023-05-30T09:17:02Z</time>
      </trkpt>
      <trkpt lat="44.29323" lon="0.69933">
        <ele>161.64</ele>
        <time>2023-05-30T09:17:17Z</time>
      </trkpt>
      <trkpt lat="44.29315" lon="0.6996">
        <ele>159.72</ele>
        <time>2023-05-30T09:17:31Z</time>
      </trkpt>
      <trkpt lat="44.29302" lon="0.69992">
        <ele>158.75</ele>
        <time>2023-05-30T09:17:50Z</time>
      </trkpt>
      <trkpt lat="44.2929" lon="0.70014">
        <ele>157.79</ele>
        <time>2023-05-30T09:18:07Z</time>
      </trkpt>
      <trkpt lat="44.29285" lon="0.70029">
        <ele>156.83</ele>
        <time>2023-05-30T09:18:15Z</time>
      </trkpt>
      <trkpt lat="44.29283" lon="0.70046">
        <ele>155.39</ele>
        <time>2023-05-30T09:18:25Z</time>
      </trkpt>
      <trkpt lat="44.29279" lon="0.70087">
        <ele>155.39</ele>
        <time>2023-05-30T09:20:02Z</time>
      </trkpt>
      <trkpt lat="44.29255" lon="0.70135">
        <ele>159.72</ele>
        <time>2023-05-30T09:20:36Z</time>
      </trkpt>
      <trkpt lat="44.29215" lon="0.70186">
        <ele>157.31</ele>
        <time>2023-05-30T09:21:15Z</time>
      </trkpt>
      <trkpt lat="44.29201" lon="0.70205">
        <ele>153.95</ele>
        <time>2023-05-30T09:21:26Z</time>
      </trkpt>
      <trkpt lat="44.29152" lon="0.70251">
        <ele>146.74</ele>
        <time>2023-05-30T09:22:04Z</time>
      </trkpt>
      <trkpt lat="44.29125" lon="0.70271">
        <ele>143.37</ele>
        <time>2023-05-30T09:22:24Z</time>
      </trkpt>
      <trkpt lat="44.29085" lon="0.70294">
        <ele>142.89</ele>
        <time>2023-05-30T09:22:50Z</time>
      </trkpt>
      <trkpt lat="44.29038" lon="0.70313">
        <ele>132.8</ele>
        <time>2023-05-30T09:23:22Z</time>
      </trkpt>
      <trkpt lat="44.2902" lon="0.7031">
        <ele>129.43</ele>
        <time>2023-05-30T09:23:32Z</time>
      </trkpt>
      <trkpt lat="44.29003" lon="0.70306">
        <ele>128.47</ele>
        <time>2023-05-30T09:23:42Z</time>
      </trkpt>
      <trkpt lat="44.28992" lon="0.70305">
        <ele>127.03</ele>
        <time>2023-05-30T09:23:49Z</time>
      </trkpt>
      <trkpt lat="44.28979" lon="0.70298">
        <ele>126.55</ele>
        <time>2023-05-30T09:23:57Z</time>
      </trkpt>
      <trkpt lat="44.28968" lon="0.70295">
        <ele>126.55</ele>
        <time>2023-05-30T09:24:04Z</time>
      </trkpt>
      <trkpt lat="44.2894" lon="0.70291">
        <ele>126.55</ele>
        <time>2023-05-30T09:24:22Z</time>
      </trkpt>
      <trkpt lat="44.28927" lon="0.70285">
        <ele>125.59</ele>
        <time>2023-05-30T09:24:31Z</time>
      </trkpt>
      <trkpt lat="44.28908" lon="0.70227">
        <ele>123.19</ele>
        <time>2023-05-30T09:25:04Z</time>
      </trkpt>
      <trkpt lat="44.28878" lon="0.70222">
        <ele>133.28</ele>
        <time>2023-05-30T09:26:03Z</time>
      </trkpt>
      <trkpt lat="44.28859" lon="0.70232">
        <ele>130.4</ele>
        <time>2023-05-30T09:26:15Z</time>
      </trkpt>
      <trkpt lat="44.28845" lon="0.70236">
        <ele>129.43</ele>
        <time>2023-05-30T09:26:24Z</time>
      </trkpt>
      <trkpt lat="44.28829" lon="0.70241">
        <ele>128.47</ele>
        <time>2023-05-30T09:26:33Z</time>
      </trkpt>
      <trkpt lat="44.28815" lon="0.70245">
        <ele>128.95</ele>
        <time>2023-05-30T09:26:41Z</time>
      </trkpt>
      <trkpt lat="44.28765" lon="0.70252">
        <ele>127.99</ele>
        <time>2023-05-30T09:27:14Z</time>
      </trkpt>
      <trkpt lat="44.28747" lon="0.70248">
        <ele>127.51</ele>
        <time>2023-05-30T09:27:25Z</time>
      </trkpt>
      <trkpt lat="44.28732" lon="0.70241">
        <ele>127.51</ele>
        <time>2023-05-30T09:27:35Z</time>
      </trkpt>
      <trkpt lat="44.28716" lon="0.70232">
        <ele>129.43</ele>
        <time>2023-05-30T09:27:45Z</time>
      </trkpt>
      <trkpt lat="44.28704" lon="0.70225">
        <ele>131.84</ele>
        <time>2023-05-30T09:27:54Z</time>
      </trkpt>
      <trkpt lat="44.28694" lon="0.70215">
        <ele>131.84</ele>
        <time>2023-05-30T09:28:02Z</time>
      </trkpt>
      <trkpt lat="44.28681" lon="0.70206">
        <ele>131.36</ele>
        <time>2023-05-30T09:28:13Z</time>
      </trkpt>
      <trkpt lat="44.28667" lon="0.70203">
        <ele>132.32</ele>
        <time>2023-05-30T09:28:22Z</time>
      </trkpt>
      <trkpt lat="44.28616" lon="0.70197">
        <ele>127.51</ele>
        <time>2023-05-30T09:28:57Z</time>
      </trkpt>
      <trkpt lat="44.28576" lon="0.70238">
        <ele>116.94</ele>
        <time>2023-05-30T09:29:31Z</time>
      </trkpt>
      <trkpt lat="44.28548" lon="0.70278">
        <ele>104.44</ele>
        <time>2023-05-30T09:30:03Z</time>
      </trkpt>
      <trkpt lat="44.28499" lon="0.7031">
        <ele>107.32</ele>
        <time>2023-05-30T09:30:31Z</time>
      </trkpt>
      <trkpt lat="44.28471" lon="0.70311">
        <ele>108.77</ele>
        <time>2023-05-30T09:30:49Z</time>
      </trkpt>
      <trkpt lat="44.28459" lon="0.70309">
        <ele>110.21</ele>
        <time>2023-05-30T09:30:56Z</time>
      </trkpt>
      <trkpt lat="44.28447" lon="0.70307">
        <ele>110.69</ele>
        <time>2023-05-30T09:31:04Z</time>
      </trkpt>
      <trkpt lat="44.28435" lon="0.70307">
        <ele>109.25</ele>
        <time>2023-05-30T09:31:11Z</time>
      </trkpt>
      <trkpt lat="44.28423" lon="0.70305">
        <ele>108.77</ele>
        <time>2023-05-30T09:31:18Z</time>
      </trkpt>
      <trkpt lat="44.28412" lon="0.70307">
        <ele>109.73</ele>
        <time>2023-05-30T09:31:25Z</time>
      </trkpt>
      <trkpt lat="44.28399" lon="0.70307">
        <ele>109.73</ele>
        <time>2023-05-30T09:31:32Z</time>
      </trkpt>
      <trkpt lat="44.28387" lon="0.70308">
        <ele>110.69</ele>
        <time>2023-05-30T09:31:39Z</time>
      </trkpt>
      <trkpt lat="44.28376" lon="0.70311">
        <ele>111.17</ele>
        <time>2023-05-30T09:31:46Z</time>
      </trkpt>
      <trkpt lat="44.28365" lon="0.70315">
        <ele>112.13</ele>
        <time>2023-05-30T09:31:53Z</time>
      </trkpt>
      <trkpt lat="44.28353" lon="0.70318">
        <ele>113.09</ele>
        <time>2023-05-30T09:32:01Z</time>
      </trkpt>
      <trkpt lat="44.28342" lon="0.7032">
        <ele>113.57</ele>
        <time>2023-05-30T09:32:07Z</time>
      </trkpt>
      <trkpt lat="44.28333" lon="0.70327">
        <ele>114.05</ele>
        <time>2023-05-30T09:32:14Z</time>
      </trkpt>
      <trkpt lat="44.28325" lon="0.70341">
        <ele>114.53</ele>
        <time>2023-05-30T09:32:22Z</time>
      </trkpt>
      <trkpt lat="44.28318" lon="0.70352">
        <ele>115.01</ele>
        <time>2023-05-30T09:32:29Z</time>
      </trkpt>
      <trkpt lat="44.28311" lon="0.70365">
        <ele>116.46</ele>
        <time>2023-05-30T09:32:36Z</time>
      </trkpt>
      <trkpt lat="44.28304" lon="0.70379">
        <ele>117.9</ele>
        <time>2023-05-30T09:32:43Z</time>
      </trkpt>
      <trkpt lat="44.28296" lon="0.70395">
        <ele>119.82</ele>
        <time>2023-05-30T09:32:52Z</time>
      </trkpt>
      <trkpt lat="44.28291" lon="0.70411">
        <ele>120.78</ele>
        <time>2023-05-30T09:33:00Z</time>
      </trkpt>
      <trkpt lat="44.28284" lon="0.70427">
        <ele>121.74</ele>
        <time>2023-05-30T09:33:08Z</time>
      </trkpt>
      <trkpt lat="44.28277" lon="0.70442">
        <ele>122.71</ele>
        <time>2023-05-30T09:33:16Z</time>
      </trkpt>
      <trkpt lat="44.2827" lon="0.70458">
        <ele>123.67</ele>
        <time>2023-05-30T09:33:24Z</time>
      </trkpt>
      <trkpt lat="44.28261" lon="0.70471">
        <ele>123.67</ele>
        <time>2023-05-30T09:33:31Z</time>
      </trkpt>
      <trkpt lat="44.28254" lon="0.70482">
        <ele>122.71</ele>
        <time>2023-05-30T09:33:37Z</time>
      </trkpt>
      <trkpt lat="44.28246" lon="0.70492">
        <ele>121.26</ele>
        <time>2023-05-30T09:33:44Z</time>
      </trkpt>
      <trkpt lat="44.28237" lon="0.70501">
        <ele>120.3</ele>
        <time>2023-05-30T09:33:51Z</time>
      </trkpt>
      <trkpt lat="44.28228" lon="0.70509">
        <ele>119.34</ele>
        <time>2023-05-30T09:33:58Z</time>
      </trkpt>
      <trkpt lat="44.28219" lon="0.70519">
        <ele>118.86</ele>
        <time>2023-05-30T09:34:05Z</time>
      </trkpt>
      <trkpt lat="44.2821" lon="0.70528">
        <ele>118.38</ele>
        <time>2023-05-30T09:34:13Z</time>
      </trkpt>
      <trkpt lat="44.28199" lon="0.70539">
        <ele>118.38</ele>
        <time>2023-05-30T09:34:21Z</time>
      </trkpt>
      <trkpt lat="44.28188" lon="0.70551">
        <ele>116.46</ele>
        <time>2023-05-30T09:34:29Z</time>
      </trkpt>
      <trkpt lat="44.28179" lon="0.70563">
        <ele>114.53</ele>
        <time>2023-05-30T09:34:37Z</time>
      </trkpt>
      <trkpt lat="44.28171" lon="0.70575">
        <ele>113.57</ele>
        <time>2023-05-30T09:34:44Z</time>
      </trkpt>
      <trkpt lat="44.28162" lon="0.70586">
        <ele>112.61</ele>
        <time>2023-05-30T09:34:52Z</time>
      </trkpt>
      <trkpt lat="44.28148" lon="0.70592">
        <ele>112.61</ele>
        <time>2023-05-30T09:35:00Z</time>
      </trkpt>
      <trkpt lat="44.28139" lon="0.70601">
        <ele>112.13</ele>
        <time>2023-05-30T09:35:07Z</time>
      </trkpt>
      <trkpt lat="44.28129" lon="0.7061">
        <ele>112.61</ele>
        <time>2023-05-30T09:35:14Z</time>
      </trkpt>
      <trkpt lat="44.28116" lon="0.70619">
        <ele>112.61</ele>
        <time>2023-05-30T09:35:22Z</time>
      </trkpt>
      <trkpt lat="44.28106" lon="0.70628">
        <ele>113.57</ele>
        <time>2023-05-30T09:35:29Z</time>
      </trkpt>
      <trkpt lat="44.28096" lon="0.70635">
        <ele>113.57</ele>
        <time>2023-05-30T09:35:35Z</time>
      </trkpt>
      <trkpt lat="44.28085" lon="0.70642">
        <ele>114.05</ele>
        <time>2023-05-30T09:35:43Z</time>
      </trkpt>
      <trkpt lat="44.28073" lon="0.70649">
        <ele>114.53</ele>
        <time>2023-05-30T09:35:52Z</time>
      </trkpt>
      <trkpt lat="44.28062" lon="0.70659">
        <ele>114.05</ele>
        <time>2023-05-30T09:36:01Z</time>
      </trkpt>
      <trkpt lat="44.28051" lon="0.70668">
        <ele>114.53</ele>
        <time>2023-05-30T09:36:09Z</time>
      </trkpt>
      <trkpt lat="44.2804" lon="0.70676">
        <ele>114.53</ele>
        <time>2023-05-30T09:36:16Z</time>
      </trkpt>
      <trkpt lat="44.2803" lon="0.70685">
        <ele>115.5</ele>
        <time>2023-05-30T09:36:23Z</time>
      </trkpt>
      <trkpt lat="44.28019" lon="0.70692">
        <ele>114.53</ele>
        <time>2023-05-30T09:36:30Z</time>
      </trkpt>
      <trkpt lat="44.28009" lon="0.70701">
        <ele>115.01</ele>
        <time>2023-05-30T09:36:37Z</time>
      </trkpt>
      <trkpt lat="44.27999" lon="0.70709">
        <ele>115.5</ele>
        <time>2023-05-30T09:36:43Z</time>
      </trkpt>
      <trkpt lat="44.27989" lon="0.70717">
        <ele>115.01</ele>
        <time>2023-05-30T09:36:50Z</time>
      </trkpt>
      <trkpt lat="44.27979" lon="0.70728">
        <ele>114.53</ele>
        <time>2023-05-30T09:36:58Z</time>
      </trkpt>
      <trkpt lat="44.27969" lon="0.70734">
        <ele>114.53</ele>
        <time>2023-05-30T09:37:05Z</time>
      </trkpt>
      <trkpt lat="44.2796" lon="0.70743">
        <ele>114.05</ele>
        <time>2023-05-30T09:37:11Z</time>
      </trkpt>
      <trkpt lat="44.27953" lon="0.70753">
        <ele>114.53</ele>
        <time>2023-05-30T09:37:17Z</time>
      </trkpt>
      <trkpt lat="44.27946" lon="0.70764">
        <ele>114.53</ele>
        <time>2023-05-30T09:37:23Z</time>
      </trkpt>
      <trkpt lat="44.27939" lon="0.70775">
        <ele>114.53</ele>
        <time>2023-05-30T09:37:30Z</time>
      </trkpt>
      <trkpt lat="44.27931" lon="0.70787">
        <ele>114.05</ele>
        <time>2023-05-30T09:37:37Z</time>
      </trkpt>
      <trkpt lat="44.27922" lon="0.70799">
        <ele>113.57</ele>
        <time>2023-05-30T09:37:44Z</time>
      </trkpt>
      <trkpt lat="44.27914" lon="0.70812">
        <ele>112.61</ele>
        <time>2023-05-30T09:37:51Z</time>
      </trkpt>
      <trkpt lat="44.27903" lon="0.70819">
        <ele>115.5</ele>
        <time>2023-05-30T09:38:03Z</time>
      </trkpt>
      <trkpt lat="44.27895" lon="0.7083">
        <ele>115.98</ele>
        <time>2023-05-30T09:38:10Z</time>
      </trkpt>
      <trkpt lat="44.27887" lon="0.7084">
        <ele>115.5</ele>
        <time>2023-05-30T09:38:16Z</time>
      </trkpt>
      <trkpt lat="44.27878" lon="0.70851">
        <ele>114.53</ele>
        <time>2023-05-30T09:38:23Z</time>
      </trkpt>
      <trkpt lat="44.27871" lon="0.70861">
        <ele>114.05</ele>
        <time>2023-05-30T09:38:29Z</time>
      </trkpt>
      <trkpt lat="44.27864" lon="0.70873">
        <ele>113.09</ele>
        <time>2023-05-30T09:38:36Z</time>
      </trkpt>
      <trkpt lat="44.27856" lon="0.70885">
        <ele>112.13</ele>
        <time>2023-05-30T09:38:43Z</time>
      </trkpt>
      <trkpt lat="44.27848" lon="0.70897">
        <ele>112.13</ele>
        <time>2023-05-30T09:38:50Z</time>
      </trkpt>
      <trkpt lat="44.2784" lon="0.7091">
        <ele>112.13</ele>
        <time>2023-05-30T09:38:57Z</time>
      </trkpt>
      <trkpt lat="44.27833" lon="0.7092">
        <ele>111.65</ele>
        <time>2023-05-30T09:39:03Z</time>
      </trkpt>
      <trkpt lat="44.27824" lon="0.70932">
        <ele>111.17</ele>
        <time>2023-05-30T09:39:09Z</time>
      </trkpt>
      <trkpt lat="44.27816" lon="0.70942">
        <ele>111.17</ele>
        <time>2023-05-30T09:39:15Z</time>
      </trkpt>
      <trkpt lat="44.27809" lon="0.70952">
        <ele>110.69</ele>
        <time>2023-05-30T09:39:21Z</time>
      </trkpt>
      <trkpt lat="44.27802" lon="0.70963">
        <ele>111.17</ele>
        <time>2023-05-30T09:39:27Z</time>
      </trkpt>
      <trkpt lat="44.27795" lon="0.70973">
        <ele>110.21</ele>
        <time>2023-05-30T09:39:33Z</time>
      </trkpt>
      <trkpt lat="44.27787" lon="0.70984">
        <ele>110.21</ele>
        <time>2023-05-30T09:39:39Z</time>
      </trkpt>
      <trkpt lat="44.2778" lon="0.70994">
        <ele>110.21</ele>
        <time>2023-05-30T09:39:45Z</time>
      </trkpt>
      <trkpt lat="44.27773" lon="0.71003">
        <ele>109.25</ele>
        <time>2023-05-30T09:39:51Z</time>
      </trkpt>
      <trkpt lat="44.27766" lon="0.71011">
        <ele>107.81</ele>
        <time>2023-05-30T09:39:57Z</time>
      </trkpt>
      <trkpt lat="44.27759" lon="0.71023">
        <ele>107.81</ele>
        <time>2023-05-30T09:40:04Z</time>
      </trkpt>
      <trkpt lat="44.27751" lon="0.71034">
        <ele>107.32</ele>
        <time>2023-05-30T09:40:11Z</time>
      </trkpt>
      <trkpt lat="44.27743" lon="0.71046">
        <ele>106.84</ele>
        <time>2023-05-30T09:40:18Z</time>
      </trkpt>
      <trkpt lat="44.27735" lon="0.71057">
        <ele>106.84</ele>
        <time>2023-05-30T09:40:25Z</time>
      </trkpt>
      <trkpt lat="44.27727" lon="0.71069">
        <ele>106.84</ele>
        <time>2023-05-30T09:40:32Z</time>
      </trkpt>
      <trkpt lat="44.27717" lon="0.71079">
        <ele>106.84</ele>
        <time>2023-05-30T09:40:39Z</time>
      </trkpt>
      <trkpt lat="44.27709" lon="0.71084">
        <ele>105.88</ele>
        <time>2023-05-30T09:40:45Z</time>
      </trkpt>
      <trkpt lat="44.27698" lon="0.71083">
        <ele>105.4</ele>
        <time>2023-05-30T09:40:52Z</time>
      </trkpt>
      <trkpt lat="44.27685" lon="0.71076">
        <ele>104.92</ele>
        <time>2023-05-30T09:41:00Z</time>
      </trkpt>
      <trkpt lat="44.27676" lon="0.71066">
        <ele>104.44</ele>
        <time>2023-05-30T09:41:06Z</time>
      </trkpt>
      <trkpt lat="44.27669" lon="0.71054">
        <ele>103.96</ele>
        <time>2023-05-30T09:41:13Z</time>
      </trkpt>
      <trkpt lat="44.27661" lon="0.71044">
        <ele>102.52</ele>
        <time>2023-05-30T09:41:19Z</time>
      </trkpt>
      <trkpt lat="44.27653" lon="0.71035">
        <ele>101.56</ele>
        <time>2023-05-30T09:41:25Z</time>
      </trkpt>
      <trkpt lat="44.27644" lon="0.71027">
        <ele>101.08</ele>
        <time>2023-05-30T09:41:31Z</time>
      </trkpt>
      <trkpt lat="44.27636" lon="0.71019">
        <ele>99.63</ele>
        <time>2023-05-30T09:41:37Z</time>
      </trkpt>
      <trkpt lat="44.27629" lon="0.7101">
        <ele>99.15</ele>
        <time>2023-05-30T09:41:43Z</time>
      </trkpt>
      <trkpt lat="44.27621" lon="0.70999">
        <ele>98.67</ele>
        <time>2023-05-30T09:41:50Z</time>
      </trkpt>
      <trkpt lat="44.27614" lon="0.7099">
        <ele>98.19</ele>
        <time>2023-05-30T09:41:57Z</time>
      </trkpt>
      <trkpt lat="44.27605" lon="0.70982">
        <ele>97.23</ele>
        <time>2023-05-30T09:42:04Z</time>
      </trkpt>
      <trkpt lat="44.27594" lon="0.70976">
        <ele>96.27</ele>
        <time>2023-05-30T09:42:11Z</time>
      </trkpt>
      <trkpt lat="44.27583" lon="0.70973">
        <ele>96.27</ele>
        <time>2023-05-30T09:42:17Z</time>
      </trkpt>
      <trkpt lat="44.27576" lon="0.70964">
        <ele>96.27</ele>
        <time>2023-05-30T09:42:23Z</time>
      </trkpt>
      <trkpt lat="44.27574" lon="0.7095">
        <ele>97.23</ele>
        <time>2023-05-30T09:42:30Z</time>
      </trkpt>
      <trkpt lat="44.27579" lon="0.70936">
        <ele>97.23</ele>
        <time>2023-05-30T09:42:37Z</time>
      </trkpt>
      <trkpt lat="44.27586" lon="0.70923">
        <ele>96.75</ele>
        <time>2023-05-30T09:42:44Z</time>
      </trkpt>
      <trkpt lat="44.27593" lon="0.70909">
        <ele>98.19</ele>
        <time>2023-05-30T09:42:51Z</time>
      </trkpt>
      <trkpt lat="44.27598" lon="0.70895">
        <ele>99.15</ele>
        <time>2023-05-30T09:42:58Z</time>
      </trkpt>
      <trkpt lat="44.27604" lon="0.70882">
        <ele>101.08</ele>
        <time>2023-05-30T09:43:06Z</time>
      </trkpt>
      <trkpt lat="44.2761" lon="0.7087">
        <ele>102.04</ele>
        <time>2023-05-30T09:43:13Z</time>
      </trkpt>
      <trkpt lat="44.2762" lon="0.70857">
        <ele>103.48</ele>
        <time>2023-05-30T09:43:21Z</time>
      </trkpt>
      <trkpt lat="44.27629" lon="0.70846">
        <ele>104.92</ele>
        <time>2023-05-30T09:43:29Z</time>
      </trkpt>
      <trkpt lat="44.27638" lon="0.70838">
        <ele>105.88</ele>
        <time>2023-05-30T09:43:36Z</time>
      </trkpt>
      <trkpt lat="44.27649" lon="0.70829">
        <ele>105.88</ele>
        <time>2023-05-30T09:43:45Z</time>
      </trkpt>
      <trkpt lat="44.27662" lon="0.70818">
        <ele>104.92</ele>
        <time>2023-05-30T09:43:53Z</time>
      </trkpt>
      <trkpt lat="44.27672" lon="0.70809">
        <ele>104.92</ele>
        <time>2023-05-30T09:44:01Z</time>
      </trkpt>
      <trkpt lat="44.27682" lon="0.708">
        <ele>104.92</ele>
        <time>2023-05-30T09:44:07Z</time>
      </trkpt>
      <trkpt lat="44.27693" lon="0.70791">
        <ele>103.96</ele>
        <time>2023-05-30T09:44:16Z</time>
      </trkpt>
      <trkpt lat="44.27699" lon="0.70777">
        <ele>102.52</ele>
        <time>2023-05-30T09:44:23Z</time>
      </trkpt>
      <trkpt lat="44.27694" lon="0.70762">
        <ele>101.56</ele>
        <time>2023-05-30T09:44:31Z</time>
      </trkpt>
      <trkpt lat="44.27687" lon="0.70749">
        <ele>103.48</ele>
        <time>2023-05-30T09:44:38Z</time>
      </trkpt>
      <trkpt lat="44.2768" lon="0.70737">
        <ele>105.4</ele>
        <time>2023-05-30T09:44:45Z</time>
      </trkpt>
      <trkpt lat="44.2767" lon="0.70724">
        <ele>108.29</ele>
        <time>2023-05-30T09:44:54Z</time>
      </trkpt>
      <trkpt lat="44.27662" lon="0.70713">
        <ele>109.73</ele>
        <time>2023-05-30T09:45:01Z</time>
      </trkpt>
      <trkpt lat="44.27654" lon="0.70706">
        <ele>111.65</ele>
        <time>2023-05-30T09:45:07Z</time>
      </trkpt>
      <trkpt lat="44.27644" lon="0.70706">
        <ele>113.57</ele>
        <time>2023-05-30T09:45:14Z</time>
      </trkpt>
      <trkpt lat="44.27634" lon="0.70704">
        <ele>115.01</ele>
        <time>2023-05-30T09:45:21Z</time>
      </trkpt>
      <trkpt lat="44.27624" lon="0.70703">
        <ele>116.94</ele>
        <time>2023-05-30T09:45:28Z</time>
      </trkpt>
      <trkpt lat="44.27614" lon="0.70702">
        <ele>118.86</ele>
        <time>2023-05-30T09:45:35Z</time>
      </trkpt>
      <trkpt lat="44.27604" lon="0.70702">
        <ele>120.78</ele>
        <time>2023-05-30T09:45:42Z</time>
      </trkpt>
      <trkpt lat="44.27593" lon="0.70702">
        <ele>123.19</ele>
        <time>2023-05-30T09:45:49Z</time>
      </trkpt>
      <trkpt lat="44.27583" lon="0.70702">
        <ele>126.07</ele>
        <time>2023-05-30T09:45:56Z</time>
      </trkpt>
      <trkpt lat="44.27572" lon="0.70699">
        <ele>128.47</ele>
        <time>2023-05-30T09:46:04Z</time>
      </trkpt>
      <trkpt lat="44.27561" lon="0.70693">
        <ele>129.92</ele>
        <time>2023-05-30T09:46:13Z</time>
      </trkpt>
      <trkpt lat="44.27551" lon="0.70687">
        <ele>130.88</ele>
        <time>2023-05-30T09:46:21Z</time>
      </trkpt>
      <trkpt lat="44.27548" lon="0.70672">
        <ele>131.36</ele>
        <time>2023-05-30T09:46:33Z</time>
      </trkpt>
      <trkpt lat="44.27555" lon="0.70646">
        <ele>133.28</ele>
        <time>2023-05-30T09:46:47Z</time>
      </trkpt>
      <trkpt lat="44.27559" lon="0.70626">
        <ele>137.61</ele>
        <time>2023-05-30T09:46:55Z</time>
      </trkpt>
      <trkpt lat="44.27563" lon="0.70611">
        <ele>140.49</ele>
        <time>2023-05-30T09:47:02Z</time>
      </trkpt>
      <trkpt lat="44.27566" lon="0.70597">
        <ele>145.3</ele>
        <time>2023-05-30T09:47:10Z</time>
      </trkpt>
      <trkpt lat="44.27566" lon="0.70583">
        <ele>147.22</ele>
        <time>2023-05-30T09:47:18Z</time>
      </trkpt>
      <trkpt lat="44.27565" lon="0.7057">
        <ele>148.66</ele>
        <time>2023-05-30T09:47:26Z</time>
      </trkpt>
      <trkpt lat="44.27564" lon="0.70554">
        <ele>149.62</ele>
        <time>2023-05-30T09:47:33Z</time>
      </trkpt>
      <trkpt lat="44.27563" lon="0.70537">
        <ele>149.62</ele>
        <time>2023-05-30T09:47:40Z</time>
      </trkpt>
      <trkpt lat="44.27561" lon="0.70522">
        <ele>150.1</ele>
        <time>2023-05-30T09:47:48Z</time>
      </trkpt>
      <trkpt lat="44.27558" lon="0.70507">
        <ele>149.14</ele>
        <time>2023-05-30T09:47:56Z</time>
      </trkpt>
      <trkpt lat="44.27556" lon="0.70492">
        <ele>149.14</ele>
        <time>2023-05-30T09:48:04Z</time>
      </trkpt>
      <trkpt lat="44.27554" lon="0.70477">
        <ele>149.14</ele>
        <time>2023-05-30T09:48:12Z</time>
      </trkpt>
      <trkpt lat="44.27551" lon="0.70462">
        <ele>149.62</ele>
        <time>2023-05-30T09:48:19Z</time>
      </trkpt>
      <trkpt lat="44.27548" lon="0.70447">
        <ele>152.03</ele>
        <time>2023-05-30T09:48:25Z</time>
      </trkpt>
      <trkpt lat="44.27544" lon="0.70433">
        <ele>154.43</ele>
        <time>2023-05-30T09:48:30Z</time>
      </trkpt>
      <trkpt lat="44.2754" lon="0.70419">
        <ele>157.31</ele>
        <time>2023-05-30T09:48:36Z</time>
      </trkpt>
      <trkpt lat="44.27537" lon="0.70405">
        <ele>159.72</ele>
        <time>2023-05-30T09:48:43Z</time>
      </trkpt>
      <trkpt lat="44.27533" lon="0.70393">
        <ele>162.6</ele>
        <time>2023-05-30T09:48:50Z</time>
      </trkpt>
      <trkpt lat="44.27528" lon="0.7038">
        <ele>165.48</ele>
        <time>2023-05-30T09:48:57Z</time>
      </trkpt>
      <trkpt lat="44.27523" lon="0.70368">
        <ele>168.37</ele>
        <time>2023-05-30T09:49:03Z</time>
      </trkpt>
      <trkpt lat="44.27518" lon="0.70356">
        <ele>170.77</ele>
        <time>2023-05-30T09:49:10Z</time>
      </trkpt>
      <trkpt lat="44.27512" lon="0.70345">
        <ele>172.21</ele>
        <time>2023-05-30T09:49:19Z</time>
      </trkpt>
      <trkpt lat="44.27505" lon="0.70331">
        <ele>173.66</ele>
        <time>2023-05-30T09:49:28Z</time>
      </trkpt>
      <trkpt lat="44.27502" lon="0.70317">
        <ele>174.62</ele>
        <time>2023-05-30T09:49:37Z</time>
      </trkpt>
      <trkpt lat="44.27504" lon="0.70302">
        <ele>175.1</ele>
        <time>2023-05-30T09:49:47Z</time>
      </trkpt>
      <trkpt lat="44.27509" lon="0.70283">
        <ele>175.1</ele>
        <time>2023-05-30T09:49:58Z</time>
      </trkpt>
      <trkpt lat="44.27513" lon="0.70261">
        <ele>175.1</ele>
        <time>2023-05-30T09:50:07Z</time>
      </trkpt>
      <trkpt lat="44.27516" lon="0.70243">
        <ele>175.1</ele>
        <time>2023-05-30T09:50:16Z</time>
      </trkpt>
      <trkpt lat="44.27518" lon="0.70217">
        <ele>178.46</ele>
        <time>2023-05-30T09:50:29Z</time>
      </trkpt>
      <trkpt lat="44.27526" lon="0.70206">
        <ele>180.38</ele>
        <time>2023-05-30T09:50:37Z</time>
      </trkpt>
      <trkpt lat="44.27532" lon="0.70193">
        <ele>180.87</ele>
        <time>2023-05-30T09:50:44Z</time>
      </trkpt>
      <trkpt lat="44.27537" lon="0.7018">
        <ele>184.23</ele>
        <time>2023-05-30T09:50:52Z</time>
      </trkpt>
      <trkpt lat="44.27547" lon="0.70172">
        <ele>186.15</ele>
        <time>2023-05-30T09:51:01Z</time>
      </trkpt>
      <trkpt lat="44.27559" lon="0.70157">
        <ele>186.63</ele>
        <time>2023-05-30T09:51:15Z</time>
      </trkpt>
      <trkpt lat="44.27556" lon="0.7014">
        <ele>186.63</ele>
        <time>2023-05-30T09:51:25Z</time>
      </trkpt>
      <trkpt lat="44.27553" lon="0.7012">
        <ele>187.59</ele>
        <time>2023-05-30T09:51:33Z</time>
      </trkpt>
      <trkpt lat="44.27552" lon="0.70106">
        <ele>188.56</ele>
        <time>2023-05-30T09:51:41Z</time>
      </trkpt>
      <trkpt lat="44.27554" lon="0.70088">
        <ele>190.48</ele>
        <time>2023-05-30T09:51:51Z</time>
      </trkpt>
      <trkpt lat="44.27557" lon="0.70069">
        <ele>192.88</ele>
        <time>2023-05-30T09:52:00Z</time>
      </trkpt>
      <trkpt lat="44.2756" lon="0.70051">
        <ele>193.84</ele>
        <time>2023-05-30T09:52:09Z</time>
      </trkpt>
      <trkpt lat="44.27566" lon="0.70034">
        <ele>193.84</ele>
        <time>2023-05-30T09:52:17Z</time>
      </trkpt>
      <trkpt lat="44.27572" lon="0.70018">
        <ele>195.28</ele>
        <time>2023-05-30T09:52:25Z</time>
      </trkpt>
      <trkpt lat="44.27578" lon="0.70001">
        <ele>195.77</ele>
        <time>2023-05-30T09:52:34Z</time>
      </trkpt>
      <trkpt lat="44.27581" lon="0.69986">
        <ele>196.25</ele>
        <time>2023-05-30T09:52:42Z</time>
      </trkpt>
      <trkpt lat="44.27589" lon="0.6997">
        <ele>197.21</ele>
        <time>2023-05-30T09:52:51Z</time>
      </trkpt>
      <trkpt lat="44.27597" lon="0.69955">
        <ele>196.73</ele>
        <time>2023-05-30T09:52:59Z</time>
      </trkpt>
      <trkpt lat="44.27604" lon="0.69941">
        <ele>195.77</ele>
        <time>2023-05-30T09:53:06Z</time>
      </trkpt>
      <trkpt lat="44.2761" lon="0.69928">
        <ele>195.77</ele>
        <time>2023-05-30T09:53:13Z</time>
      </trkpt>
      <trkpt lat="44.27614" lon="0.69915">
        <ele>196.25</ele>
        <time>2023-05-30T09:53:20Z</time>
      </trkpt>
      <trkpt lat="44.27617" lon="0.699">
        <ele>196.73</ele>
        <time>2023-05-30T09:53:27Z</time>
      </trkpt>
      <trkpt lat="44.27618" lon="0.69886">
        <ele>196.73</ele>
        <time>2023-05-30T09:53:34Z</time>
      </trkpt>
      <trkpt lat="44.27622" lon="0.69872">
        <ele>195.77</ele>
        <time>2023-05-30T09:53:41Z</time>
      </trkpt>
      <trkpt lat="44.27625" lon="0.69857">
        <ele>195.28</ele>
        <time>2023-05-30T09:53:48Z</time>
      </trkpt>
      <trkpt lat="44.27628" lon="0.69842">
        <ele>194.8</ele>
        <time>2023-05-30T09:53:55Z</time>
      </trkpt>
      <trkpt lat="44.2763" lon="0.69829">
        <ele>193.84</ele>
        <time>2023-05-30T09:54:01Z</time>
      </trkpt>
      <trkpt lat="44.27632" lon="0.69815">
        <ele>192.4</ele>
        <time>2023-05-30T09:54:08Z</time>
      </trkpt>
      <trkpt lat="44.27633" lon="0.698">
        <ele>191.44</ele>
        <time>2023-05-30T09:54:15Z</time>
      </trkpt>
      <trkpt lat="44.27635" lon="0.69785">
        <ele>190.96</ele>
        <time>2023-05-30T09:54:22Z</time>
      </trkpt>
      <trkpt lat="44.27638" lon="0.69768">
        <ele>190.96</ele>
        <time>2023-05-30T09:54:30Z</time>
      </trkpt>
      <trkpt lat="44.27642" lon="0.69754">
        <ele>190</ele>
        <time>2023-05-30T09:54:37Z</time>
      </trkpt>
      <trkpt lat="44.27644" lon="0.69739">
        <ele>188.08</ele>
        <time>2023-05-30T09:54:44Z</time>
      </trkpt>
      <trkpt lat="44.27642" lon="0.69722">
        <ele>186.15</ele>
        <time>2023-05-30T09:54:52Z</time>
      </trkpt>
      <trkpt lat="44.27639" lon="0.69706">
        <ele>184.71</ele>
        <time>2023-05-30T09:55:00Z</time>
      </trkpt>
      <trkpt lat="44.27638" lon="0.69689">
        <ele>183.27</ele>
        <time>2023-05-30T09:55:08Z</time>
      </trkpt>
      <trkpt lat="44.27638" lon="0.6967">
        <ele>182.31</ele>
        <time>2023-05-30T09:55:17Z</time>
      </trkpt>
      <trkpt lat="44.27633" lon="0.69654">
        <ele>179.42</ele>
        <time>2023-05-30T09:55:26Z</time>
      </trkpt>
      <trkpt lat="44.27631" lon="0.69639">
        <ele>176.54</ele>
        <time>2023-05-30T09:55:35Z</time>
      </trkpt>
      <trkpt lat="44.27622" lon="0.69631">
        <ele>172.69</ele>
        <time>2023-05-30T09:55:44Z</time>
      </trkpt>
      <trkpt lat="44.27613" lon="0.69622">
        <ele>168.85</ele>
        <time>2023-05-30T09:55:53Z</time>
      </trkpt>
      <trkpt lat="44.27604" lon="0.69616">
        <ele>165.96</ele>
        <time>2023-05-30T09:56:01Z</time>
      </trkpt>
      <trkpt lat="44.27593" lon="0.69609">
        <ele>165.96</ele>
        <time>2023-05-30T09:56:08Z</time>
      </trkpt>
      <trkpt lat="44.27582" lon="0.69605">
        <ele>167.41</ele>
        <time>2023-05-30T09:56:16Z</time>
      </trkpt>
      <trkpt lat="44.27571" lon="0.69599">
        <ele>168.37</ele>
        <time>2023-05-30T09:56:23Z</time>
      </trkpt>
      <trkpt lat="44.27561" lon="0.69595">
        <ele>169.33</ele>
        <time>2023-05-30T09:56:30Z</time>
      </trkpt>
      <trkpt lat="44.2755" lon="0.69591">
        <ele>169.81</ele>
        <time>2023-05-30T09:56:37Z</time>
      </trkpt>
      <trkpt lat="44.27539" lon="0.69586">
        <ele>171.25</ele>
        <time>2023-05-30T09:56:44Z</time>
      </trkpt>
      <trkpt lat="44.27528" lon="0.69583">
        <ele>172.21</ele>
        <time>2023-05-30T09:56:51Z</time>
      </trkpt>
      <trkpt lat="44.27518" lon="0.69577">
        <ele>174.14</ele>
        <time>2023-05-30T09:56:59Z</time>
      </trkpt>
      <trkpt lat="44.27506" lon="0.6957">
        <ele>176.06</ele>
        <time>2023-05-30T09:57:09Z</time>
      </trkpt>
      <trkpt lat="44.27492" lon="0.69562">
        <ele>177.5</ele>
        <time>2023-05-30T09:57:18Z</time>
      </trkpt>
      <trkpt lat="44.2748" lon="0.69555">
        <ele>178.46</ele>
        <time>2023-05-30T09:57:26Z</time>
      </trkpt>
      <trkpt lat="44.27437" lon="0.69539">
        <ele>197.69</ele>
        <time>2023-05-30T10:00:07Z</time>
      </trkpt>
      <trkpt lat="44.2741" lon="0.69544">
        <ele>193.36</ele>
        <time>2023-05-30T10:00:29Z</time>
      </trkpt>
      <trkpt lat="44.27397" lon="0.69546">
        <ele>190.96</ele>
        <time>2023-05-30T10:00:38Z</time>
      </trkpt>
      <trkpt lat="44.27376" lon="0.69552">
        <ele>189.52</ele>
        <time>2023-05-30T10:02:52Z</time>
      </trkpt>
      <trkpt lat="44.27365" lon="0.69554">
        <ele>186.63</ele>
        <time>2023-05-30T10:03:02Z</time>
      </trkpt>
      <trkpt lat="44.27343" lon="0.69557">
        <ele>184.23</ele>
        <time>2023-05-30T10:03:19Z</time>
      </trkpt>
      <trkpt lat="44.27332" lon="0.69556">
        <ele>184.23</ele>
        <time>2023-05-30T10:03:28Z</time>
      </trkpt>
      <trkpt lat="44.27321" lon="0.69555">
        <ele>184.23</ele>
        <time>2023-05-30T10:03:37Z</time>
      </trkpt>
      <trkpt lat="44.27309" lon="0.69562">
        <ele>184.23</ele>
        <time>2023-05-30T10:03:46Z</time>
      </trkpt>
      <trkpt lat="44.27291" lon="0.69586">
        <ele>185.67</ele>
        <time>2023-05-30T10:04:06Z</time>
      </trkpt>
      <trkpt lat="44.27281" lon="0.696">
        <ele>186.63</ele>
        <time>2023-05-30T10:04:16Z</time>
      </trkpt>
      <trkpt lat="44.27266" lon="0.69613">
        <ele>186.15</ele>
        <time>2023-05-30T10:04:31Z</time>
      </trkpt>
      <trkpt lat="44.27249" lon="0.69631">
        <ele>186.15</ele>
        <time>2023-05-30T10:04:49Z</time>
      </trkpt>
      <trkpt lat="44.27228" lon="0.69659">
        <ele>189.52</ele>
        <time>2023-05-30T10:05:14Z</time>
      </trkpt>
      <trkpt lat="44.2722" lon="0.69672">
        <ele>190.96</ele>
        <time>2023-05-30T10:05:23Z</time>
      </trkpt>
      <trkpt lat="44.27211" lon="0.69683">
        <ele>190.96</ele>
        <time>2023-05-30T10:05:33Z</time>
      </trkpt>
      <trkpt lat="44.27199" lon="0.69695">
        <ele>192.4</ele>
        <time>2023-05-30T10:05:47Z</time>
      </trkpt>
      <trkpt lat="44.27189" lon="0.69703">
        <ele>193.84</ele>
        <time>2023-05-30T10:05:56Z</time>
      </trkpt>
      <trkpt lat="44.27175" lon="0.69712">
        <ele>194.8</ele>
        <time>2023-05-30T10:06:08Z</time>
      </trkpt>
      <trkpt lat="44.27167" lon="0.69722">
        <ele>192.88</ele>
        <time>2023-05-30T10:06:17Z</time>
      </trkpt>
      <trkpt lat="44.2716" lon="0.69732">
        <ele>191.92</ele>
        <time>2023-05-30T10:06:25Z</time>
      </trkpt>
      <trkpt lat="44.27152" lon="0.69744">
        <ele>188.56</ele>
        <time>2023-05-30T10:06:35Z</time>
      </trkpt>
      <trkpt lat="44.27147" lon="0.69757">
        <ele>187.11</ele>
        <time>2023-05-30T10:06:43Z</time>
      </trkpt>
      <trkpt lat="44.27141" lon="0.6977">
        <ele>185.67</ele>
        <time>2023-05-30T10:06:52Z</time>
      </trkpt>
      <trkpt lat="44.27136" lon="0.69782">
        <ele>183.75</ele>
        <time>2023-05-30T10:07:00Z</time>
      </trkpt>
      <trkpt lat="44.27133" lon="0.69795">
        <ele>183.27</ele>
        <time>2023-05-30T10:07:08Z</time>
      </trkpt>
      <trkpt lat="44.27128" lon="0.69808">
        <ele>182.31</ele>
        <time>2023-05-30T10:07:17Z</time>
      </trkpt>
      <trkpt lat="44.27123" lon="0.69821">
        <ele>181.83</ele>
        <time>2023-05-30T10:07:26Z</time>
      </trkpt>
      <trkpt lat="44.27119" lon="0.69832">
        <ele>180.87</ele>
        <time>2023-05-30T10:07:34Z</time>
      </trkpt>
      <trkpt lat="44.27114" lon="0.69843">
        <ele>179.9</ele>
        <time>2023-05-30T10:07:41Z</time>
      </trkpt>
      <trkpt lat="44.27109" lon="0.69856">
        <ele>179.42</ele>
        <time>2023-05-30T10:07:49Z</time>
      </trkpt>
      <trkpt lat="44.27104" lon="0.69868">
        <ele>177.98</ele>
        <time>2023-05-30T10:07:57Z</time>
      </trkpt>
      <trkpt lat="44.27099" lon="0.6988">
        <ele>177.02</ele>
        <time>2023-05-30T10:08:05Z</time>
      </trkpt>
      <trkpt lat="44.27094" lon="0.69892">
        <ele>177.02</ele>
        <time>2023-05-30T10:08:12Z</time>
      </trkpt>
      <trkpt lat="44.2709" lon="0.69904">
        <ele>176.06</ele>
        <time>2023-05-30T10:08:19Z</time>
      </trkpt>
      <trkpt lat="44.27086" lon="0.69916">
        <ele>174.62</ele>
        <time>2023-05-30T10:08:26Z</time>
      </trkpt>
      <trkpt lat="44.27081" lon="0.69928">
        <ele>173.17</ele>
        <time>2023-05-30T10:08:34Z</time>
      </trkpt>
      <trkpt lat="44.27077" lon="0.69941">
        <ele>172.21</ele>
        <time>2023-05-30T10:08:42Z</time>
      </trkpt>
      <trkpt lat="44.27072" lon="0.69953">
        <ele>171.73</ele>
        <time>2023-05-30T10:08:49Z</time>
      </trkpt>
      <trkpt lat="44.27067" lon="0.69965">
        <ele>170.77</ele>
        <time>2023-05-30T10:08:57Z</time>
      </trkpt>
      <trkpt lat="44.27062" lon="0.69979">
        <ele>170.29</ele>
        <time>2023-05-30T10:09:05Z</time>
      </trkpt>
      <trkpt lat="44.27058" lon="0.69992">
        <ele>169.33</ele>
        <time>2023-05-30T10:09:13Z</time>
      </trkpt>
      <trkpt lat="44.27053" lon="0.70005">
        <ele>169.33</ele>
        <time>2023-05-30T10:09:21Z</time>
      </trkpt>
      <trkpt lat="44.27049" lon="0.7002">
        <ele>169.81</ele>
        <time>2023-05-30T10:09:30Z</time>
      </trkpt>
      <trkpt lat="44.27043" lon="0.70033">
        <ele>169.81</ele>
        <time>2023-05-30T10:09:37Z</time>
      </trkpt>
      <trkpt lat="44.27037" lon="0.70047">
        <ele>171.25</ele>
        <time>2023-05-30T10:09:45Z</time>
      </trkpt>
      <trkpt lat="44.27032" lon="0.70062">
        <ele>172.69</ele>
        <time>2023-05-30T10:09:53Z</time>
      </trkpt>
      <trkpt lat="44.27028" lon="0.70077">
        <ele>174.14</ele>
        <time>2023-05-30T10:10:01Z</time>
      </trkpt>
      <trkpt lat="44.27026" lon="0.70092">
        <ele>175.58</ele>
        <time>2023-05-30T10:10:09Z</time>
      </trkpt>
      <trkpt lat="44.27025" lon="0.70108">
        <ele>176.54</ele>
        <time>2023-05-30T10:10:18Z</time>
      </trkpt>
      <trkpt lat="44.27026" lon="0.70129">
        <ele>175.1</ele>
        <time>2023-05-30T10:10:30Z</time>
      </trkpt>
      <trkpt lat="44.27036" lon="0.70195">
        <ele>161.16</ele>
        <time>2023-05-30T10:11:03Z</time>
      </trkpt>
      <trkpt lat="44.27031" lon="0.70223">
        <ele>156.35</ele>
        <time>2023-05-30T10:11:19Z</time>
      </trkpt>
      <trkpt lat="44.27028" lon="0.70244">
        <ele>151.06</ele>
        <time>2023-05-30T10:11:32Z</time>
      </trkpt>
      <trkpt lat="44.27023" lon="0.70266">
        <ele>147.22</ele>
        <time>2023-05-30T10:11:45Z</time>
      </trkpt>
      <trkpt lat="44.27019" lon="0.70291">
        <ele>142.89</ele>
        <time>2023-05-30T10:12:00Z</time>
      </trkpt>
      <trkpt lat="44.27007" lon="0.70298">
        <ele>141.93</ele>
        <time>2023-05-30T10:12:10Z</time>
      </trkpt>
      <trkpt lat="44.26993" lon="0.70301">
        <ele>140.49</ele>
        <time>2023-05-30T10:12:20Z</time>
      </trkpt>
      <trkpt lat="44.26978" lon="0.70305">
        <ele>138.57</ele>
        <time>2023-05-30T10:12:31Z</time>
      </trkpt>
      <trkpt lat="44.26957" lon="0.70309">
        <ele>138.09</ele>
        <time>2023-05-30T10:12:47Z</time>
      </trkpt>
      <trkpt lat="44.26944" lon="0.70317">
        <ele>136.64</ele>
        <time>2023-05-30T10:12:58Z</time>
      </trkpt>
      <trkpt lat="44.26933" lon="0.70326">
        <ele>135.2</ele>
        <time>2023-05-30T10:13:08Z</time>
      </trkpt>
      <trkpt lat="44.26923" lon="0.70335">
        <ele>133.28</ele>
        <time>2023-05-30T10:13:17Z</time>
      </trkpt>
      <trkpt lat="44.26912" lon="0.70343">
        <ele>131.84</ele>
        <time>2023-05-30T10:13:26Z</time>
      </trkpt>
      <trkpt lat="44.26902" lon="0.70353">
        <ele>131.84</ele>
        <time>2023-05-30T10:13:34Z</time>
      </trkpt>
      <trkpt lat="44.2689" lon="0.70362">
        <ele>132.8</ele>
        <time>2023-05-30T10:13:42Z</time>
      </trkpt>
      <trkpt lat="44.26879" lon="0.70369">
        <ele>133.28</ele>
        <time>2023-05-30T10:13:50Z</time>
      </trkpt>
      <trkpt lat="44.26869" lon="0.70374">
        <ele>132.8</ele>
        <time>2023-05-30T10:13:57Z</time>
      </trkpt>
      <trkpt lat="44.26859" lon="0.70379">
        <ele>131.36</ele>
        <time>2023-05-30T10:14:05Z</time>
      </trkpt>
      <trkpt lat="44.26849" lon="0.70383">
        <ele>129.92</ele>
        <time>2023-05-30T10:14:14Z</time>
      </trkpt>
      <trkpt lat="44.26835" lon="0.70385">
        <ele>125.59</ele>
        <time>2023-05-30T10:14:34Z</time>
      </trkpt>
      <trkpt lat="44.26824" lon="0.70386">
        <ele>123.19</ele>
        <time>2023-05-30T10:14:43Z</time>
      </trkpt>
      <trkpt lat="44.26813" lon="0.70386">
        <ele>120.3</ele>
        <time>2023-05-30T10:14:52Z</time>
      </trkpt>
      <trkpt lat="44.26802" lon="0.70385">
        <ele>117.9</ele>
        <time>2023-05-30T10:15:02Z</time>
      </trkpt>
      <trkpt lat="44.26795" lon="0.70394">
        <ele>115.01</ele>
        <time>2023-05-30T10:15:12Z</time>
      </trkpt>
      <trkpt lat="44.26792" lon="0.7041">
        <ele>112.13</ele>
        <time>2023-05-30T10:15:21Z</time>
      </trkpt>
      <trkpt lat="44.26791" lon="0.70428">
        <ele>110.69</ele>
        <time>2023-05-30T10:15:31Z</time>
      </trkpt>
      <trkpt lat="44.26788" lon="0.70448">
        <ele>109.25</ele>
        <time>2023-05-30T10:15:41Z</time>
      </trkpt>
      <trkpt lat="44.26783" lon="0.7046">
        <ele>107.32</ele>
        <time>2023-05-30T10:15:49Z</time>
      </trkpt>
      <trkpt lat="44.26777" lon="0.70475">
        <ele>104.44</ele>
        <time>2023-05-30T10:15:59Z</time>
      </trkpt>
      <trkpt lat="44.26769" lon="0.70489">
        <ele>102.04</ele>
        <time>2023-05-30T10:16:10Z</time>
      </trkpt>
      <trkpt lat="44.26762" lon="0.70501">
        <ele>99.63</ele>
        <time>2023-05-30T10:16:17Z</time>
      </trkpt>
      <trkpt lat="44.26753" lon="0.70515">
        <ele>98.19</ele>
        <time>2023-05-30T10:16:26Z</time>
      </trkpt>
      <trkpt lat="44.26745" lon="0.70528">
        <ele>95.79</ele>
        <time>2023-05-30T10:16:37Z</time>
      </trkpt>
      <trkpt lat="44.26736" lon="0.7054">
        <ele>95.79</ele>
        <time>2023-05-30T10:16:44Z</time>
      </trkpt>
      <trkpt lat="44.26725" lon="0.70552">
        <ele>96.27</ele>
        <time>2023-05-30T10:16:52Z</time>
      </trkpt>
      <trkpt lat="44.26715" lon="0.70558">
        <ele>95.31</ele>
        <time>2023-05-30T10:17:00Z</time>
      </trkpt>
      <trkpt lat="44.26705" lon="0.70558">
        <ele>94.35</ele>
        <time>2023-05-30T10:17:08Z</time>
      </trkpt>
      <trkpt lat="44.26696" lon="0.70558">
        <ele>94.35</ele>
        <time>2023-05-30T10:17:15Z</time>
      </trkpt>
      <trkpt lat="44.26686" lon="0.70557">
        <ele>93.87</ele>
        <time>2023-05-30T10:17:22Z</time>
      </trkpt>
      <trkpt lat="44.26676" lon="0.70552">
        <ele>94.35</ele>
        <time>2023-05-30T10:17:29Z</time>
      </trkpt>
      <trkpt lat="44.26667" lon="0.70547">
        <ele>94.35</ele>
        <time>2023-05-30T10:17:36Z</time>
      </trkpt>
      <trkpt lat="44.26658" lon="0.70542">
        <ele>93.87</ele>
        <time>2023-05-30T10:17:43Z</time>
      </trkpt>
      <trkpt lat="44.2665" lon="0.70536">
        <ele>93.87</ele>
        <time>2023-05-30T10:17:50Z</time>
      </trkpt>
      <trkpt lat="44.26641" lon="0.7053">
        <ele>94.35</ele>
        <time>2023-05-30T10:17:58Z</time>
      </trkpt>
      <trkpt lat="44.26631" lon="0.70524">
        <ele>94.35</ele>
        <time>2023-05-30T10:18:06Z</time>
      </trkpt>
      <trkpt lat="44.26622" lon="0.70518">
        <ele>94.35</ele>
        <time>2023-05-30T10:18:13Z</time>
      </trkpt>
      <trkpt lat="44.26613" lon="0.70517">
        <ele>94.35</ele>
        <time>2023-05-30T10:18:21Z</time>
      </trkpt>
      <trkpt lat="44.26606" lon="0.70526">
        <ele>93.87</ele>
        <time>2023-05-30T10:18:31Z</time>
      </trkpt>
      <trkpt lat="44.26603" lon="0.70539">
        <ele>93.39</ele>
        <time>2023-05-30T10:18:39Z</time>
      </trkpt>
      <trkpt lat="44.26602" lon="0.70552">
        <ele>92.42</ele>
        <time>2023-05-30T10:18:47Z</time>
      </trkpt>
      <trkpt lat="44.26599" lon="0.70566">
        <ele>92.42</ele>
        <time>2023-05-30T10:18:54Z</time>
      </trkpt>
      <trkpt lat="44.26596" lon="0.70579">
        <ele>91.94</ele>
        <time>2023-05-30T10:19:02Z</time>
      </trkpt>
      <trkpt lat="44.26595" lon="0.70595">
        <ele>90.98</ele>
        <time>2023-05-30T10:19:11Z</time>
      </trkpt>
      <trkpt lat="44.26596" lon="0.70611">
        <ele>89.06</ele>
        <time>2023-05-30T10:19:20Z</time>
      </trkpt>
      <trkpt lat="44.26597" lon="0.7063">
        <ele>85.69</ele>
        <time>2023-05-30T10:19:29Z</time>
      </trkpt>
      <trkpt lat="44.26594" lon="0.70646">
        <ele>84.25</ele>
        <time>2023-05-30T10:19:38Z</time>
      </trkpt>
      <trkpt lat="44.26586" lon="0.7066">
        <ele>83.77</ele>
        <time>2023-05-30T10:19:48Z</time>
      </trkpt>
      <trkpt lat="44.26582" lon="0.70676">
        <ele>84.25</ele>
        <time>2023-05-30T10:19:58Z</time>
      </trkpt>
      <trkpt lat="44.26576" lon="0.70694">
        <ele>84.25</ele>
        <time>2023-05-30T10:20:09Z</time>
      </trkpt>
      <trkpt lat="44.26574" lon="0.7071">
        <ele>84.25</ele>
        <time>2023-05-30T10:20:18Z</time>
      </trkpt>
      <trkpt lat="44.26571" lon="0.70734">
        <ele>84.25</ele>
        <time>2023-05-30T10:20:31Z</time>
      </trkpt>
      <trkpt lat="44.2657" lon="0.7076">
        <ele>84.73</ele>
        <time>2023-05-30T10:20:48Z</time>
      </trkpt>
      <trkpt lat="44.26568" lon="0.70779">
        <ele>83.77</ele>
        <time>2023-05-30T10:20:58Z</time>
      </trkpt>
      <trkpt lat="44.26567" lon="0.70793">
        <ele>83.77</ele>
        <time>2023-05-30T10:21:05Z</time>
      </trkpt>
      <trkpt lat="44.26565" lon="0.70809">
        <ele>85.69</ele>
        <time>2023-05-30T10:21:14Z</time>
      </trkpt>
      <trkpt lat="44.26563" lon="0.70822">
        <ele>87.62</ele>
        <time>2023-05-30T10:21:21Z</time>
      </trkpt>
      <trkpt lat="44.26561" lon="0.70837">
        <ele>88.1</ele>
        <time>2023-05-30T10:21:29Z</time>
      </trkpt>
      <trkpt lat="44.26555" lon="0.70848">
        <ele>87.62</ele>
        <time>2023-05-30T10:21:37Z</time>
      </trkpt>
      <trkpt lat="44.26547" lon="0.70856">
        <ele>88.1</ele>
        <time>2023-05-30T10:21:45Z</time>
      </trkpt>
      <trkpt lat="44.26537" lon="0.70862">
        <ele>88.1</ele>
        <time>2023-05-30T10:21:53Z</time>
      </trkpt>
      <trkpt lat="44.26529" lon="0.7087">
        <ele>88.58</ele>
        <time>2023-05-30T10:22:01Z</time>
      </trkpt>
      <trkpt lat="44.2652" lon="0.70879">
        <ele>88.58</ele>
        <time>2023-05-30T10:22:09Z</time>
      </trkpt>
      <trkpt lat="44.26511" lon="0.70887">
        <ele>89.06</ele>
        <time>2023-05-30T10:22:18Z</time>
      </trkpt>
      <trkpt lat="44.26501" lon="0.70893">
        <ele>88.58</ele>
        <time>2023-05-30T10:22:27Z</time>
      </trkpt>
      <trkpt lat="44.26491" lon="0.70898">
        <ele>88.1</ele>
        <time>2023-05-30T10:22:35Z</time>
      </trkpt>
      <trkpt lat="44.26481" lon="0.70903">
        <ele>88.1</ele>
        <time>2023-05-30T10:22:43Z</time>
      </trkpt>
      <trkpt lat="44.26471" lon="0.70905">
        <ele>87.62</ele>
        <time>2023-05-30T10:22:51Z</time>
      </trkpt>
      <trkpt lat="44.26461" lon="0.70912">
        <ele>86.66</ele>
        <time>2023-05-30T10:22:59Z</time>
      </trkpt>
      <trkpt lat="44.26452" lon="0.70921">
        <ele>86.18</ele>
        <time>2023-05-30T10:23:07Z</time>
      </trkpt>
      <trkpt lat="44.26444" lon="0.70929">
        <ele>86.18</ele>
        <time>2023-05-30T10:23:16Z</time>
      </trkpt>
      <trkpt lat="44.26433" lon="0.70935">
        <ele>86.66</ele>
        <time>2023-05-30T10:23:25Z</time>
      </trkpt>
      <trkpt lat="44.26422" lon="0.7094">
        <ele>87.62</ele>
        <time>2023-05-30T10:23:36Z</time>
      </trkpt>
      <trkpt lat="44.2641" lon="0.7094">
        <ele>89.06</ele>
        <time>2023-05-30T10:23:45Z</time>
      </trkpt>
      <trkpt lat="44.26398" lon="0.70941">
        <ele>90.02</ele>
        <time>2023-05-30T10:23:53Z</time>
      </trkpt>
      <trkpt lat="44.26387" lon="0.70945">
        <ele>90.02</ele>
        <time>2023-05-30T10:24:02Z</time>
      </trkpt>
      <trkpt lat="44.26378" lon="0.70953">
        <ele>90.98</ele>
        <time>2023-05-30T10:24:10Z</time>
      </trkpt>
      <trkpt lat="44.2637" lon="0.70963">
        <ele>91.46</ele>
        <time>2023-05-30T10:24:18Z</time>
      </trkpt>
      <trkpt lat="44.26363" lon="0.70974">
        <ele>91.46</ele>
        <time>2023-05-30T10:24:26Z</time>
      </trkpt>
      <trkpt lat="44.26356" lon="0.70984">
        <ele>91.46</ele>
        <time>2023-05-30T10:24:34Z</time>
      </trkpt>
      <trkpt lat="44.26348" lon="0.70993">
        <ele>90.98</ele>
        <time>2023-05-30T10:24:43Z</time>
      </trkpt>
      <trkpt lat="44.26339" lon="0.71004">
        <ele>90.5</ele>
        <time>2023-05-30T10:25:01Z</time>
      </trkpt>
      <trkpt lat="44.26333" lon="0.71014">
        <ele>90.5</ele>
        <time>2023-05-30T10:25:11Z</time>
      </trkpt>
      <trkpt lat="44.26323" lon="0.71019">
        <ele>89.54</ele>
        <time>2023-05-30T10:25:20Z</time>
      </trkpt>
      <trkpt lat="44.26313" lon="0.71021">
        <ele>88.58</ele>
        <time>2023-05-30T10:25:29Z</time>
      </trkpt>
      <trkpt lat="44.26301" lon="0.71018">
        <ele>87.14</ele>
        <time>2023-05-30T10:25:56Z</time>
      </trkpt>
      <trkpt lat="44.2629" lon="0.71018">
        <ele>88.1</ele>
        <time>2023-05-30T10:26:07Z</time>
      </trkpt>
      <trkpt lat="44.26282" lon="0.71012">
        <ele>87.62</ele>
        <time>2023-05-30T10:26:18Z</time>
      </trkpt>
      <trkpt lat="44.26274" lon="0.71006">
        <ele>86.66</ele>
        <time>2023-05-30T10:26:27Z</time>
      </trkpt>
      <trkpt lat="44.26265" lon="0.7101">
        <ele>85.69</ele>
        <time>2023-05-30T10:26:52Z</time>
      </trkpt>
      <trkpt lat="44.26257" lon="0.71007">
        <ele>85.21</ele>
        <time>2023-05-30T10:27:01Z</time>
      </trkpt>
      <trkpt lat="44.2626" lon="0.70991">
        <ele>84.73</ele>
        <time>2023-05-30T10:27:12Z</time>
      </trkpt>
      <trkpt lat="44.26257" lon="0.71007">
        <ele>82.33</ele>
        <time>2023-05-30T10:29:09Z</time>
      </trkpt>
      <trkpt lat="44.26261" lon="0.71022">
        <ele>81.85</ele>
        <time>2023-05-30T10:29:19Z</time>
      </trkpt>
      <trkpt lat="44.26258" lon="0.71035">
        <ele>81.37</ele>
        <time>2023-05-30T10:29:28Z</time>
      </trkpt>
      <trkpt lat="44.26254" lon="0.71029">
        <ele>82.33</ele>
        <time>2023-05-30T10:31:46Z</time>
      </trkpt>
      <trkpt lat="44.26256" lon="0.71031">
        <ele>81.85</ele>
        <time>2023-05-30T10:31:59Z</time>
      </trkpt>
      <trkpt lat="44.26257" lon="0.71029">
        <ele>83.29</ele>
        <time>2023-05-30T10:33:31Z</time>
      </trkpt>
      <trkpt lat="44.26256" lon="0.71027">
        <ele>81.37</ele>
        <time>2023-05-30T10:35:01Z</time>
      </trkpt>
      <trkpt lat="44.26253" lon="0.71016">
        <ele>86.66</ele>
        <time>2023-05-30T10:36:30Z</time>
      </trkpt>
      <trkpt lat="44.26248" lon="0.71005">
        <ele>87.62</ele>
        <time>2023-05-30T10:36:43Z</time>
      </trkpt>
      <trkpt lat="44.26253" lon="0.71007">
        <ele>87.62</ele>
        <time>2023-05-30T10:38:09Z</time>
      </trkpt>
      <trkpt lat="44.26221" lon="0.71009">
        <ele>87.62</ele>
        <time>2023-05-30T11:50:50Z</time>
      </trkpt>
      <trkpt lat="44.2618" lon="0.70928">
        <ele>84.25</ele>
        <time>2023-05-30T11:51:35Z</time>
      </trkpt>
      <trkpt lat="44.26178" lon="0.70914">
        <ele>84.25</ele>
        <time>2023-05-30T11:51:41Z</time>
      </trkpt>
      <trkpt lat="44.26176" lon="0.70899">
        <ele>83.77</ele>
        <time>2023-05-30T11:51:47Z</time>
      </trkpt>
      <trkpt lat="44.26173" lon="0.70886">
        <ele>84.25</ele>
        <time>2023-05-30T11:51:53Z</time>
      </trkpt>
      <trkpt lat="44.26167" lon="0.70874">
        <ele>84.73</ele>
        <time>2023-05-30T11:52:00Z</time>
      </trkpt>
      <trkpt lat="44.2616" lon="0.70862">
        <ele>84.25</ele>
        <time>2023-05-30T11:52:06Z</time>
      </trkpt>
      <trkpt lat="44.26154" lon="0.70851">
        <ele>83.29</ele>
        <time>2023-05-30T11:52:12Z</time>
      </trkpt>
      <trkpt lat="44.26147" lon="0.70839">
        <ele>84.25</ele>
        <time>2023-05-30T11:52:18Z</time>
      </trkpt>
      <trkpt lat="44.26137" lon="0.70828">
        <ele>85.21</ele>
        <time>2023-05-30T11:52:24Z</time>
      </trkpt>
      <trkpt lat="44.26129" lon="0.70823">
        <ele>84.73</ele>
        <time>2023-05-30T11:52:30Z</time>
      </trkpt>
      <trkpt lat="44.26119" lon="0.70817">
        <ele>84.25</ele>
        <time>2023-05-30T11:52:36Z</time>
      </trkpt>
      <trkpt lat="44.2611" lon="0.70813">
        <ele>84.25</ele>
        <time>2023-05-30T11:52:42Z</time>
      </trkpt>
      <trkpt lat="44.261" lon="0.7081">
        <ele>84.73</ele>
        <time>2023-05-30T11:52:48Z</time>
      </trkpt>
      <trkpt lat="44.2609" lon="0.70806">
        <ele>84.73</ele>
        <time>2023-05-30T11:52:54Z</time>
      </trkpt>
      <trkpt lat="44.26082" lon="0.708">
        <ele>84.73</ele>
        <time>2023-05-30T11:52:59Z</time>
      </trkpt>
      <trkpt lat="44.26074" lon="0.70792">
        <ele>84.73</ele>
        <time>2023-05-30T11:53:04Z</time>
      </trkpt>
      <trkpt lat="44.26067" lon="0.70782">
        <ele>85.69</ele>
        <time>2023-05-30T11:53:10Z</time>
      </trkpt>
      <trkpt lat="44.2606" lon="0.70772">
        <ele>85.21</ele>
        <time>2023-05-30T11:53:17Z</time>
      </trkpt>
      <trkpt lat="44.26053" lon="0.70762">
        <ele>84.73</ele>
        <time>2023-05-30T11:53:23Z</time>
      </trkpt>
      <trkpt lat="44.26047" lon="0.70752">
        <ele>85.69</ele>
        <time>2023-05-30T11:53:29Z</time>
      </trkpt>
      <trkpt lat="44.2604" lon="0.70739">
        <ele>86.18</ele>
        <time>2023-05-30T11:53:35Z</time>
      </trkpt>
      <trkpt lat="44.26035" lon="0.70727">
        <ele>85.69</ele>
        <time>2023-05-30T11:53:41Z</time>
      </trkpt>
      <trkpt lat="44.26031" lon="0.70714">
        <ele>85.21</ele>
        <time>2023-05-30T11:53:47Z</time>
      </trkpt>
      <trkpt lat="44.26026" lon="0.70702">
        <ele>84.25</ele>
        <time>2023-05-30T11:53:53Z</time>
      </trkpt>
      <trkpt lat="44.2602" lon="0.70687">
        <ele>83.29</ele>
        <time>2023-05-30T11:54:01Z</time>
      </trkpt>
      <trkpt lat="44.26014" lon="0.70669">
        <ele>82.33</ele>
        <time>2023-05-30T11:54:12Z</time>
      </trkpt>
      <trkpt lat="44.26006" lon="0.70655">
        <ele>83.29</ele>
        <time>2023-05-30T11:54:20Z</time>
      </trkpt>
      <trkpt lat="44.25998" lon="0.70645">
        <ele>83.29</ele>
        <time>2023-05-30T11:54:28Z</time>
      </trkpt>
      <trkpt lat="44.2599" lon="0.70628">
        <ele>83.29</ele>
        <time>2023-05-30T11:54:38Z</time>
      </trkpt>
      <trkpt lat="44.25984" lon="0.7061">
        <ele>82.33</ele>
        <time>2023-05-30T11:54:48Z</time>
      </trkpt>
      <trkpt lat="44.25978" lon="0.70597">
        <ele>81.85</ele>
        <time>2023-05-30T11:54:55Z</time>
      </trkpt>
      <trkpt lat="44.25972" lon="0.70584">
        <ele>81.37</ele>
        <time>2023-05-30T11:55:02Z</time>
      </trkpt>
      <trkpt lat="44.25965" lon="0.70567">
        <ele>81.37</ele>
        <time>2023-05-30T11:55:11Z</time>
      </trkpt>
      <trkpt lat="44.25959" lon="0.70551">
        <ele>81.37</ele>
        <time>2023-05-30T11:55:18Z</time>
      </trkpt>
      <trkpt lat="44.25951" lon="0.70534">
        <ele>82.33</ele>
        <time>2023-05-30T11:55:27Z</time>
      </trkpt>
      <trkpt lat="44.25944" lon="0.70519">
        <ele>83.29</ele>
        <time>2023-05-30T11:55:35Z</time>
      </trkpt>
      <trkpt lat="44.25933" lon="0.70503">
        <ele>83.77</ele>
        <time>2023-05-30T11:55:47Z</time>
      </trkpt>
      <trkpt lat="44.25917" lon="0.70482">
        <ele>83.77</ele>
        <time>2023-05-30T11:56:02Z</time>
      </trkpt>
      <trkpt lat="44.25901" lon="0.70455">
        <ele>83.77</ele>
        <time>2023-05-30T11:56:19Z</time>
      </trkpt>
      <trkpt lat="44.25887" lon="0.70449">
        <ele>84.73</ele>
        <time>2023-05-30T11:56:32Z</time>
      </trkpt>
      <trkpt lat="44.25876" lon="0.70455">
        <ele>86.66</ele>
        <time>2023-05-30T11:56:40Z</time>
      </trkpt>
      <trkpt lat="44.25865" lon="0.70461">
        <ele>89.06</ele>
        <time>2023-05-30T11:56:48Z</time>
      </trkpt>
      <trkpt lat="44.25855" lon="0.70454">
        <ele>90.02</ele>
        <time>2023-05-30T11:56:57Z</time>
      </trkpt>
      <trkpt lat="44.25847" lon="0.70437">
        <ele>89.54</ele>
        <time>2023-05-30T11:57:07Z</time>
      </trkpt>
      <trkpt lat="44.25834" lon="0.70374">
        <ele>83.29</ele>
        <time>2023-05-30T11:57:40Z</time>
      </trkpt>
      <trkpt lat="44.25842" lon="0.70349">
        <ele>82.33</ele>
        <time>2023-05-30T11:57:51Z</time>
      </trkpt>
      <trkpt lat="44.25853" lon="0.70296">
        <ele>84.25</ele>
        <time>2023-05-30T11:58:17Z</time>
      </trkpt>
      <trkpt lat="44.25839" lon="0.70258">
        <ele>84.25</ele>
        <time>2023-05-30T11:58:38Z</time>
      </trkpt>
      <trkpt lat="44.25828" lon="0.7025">
        <ele>84.73</ele>
        <time>2023-05-30T11:58:45Z</time>
      </trkpt>
      <trkpt lat="44.25817" lon="0.70241">
        <ele>85.21</ele>
        <time>2023-05-30T11:58:55Z</time>
      </trkpt>
      <trkpt lat="44.25809" lon="0.70253">
        <ele>85.69</ele>
        <time>2023-05-30T11:59:17Z</time>
      </trkpt>
      <trkpt lat="44.25815" lon="0.70268">
        <ele>86.66</ele>
        <time>2023-05-30T11:59:27Z</time>
      </trkpt>
      <trkpt lat="44.25809" lon="0.70293">
        <ele>87.14</ele>
        <time>2023-05-30T11:59:48Z</time>
      </trkpt>
      <trkpt lat="44.25788" lon="0.70304">
        <ele>93.39</ele>
        <time>2023-05-30T12:00:06Z</time>
      </trkpt>
      <trkpt lat="44.25762" lon="0.70315">
        <ele>103</ele>
        <time>2023-05-30T12:00:28Z</time>
      </trkpt>
      <trkpt lat="44.25749" lon="0.70326">
        <ele>109.73</ele>
        <time>2023-05-30T12:00:42Z</time>
      </trkpt>
      <trkpt lat="44.25729" lon="0.70344">
        <ele>117.42</ele>
        <time>2023-05-30T12:01:07Z</time>
      </trkpt>
      <trkpt lat="44.25719" lon="0.70337">
        <ele>120.3</ele>
        <time>2023-05-30T12:01:16Z</time>
      </trkpt>
      <trkpt lat="44.25709" lon="0.70324">
        <ele>121.26</ele>
        <time>2023-05-30T12:01:28Z</time>
      </trkpt>
      <trkpt lat="44.25701" lon="0.70311">
        <ele>121.74</ele>
        <time>2023-05-30T12:01:36Z</time>
      </trkpt>
      <trkpt lat="44.25693" lon="0.70296">
        <ele>121.74</ele>
        <time>2023-05-30T12:01:44Z</time>
      </trkpt>
      <trkpt lat="44.25685" lon="0.70287">
        <ele>119.34</ele>
        <time>2023-05-30T12:01:53Z</time>
      </trkpt>
      <trkpt lat="44.25672" lon="0.70279">
        <ele>117.9</ele>
        <time>2023-05-30T12:02:03Z</time>
      </trkpt>
      <trkpt lat="44.2566" lon="0.70273">
        <ele>117.42</ele>
        <time>2023-05-30T12:02:11Z</time>
      </trkpt>
      <trkpt lat="44.25649" lon="0.70264">
        <ele>119.82</ele>
        <time>2023-05-30T12:02:18Z</time>
      </trkpt>
      <trkpt lat="44.2564" lon="0.70255">
        <ele>121.26</ele>
        <time>2023-05-30T12:02:26Z</time>
      </trkpt>
      <trkpt lat="44.25633" lon="0.70244">
        <ele>120.3</ele>
        <time>2023-05-30T12:02:36Z</time>
      </trkpt>
      <trkpt lat="44.25604" lon="0.70194">
        <ele>121.74</ele>
        <time>2023-05-30T12:03:01Z</time>
      </trkpt>
      <trkpt lat="44.25592" lon="0.70174">
        <ele>123.67</ele>
        <time>2023-05-30T12:03:15Z</time>
      </trkpt>
      <trkpt lat="44.25583" lon="0.70167">
        <ele>123.67</ele>
        <time>2023-05-30T12:03:23Z</time>
      </trkpt>
      <trkpt lat="44.25572" lon="0.70161">
        <ele>125.11</ele>
        <time>2023-05-30T12:03:31Z</time>
      </trkpt>
      <trkpt lat="44.25561" lon="0.70156">
        <ele>127.03</ele>
        <time>2023-05-30T12:03:39Z</time>
      </trkpt>
      <trkpt lat="44.25551" lon="0.70151">
        <ele>128.47</ele>
        <time>2023-05-30T12:03:47Z</time>
      </trkpt>
      <trkpt lat="44.25539" lon="0.70145">
        <ele>130.4</ele>
        <time>2023-05-30T12:03:56Z</time>
      </trkpt>
      <trkpt lat="44.25527" lon="0.70139">
        <ele>132.8</ele>
        <time>2023-05-30T12:04:07Z</time>
      </trkpt>
      <trkpt lat="44.25513" lon="0.70131">
        <ele>134.24</ele>
        <time>2023-05-30T12:04:19Z</time>
      </trkpt>
      <trkpt lat="44.25501" lon="0.70126">
        <ele>135.68</ele>
        <time>2023-05-30T12:04:27Z</time>
      </trkpt>
      <trkpt lat="44.2549" lon="0.70118">
        <ele>136.16</ele>
        <time>2023-05-30T12:04:37Z</time>
      </trkpt>
      <trkpt lat="44.25479" lon="0.70107">
        <ele>132.8</ele>
        <time>2023-05-30T12:04:47Z</time>
      </trkpt>
      <trkpt lat="44.25468" lon="0.70098">
        <ele>129.43</ele>
        <time>2023-05-30T12:04:56Z</time>
      </trkpt>
      <trkpt lat="44.25466" lon="0.70082">
        <ele>126.07</ele>
        <time>2023-05-30T12:05:07Z</time>
      </trkpt>
      <trkpt lat="44.25474" lon="0.70071">
        <ele>124.15</ele>
        <time>2023-05-30T12:05:17Z</time>
      </trkpt>
      <trkpt lat="44.25477" lon="0.70055">
        <ele>122.71</ele>
        <time>2023-05-30T12:05:26Z</time>
      </trkpt>
      <trkpt lat="44.25485" lon="0.70041">
        <ele>121.74</ele>
        <time>2023-05-30T12:05:34Z</time>
      </trkpt>
      <trkpt lat="44.25495" lon="0.70032">
        <ele>118.86</ele>
        <time>2023-05-30T12:05:44Z</time>
      </trkpt>
      <trkpt lat="44.25505" lon="0.70037">
        <ele>116.46</ele>
        <time>2023-05-30T12:05:51Z</time>
      </trkpt>
      <trkpt lat="44.25514" lon="0.70043">
        <ele>113.09</ele>
        <time>2023-05-30T12:05:58Z</time>
      </trkpt>
      <trkpt lat="44.25522" lon="0.70042">
        <ele>110.21</ele>
        <time>2023-05-30T12:06:06Z</time>
      </trkpt>
      <trkpt lat="44.25512" lon="0.70025">
        <ele>105.4</ele>
        <time>2023-05-30T12:06:30Z</time>
      </trkpt>
      <trkpt lat="44.25503" lon="0.70012">
        <ele>104.44</ele>
        <time>2023-05-30T12:06:39Z</time>
      </trkpt>
      <trkpt lat="44.25494" lon="0.69997">
        <ele>103.96</ele>
        <time>2023-05-30T12:06:47Z</time>
      </trkpt>
      <trkpt lat="44.25488" lon="0.69983">
        <ele>103</ele>
        <time>2023-05-30T12:06:54Z</time>
      </trkpt>
      <trkpt lat="44.2548" lon="0.69968">
        <ele>102.04</ele>
        <time>2023-05-30T12:07:03Z</time>
      </trkpt>
      <trkpt lat="44.25472" lon="0.69953">
        <ele>100.11</ele>
        <time>2023-05-30T12:07:12Z</time>
      </trkpt>
      <trkpt lat="44.25462" lon="0.69936">
        <ele>96.75</ele>
        <time>2023-05-30T12:07:23Z</time>
      </trkpt>
      <trkpt lat="44.25454" lon="0.69918">
        <ele>95.31</ele>
        <time>2023-05-30T12:07:32Z</time>
      </trkpt>
      <trkpt lat="44.25449" lon="0.69901">
        <ele>94.35</ele>
        <time>2023-05-30T12:07:39Z</time>
      </trkpt>
      <trkpt lat="44.25442" lon="0.69885">
        <ele>92.9</ele>
        <time>2023-05-30T12:07:47Z</time>
      </trkpt>
      <trkpt lat="44.25435" lon="0.69872">
        <ele>91.46</ele>
        <time>2023-05-30T12:07:56Z</time>
      </trkpt>
      <trkpt lat="44.25427" lon="0.69864">
        <ele>90.5</ele>
        <time>2023-05-30T12:08:04Z</time>
      </trkpt>
      <trkpt lat="44.25417" lon="0.69862">
        <ele>89.54</ele>
        <time>2023-05-30T12:08:11Z</time>
      </trkpt>
      <trkpt lat="44.25408" lon="0.69863">
        <ele>89.54</ele>
        <time>2023-05-30T12:08:17Z</time>
      </trkpt>
      <trkpt lat="44.25398" lon="0.69864">
        <ele>89.06</ele>
        <time>2023-05-30T12:08:23Z</time>
      </trkpt>
      <trkpt lat="44.25387" lon="0.69865">
        <ele>89.06</ele>
        <time>2023-05-30T12:08:30Z</time>
      </trkpt>
      <trkpt lat="44.25378" lon="0.69867">
        <ele>89.06</ele>
        <time>2023-05-30T12:08:36Z</time>
      </trkpt>
      <trkpt lat="44.25368" lon="0.69868">
        <ele>88.58</ele>
        <time>2023-05-30T12:08:42Z</time>
      </trkpt>
      <trkpt lat="44.25359" lon="0.6987">
        <ele>88.58</ele>
        <time>2023-05-30T12:08:48Z</time>
      </trkpt>
      <trkpt lat="44.25347" lon="0.69871">
        <ele>88.58</ele>
        <time>2023-05-30T12:08:55Z</time>
      </trkpt>
      <trkpt lat="44.25338" lon="0.69873">
        <ele>89.06</ele>
        <time>2023-05-30T12:09:01Z</time>
      </trkpt>
      <trkpt lat="44.25327" lon="0.69875">
        <ele>88.58</ele>
        <time>2023-05-30T12:09:08Z</time>
      </trkpt>
      <trkpt lat="44.25317" lon="0.69877">
        <ele>88.1</ele>
        <time>2023-05-30T12:09:15Z</time>
      </trkpt>
      <trkpt lat="44.25308" lon="0.69882">
        <ele>88.1</ele>
        <time>2023-05-30T12:09:22Z</time>
      </trkpt>
      <trkpt lat="44.25299" lon="0.69887">
        <ele>88.1</ele>
        <time>2023-05-30T12:09:29Z</time>
      </trkpt>
      <trkpt lat="44.25289" lon="0.69883">
        <ele>88.58</ele>
        <time>2023-05-30T12:09:36Z</time>
      </trkpt>
      <trkpt lat="44.25279" lon="0.69879">
        <ele>90.02</ele>
        <time>2023-05-30T12:09:43Z</time>
      </trkpt>
      <trkpt lat="44.25254" lon="0.69874">
        <ele>96.27</ele>
        <time>2023-05-30T12:22:40Z</time>
      </trkpt>
      <trkpt lat="44.25245" lon="0.6987">
        <ele>96.27</ele>
        <time>2023-05-30T12:22:48Z</time>
      </trkpt>
      <trkpt lat="44.25236" lon="0.69865">
        <ele>95.31</ele>
        <time>2023-05-30T12:22:57Z</time>
      </trkpt>
      <trkpt lat="44.25224" lon="0.69863">
        <ele>94.83</ele>
        <time>2023-05-30T12:23:07Z</time>
      </trkpt>
      <trkpt lat="44.25178" lon="0.69801">
        <ele>99.63</ele>
        <time>2023-05-30T12:23:55Z</time>
      </trkpt>
      <trkpt lat="44.25136" lon="0.69807">
        <ele>112.61</ele>
        <time>2023-05-30T12:24:26Z</time>
      </trkpt>
      <trkpt lat="44.25113" lon="0.69818">
        <ele>115.98</ele>
        <time>2023-05-30T12:24:43Z</time>
      </trkpt>
      <trkpt lat="44.25101" lon="0.69826">
        <ele>113.57</ele>
        <time>2023-05-30T12:24:55Z</time>
      </trkpt>
      <trkpt lat="44.25088" lon="0.6983">
        <ele>111.17</ele>
        <time>2023-05-30T12:25:06Z</time>
      </trkpt>
      <trkpt lat="44.25077" lon="0.69827">
        <ele>111.65</ele>
        <time>2023-05-30T12:25:15Z</time>
      </trkpt>
      <trkpt lat="44.25061" lon="0.69821">
        <ele>113.09</ele>
        <time>2023-05-30T12:25:30Z</time>
      </trkpt>
      <trkpt lat="44.2505" lon="0.69814">
        <ele>115.01</ele>
        <time>2023-05-30T12:25:38Z</time>
      </trkpt>
      <trkpt lat="44.25037" lon="0.69805">
        <ele>117.9</ele>
        <time>2023-05-30T12:25:46Z</time>
      </trkpt>
      <trkpt lat="44.25027" lon="0.69802">
        <ele>119.82</ele>
        <time>2023-05-30T12:25:55Z</time>
      </trkpt>
      <trkpt lat="44.24998" lon="0.69823">
        <ele>136.16</ele>
        <time>2023-05-30T12:26:22Z</time>
      </trkpt>
      <trkpt lat="44.24976" lon="0.69845">
        <ele>142.89</ele>
        <time>2023-05-30T12:26:43Z</time>
      </trkpt>
      <trkpt lat="44.24966" lon="0.69855">
        <ele>143.85</ele>
        <time>2023-05-30T12:26:52Z</time>
      </trkpt>
      <trkpt lat="44.24918" lon="0.6992">
        <ele>149.14</ele>
        <time>2023-05-30T12:31:01Z</time>
      </trkpt>
      <trkpt lat="44.24914" lon="0.69926">
        <ele>146.26</ele>
        <time>2023-05-30T12:31:38Z</time>
      </trkpt>
      <trkpt lat="44.24922" lon="0.69908">
        <ele>145.3</ele>
        <time>2023-05-30T12:31:49Z</time>
      </trkpt>
      <trkpt lat="44.24938" lon="0.69853">
        <ele>152.99</ele>
        <time>2023-05-30T12:32:31Z</time>
      </trkpt>
      <trkpt lat="44.24935" lon="0.69829">
        <ele>152.99</ele>
        <time>2023-05-30T12:32:41Z</time>
      </trkpt>
      <trkpt lat="44.2493" lon="0.69815">
        <ele>153.95</ele>
        <time>2023-05-30T12:32:49Z</time>
      </trkpt>
      <trkpt lat="44.2492" lon="0.69811">
        <ele>154.91</ele>
        <time>2023-05-30T12:32:57Z</time>
      </trkpt>
      <trkpt lat="44.24909" lon="0.69808">
        <ele>155.39</ele>
        <time>2023-05-30T12:33:05Z</time>
      </trkpt>
      <trkpt lat="44.24897" lon="0.69807">
        <ele>157.31</ele>
        <time>2023-05-30T12:33:14Z</time>
      </trkpt>
      <trkpt lat="44.24886" lon="0.69806">
        <ele>157.31</ele>
        <time>2023-05-30T12:33:22Z</time>
      </trkpt>
      <trkpt lat="44.24874" lon="0.69804">
        <ele>157.79</ele>
        <time>2023-05-30T12:33:29Z</time>
      </trkpt>
      <trkpt lat="44.24864" lon="0.69801">
        <ele>158.75</ele>
        <time>2023-05-30T12:33:36Z</time>
      </trkpt>
      <trkpt lat="44.24854" lon="0.69799">
        <ele>158.75</ele>
        <time>2023-05-30T12:33:44Z</time>
      </trkpt>
      <trkpt lat="44.24844" lon="0.69797">
        <ele>158.75</ele>
        <time>2023-05-30T12:33:51Z</time>
      </trkpt>
      <trkpt lat="44.24834" lon="0.69795">
        <ele>158.75</ele>
        <time>2023-05-30T12:33:58Z</time>
      </trkpt>
      <trkpt lat="44.24824" lon="0.69794">
        <ele>159.24</ele>
        <time>2023-05-30T12:34:05Z</time>
      </trkpt>
      <trkpt lat="44.24814" lon="0.69793">
        <ele>160.2</ele>
        <time>2023-05-30T12:34:13Z</time>
      </trkpt>
      <trkpt lat="44.24804" lon="0.69793">
        <ele>161.16</ele>
        <time>2023-05-30T12:34:20Z</time>
      </trkpt>
      <trkpt lat="44.24795" lon="0.69794">
        <ele>162.12</ele>
        <time>2023-05-30T12:34:27Z</time>
      </trkpt>
      <trkpt lat="44.24785" lon="0.69795">
        <ele>163.08</ele>
        <time>2023-05-30T12:34:34Z</time>
      </trkpt>
      <trkpt lat="44.24775" lon="0.69798">
        <ele>164.04</ele>
        <time>2023-05-30T12:34:41Z</time>
      </trkpt>
      <trkpt lat="44.24765" lon="0.69801">
        <ele>164.52</ele>
        <time>2023-05-30T12:34:49Z</time>
      </trkpt>
      <trkpt lat="44.24756" lon="0.69805">
        <ele>165.48</ele>
        <time>2023-05-30T12:34:57Z</time>
      </trkpt>
      <trkpt lat="44.24747" lon="0.6981">
        <ele>165.96</ele>
        <time>2023-05-30T12:35:04Z</time>
      </trkpt>
      <trkpt lat="44.24737" lon="0.69814">
        <ele>166.45</ele>
        <time>2023-05-30T12:35:12Z</time>
      </trkpt>
      <trkpt lat="44.24725" lon="0.6982">
        <ele>167.89</ele>
        <time>2023-05-30T12:35:20Z</time>
      </trkpt>
      <trkpt lat="44.24715" lon="0.69825">
        <ele>168.85</ele>
        <time>2023-05-30T12:35:27Z</time>
      </trkpt>
      <trkpt lat="44.24705" lon="0.6983">
        <ele>169.81</ele>
        <time>2023-05-30T12:35:34Z</time>
      </trkpt>
      <trkpt lat="44.24696" lon="0.69835">
        <ele>172.21</ele>
        <time>2023-05-30T12:35:41Z</time>
      </trkpt>
      <trkpt lat="44.24685" lon="0.69839">
        <ele>175.58</ele>
        <time>2023-05-30T12:35:53Z</time>
      </trkpt>
      <trkpt lat="44.24678" lon="0.69846">
        <ele>177.5</ele>
        <time>2023-05-30T12:36:01Z</time>
      </trkpt>
      <trkpt lat="44.24667" lon="0.69852">
        <ele>177.98</ele>
        <time>2023-05-30T12:36:08Z</time>
      </trkpt>
      <trkpt lat="44.24658" lon="0.69856">
        <ele>177.5</ele>
        <time>2023-05-30T12:36:15Z</time>
      </trkpt>
      <trkpt lat="44.24647" lon="0.69859">
        <ele>177.02</ele>
        <time>2023-05-30T12:36:22Z</time>
      </trkpt>
      <trkpt lat="44.24638" lon="0.69867">
        <ele>176.06</ele>
        <time>2023-05-30T12:36:29Z</time>
      </trkpt>
      <trkpt lat="44.24628" lon="0.6988">
        <ele>176.06</ele>
        <time>2023-05-30T12:36:38Z</time>
      </trkpt>
      <trkpt lat="44.2462" lon="0.69896">
        <ele>176.06</ele>
        <time>2023-05-30T12:36:48Z</time>
      </trkpt>
      <trkpt lat="44.24611" lon="0.69914">
        <ele>174.14</ele>
        <time>2023-05-30T12:36:59Z</time>
      </trkpt>
      <trkpt lat="44.24602" lon="0.69929">
        <ele>171.73</ele>
        <time>2023-05-30T12:37:07Z</time>
      </trkpt>
      <trkpt lat="44.24596" lon="0.69943">
        <ele>169.81</ele>
        <time>2023-05-30T12:37:15Z</time>
      </trkpt>
      <trkpt lat="44.24571" lon="0.69986">
        <ele>165.48</ele>
        <time>2023-05-30T12:37:42Z</time>
      </trkpt>
      <trkpt lat="44.24544" lon="0.70067">
        <ele>156.35</ele>
        <time>2023-05-30T12:38:28Z</time>
      </trkpt>
      <trkpt lat="44.24519" lon="0.70107">
        <ele>155.87</ele>
        <time>2023-05-30T12:38:52Z</time>
      </trkpt>
      <trkpt lat="44.24509" lon="0.70127">
        <ele>155.87</ele>
        <time>2023-05-30T12:39:03Z</time>
      </trkpt>
      <trkpt lat="44.24503" lon="0.70147">
        <ele>156.35</ele>
        <time>2023-05-30T12:39:12Z</time>
      </trkpt>
      <trkpt lat="44.24499" lon="0.70164">
        <ele>156.35</ele>
        <time>2023-05-30T12:39:20Z</time>
      </trkpt>
      <trkpt lat="44.24495" lon="0.70183">
        <ele>155.39</ele>
        <time>2023-05-30T12:39:30Z</time>
      </trkpt>
      <trkpt lat="44.24495" lon="0.70202">
        <ele>153.95</ele>
        <time>2023-05-30T12:39:39Z</time>
      </trkpt>
      <trkpt lat="44.24497" lon="0.70219">
        <ele>152.99</ele>
        <time>2023-05-30T12:39:48Z</time>
      </trkpt>
      <trkpt lat="44.24502" lon="0.70235">
        <ele>152.51</ele>
        <time>2023-05-30T12:39:56Z</time>
      </trkpt>
      <trkpt lat="44.24506" lon="0.70251">
        <ele>152.99</ele>
        <time>2023-05-30T12:40:04Z</time>
      </trkpt>
      <trkpt lat="44.24504" lon="0.7027">
        <ele>152.99</ele>
        <time>2023-05-30T12:40:13Z</time>
      </trkpt>
      <trkpt lat="44.24505" lon="0.70287">
        <ele>151.06</ele>
        <time>2023-05-30T12:40:22Z</time>
      </trkpt>
      <trkpt lat="44.24492" lon="0.70273">
        <ele>146.26</ele>
        <time>2023-05-30T12:40:40Z</time>
      </trkpt>
      <trkpt lat="44.2448" lon="0.70259">
        <ele>144.34</ele>
        <time>2023-05-30T12:40:50Z</time>
      </trkpt>
      <trkpt lat="44.24469" lon="0.70249">
        <ele>140.97</ele>
        <time>2023-05-30T12:40:59Z</time>
      </trkpt>
      <trkpt lat="44.24459" lon="0.70244">
        <ele>138.57</ele>
        <time>2023-05-30T12:41:06Z</time>
      </trkpt>
      <trkpt lat="44.24448" lon="0.70247">
        <ele>137.13</ele>
        <time>2023-05-30T12:41:13Z</time>
      </trkpt>
      <trkpt lat="44.24438" lon="0.70246">
        <ele>135.2</ele>
        <time>2023-05-30T12:41:20Z</time>
      </trkpt>
      <trkpt lat="44.24428" lon="0.70244">
        <ele>134.24</ele>
        <time>2023-05-30T12:41:27Z</time>
      </trkpt>
      <trkpt lat="44.24418" lon="0.70249">
        <ele>132.32</ele>
        <time>2023-05-30T12:41:35Z</time>
      </trkpt>
      <trkpt lat="44.24408" lon="0.70259">
        <ele>129.43</ele>
        <time>2023-05-30T12:41:44Z</time>
      </trkpt>
      <trkpt lat="44.24398" lon="0.70268">
        <ele>127.03</ele>
        <time>2023-05-30T12:41:52Z</time>
      </trkpt>
      <trkpt lat="44.24389" lon="0.70273">
        <ele>125.11</ele>
        <time>2023-05-30T12:42:00Z</time>
      </trkpt>
      <trkpt lat="44.24378" lon="0.70277">
        <ele>122.22</ele>
        <time>2023-05-30T12:42:09Z</time>
      </trkpt>
      <trkpt lat="44.24366" lon="0.70274">
        <ele>120.78</ele>
        <time>2023-05-30T12:42:17Z</time>
      </trkpt>
      <trkpt lat="44.24355" lon="0.70272">
        <ele>119.82</ele>
        <time>2023-05-30T12:42:24Z</time>
      </trkpt>
      <trkpt lat="44.24345" lon="0.70268">
        <ele>117.42</ele>
        <time>2023-05-30T12:42:33Z</time>
      </trkpt>
      <trkpt lat="44.24334" lon="0.70263">
        <ele>114.05</ele>
        <time>2023-05-30T12:42:42Z</time>
      </trkpt>
      <trkpt lat="44.24309" lon="0.70251">
        <ele>104.44</ele>
        <time>2023-05-30T12:43:05Z</time>
      </trkpt>
      <trkpt lat="44.24299" lon="0.70243">
        <ele>101.56</ele>
        <time>2023-05-30T12:43:13Z</time>
      </trkpt>
      <trkpt lat="44.24285" lon="0.70236">
        <ele>100.6</ele>
        <time>2023-05-30T12:43:21Z</time>
      </trkpt>
      <trkpt lat="44.2427" lon="0.70234">
        <ele>97.23</ele>
        <time>2023-05-30T12:43:35Z</time>
      </trkpt>
      <trkpt lat="44.24261" lon="0.70243">
        <ele>95.79</ele>
        <time>2023-05-30T12:43:43Z</time>
      </trkpt>
      <trkpt lat="44.24253" lon="0.70252">
        <ele>94.35</ele>
        <time>2023-05-30T12:43:50Z</time>
      </trkpt>
      <trkpt lat="44.24245" lon="0.70259">
        <ele>94.83</ele>
        <time>2023-05-30T12:43:57Z</time>
      </trkpt>
      <trkpt lat="44.24236" lon="0.70268">
        <ele>95.31</ele>
        <time>2023-05-30T12:44:04Z</time>
      </trkpt>
      <trkpt lat="44.24227" lon="0.70277">
        <ele>93.39</ele>
        <time>2023-05-30T12:44:11Z</time>
      </trkpt>
      <trkpt lat="44.24219" lon="0.70284">
        <ele>91.46</ele>
        <time>2023-05-30T12:44:18Z</time>
      </trkpt>
      <trkpt lat="44.24211" lon="0.70292">
        <ele>90.5</ele>
        <time>2023-05-30T12:44:25Z</time>
      </trkpt>
      <trkpt lat="44.24203" lon="0.703">
        <ele>89.54</ele>
        <time>2023-05-30T12:44:31Z</time>
      </trkpt>
      <trkpt lat="44.24196" lon="0.7031">
        <ele>88.58</ele>
        <time>2023-05-30T12:44:38Z</time>
      </trkpt>
      <trkpt lat="44.2419" lon="0.70321">
        <ele>87.14</ele>
        <time>2023-05-30T12:44:45Z</time>
      </trkpt>
      <trkpt lat="44.24184" lon="0.70332">
        <ele>86.18</ele>
        <time>2023-05-30T12:44:52Z</time>
      </trkpt>
      <trkpt lat="44.24179" lon="0.70345">
        <ele>84.25</ele>
        <time>2023-05-30T12:45:01Z</time>
      </trkpt>
      <trkpt lat="44.24171" lon="0.70355">
        <ele>83.29</ele>
        <time>2023-05-30T12:45:09Z</time>
      </trkpt>
      <trkpt lat="44.24163" lon="0.70365">
        <ele>82.33</ele>
        <time>2023-05-30T12:45:16Z</time>
      </trkpt>
      <trkpt lat="44.24154" lon="0.70378">
        <ele>78.97</ele>
        <time>2023-05-30T12:45:25Z</time>
      </trkpt>
      <trkpt lat="44.24145" lon="0.7039">
        <ele>77.04</ele>
        <time>2023-05-30T12:45:34Z</time>
      </trkpt>
      <trkpt lat="44.24136" lon="0.704">
        <ele>77.04</ele>
        <time>2023-05-30T12:45:42Z</time>
      </trkpt>
      <trkpt lat="44.24125" lon="0.70411">
        <ele>78.97</ele>
        <time>2023-05-30T12:46:09Z</time>
      </trkpt>
      <trkpt lat="44.24117" lon="0.70421">
        <ele>80.41</ele>
        <time>2023-05-30T12:46:17Z</time>
      </trkpt>
      <trkpt lat="44.24108" lon="0.70431">
        <ele>80.41</ele>
        <time>2023-05-30T12:46:24Z</time>
      </trkpt>
      <trkpt lat="44.24099" lon="0.70443">
        <ele>79.45</ele>
        <time>2023-05-30T12:46:32Z</time>
      </trkpt>
      <trkpt lat="44.24088" lon="0.70459">
        <ele>79.45</ele>
        <time>2023-05-30T12:46:42Z</time>
      </trkpt>
      <trkpt lat="44.24066" lon="0.70484">
        <ele>77.04</ele>
        <time>2023-05-30T12:46:59Z</time>
      </trkpt>
      <trkpt lat="44.24055" lon="0.70499">
        <ele>76.56</ele>
        <time>2023-05-30T12:47:07Z</time>
      </trkpt>
      <trkpt lat="44.24057" lon="0.70515">
        <ele>75.6</ele>
        <time>2023-05-30T12:47:14Z</time>
      </trkpt>
      <trkpt lat="44.24062" lon="0.70527">
        <ele>75.6</ele>
        <time>2023-05-30T12:47:21Z</time>
      </trkpt>
      <trkpt lat="44.24068" lon="0.70539">
        <ele>75.12</ele>
        <time>2023-05-30T12:47:29Z</time>
      </trkpt>
      <trkpt lat="44.24071" lon="0.70554">
        <ele>74.64</ele>
        <time>2023-05-30T12:47:37Z</time>
      </trkpt>
      <trkpt lat="44.24073" lon="0.70569">
        <ele>73.2</ele>
        <time>2023-05-30T12:47:44Z</time>
      </trkpt>
      <trkpt lat="44.24074" lon="0.70586">
        <ele>73.2</ele>
        <time>2023-05-30T12:47:51Z</time>
      </trkpt>
      <trkpt lat="44.24078" lon="0.70601">
        <ele>73.68</ele>
        <time>2023-05-30T12:47:59Z</time>
      </trkpt>
      <trkpt lat="44.24091" lon="0.7062">
        <ele>83.77</ele>
        <time>2023-05-30T12:48:14Z</time>
      </trkpt>
      <trkpt lat="44.24091" lon="0.70635">
        <ele>84.73</ele>
        <time>2023-05-30T12:48:21Z</time>
      </trkpt>
      <trkpt lat="44.24087" lon="0.70651">
        <ele>84.25</ele>
        <time>2023-05-30T12:48:29Z</time>
      </trkpt>
      <trkpt lat="44.24081" lon="0.70665">
        <ele>84.25</ele>
        <time>2023-05-30T12:48:36Z</time>
      </trkpt>
      <trkpt lat="44.24075" lon="0.70678">
        <ele>84.73</ele>
        <time>2023-05-30T12:48:43Z</time>
      </trkpt>
      <trkpt lat="44.24069" lon="0.7069">
        <ele>84.73</ele>
        <time>2023-05-30T12:48:50Z</time>
      </trkpt>
      <trkpt lat="44.24063" lon="0.70702">
        <ele>84.73</ele>
        <time>2023-05-30T12:48:57Z</time>
      </trkpt>
      <trkpt lat="44.24055" lon="0.70712">
        <ele>84.73</ele>
        <time>2023-05-30T12:49:04Z</time>
      </trkpt>
      <trkpt lat="44.2405" lon="0.70725">
        <ele>85.21</ele>
        <time>2023-05-30T12:49:11Z</time>
      </trkpt>
      <trkpt lat="44.24044" lon="0.70738">
        <ele>85.21</ele>
        <time>2023-05-30T12:49:18Z</time>
      </trkpt>
      <trkpt lat="44.24039" lon="0.70751">
        <ele>85.21</ele>
        <time>2023-05-30T12:49:25Z</time>
      </trkpt>
      <trkpt lat="44.24032" lon="0.70762">
        <ele>85.21</ele>
        <time>2023-05-30T12:49:32Z</time>
      </trkpt>
      <trkpt lat="44.24024" lon="0.70772">
        <ele>85.69</ele>
        <time>2023-05-30T12:49:40Z</time>
      </trkpt>
      <trkpt lat="44.24011" lon="0.70788">
        <ele>87.62</ele>
        <time>2023-05-30T12:49:55Z</time>
      </trkpt>
      <trkpt lat="44.24002" lon="0.70802">
        <ele>87.62</ele>
        <time>2023-05-30T12:50:03Z</time>
      </trkpt>
      <trkpt lat="44.23992" lon="0.70811">
        <ele>86.66</ele>
        <time>2023-05-30T12:50:11Z</time>
      </trkpt>
      <trkpt lat="44.23984" lon="0.70824">
        <ele>86.18</ele>
        <time>2023-05-30T12:50:19Z</time>
      </trkpt>
      <trkpt lat="44.23975" lon="0.70836">
        <ele>85.69</ele>
        <time>2023-05-30T12:50:27Z</time>
      </trkpt>
      <trkpt lat="44.23965" lon="0.70849">
        <ele>86.18</ele>
        <time>2023-05-30T12:50:34Z</time>
      </trkpt>
      <trkpt lat="44.23955" lon="0.70859">
        <ele>87.14</ele>
        <time>2023-05-30T12:50:41Z</time>
      </trkpt>
      <trkpt lat="44.23948" lon="0.70868">
        <ele>88.58</ele>
        <time>2023-05-30T12:50:48Z</time>
      </trkpt>
      <trkpt lat="44.2394" lon="0.70876">
        <ele>89.06</ele>
        <time>2023-05-30T12:50:54Z</time>
      </trkpt>
      <trkpt lat="44.23932" lon="0.70886">
        <ele>89.54</ele>
        <time>2023-05-30T12:51:00Z</time>
      </trkpt>
      <trkpt lat="44.23923" lon="0.70898">
        <ele>90.98</ele>
        <time>2023-05-30T12:51:07Z</time>
      </trkpt>
      <trkpt lat="44.23916" lon="0.70907">
        <ele>91.94</ele>
        <time>2023-05-30T12:51:13Z</time>
      </trkpt>
      <trkpt lat="44.23908" lon="0.70915">
        <ele>92.9</ele>
        <time>2023-05-30T12:51:19Z</time>
      </trkpt>
      <trkpt lat="44.239" lon="0.70924">
        <ele>93.39</ele>
        <time>2023-05-30T12:51:26Z</time>
      </trkpt>
      <trkpt lat="44.23893" lon="0.70933">
        <ele>93.39</ele>
        <time>2023-05-30T12:51:32Z</time>
      </trkpt>
      <trkpt lat="44.23885" lon="0.70943">
        <ele>94.35</ele>
        <time>2023-05-30T12:51:38Z</time>
      </trkpt>
      <trkpt lat="44.23878" lon="0.7095">
        <ele>95.31</ele>
        <time>2023-05-30T12:51:44Z</time>
      </trkpt>
      <trkpt lat="44.2387" lon="0.70959">
        <ele>96.27</ele>
        <time>2023-05-30T12:51:51Z</time>
      </trkpt>
      <trkpt lat="44.23863" lon="0.70969">
        <ele>96.75</ele>
        <time>2023-05-30T12:51:57Z</time>
      </trkpt>
      <trkpt lat="44.23855" lon="0.70977">
        <ele>97.71</ele>
        <time>2023-05-30T12:52:03Z</time>
      </trkpt>
      <trkpt lat="44.23848" lon="0.70987">
        <ele>97.23</ele>
        <time>2023-05-30T12:52:09Z</time>
      </trkpt>
      <trkpt lat="44.23842" lon="0.70996">
        <ele>97.23</ele>
        <time>2023-05-30T12:52:15Z</time>
      </trkpt>
      <trkpt lat="44.23836" lon="0.71005">
        <ele>97.23</ele>
        <time>2023-05-30T12:52:21Z</time>
      </trkpt>
      <trkpt lat="44.2383" lon="0.71014">
        <ele>97.71</ele>
        <time>2023-05-30T12:52:29Z</time>
      </trkpt>
      <trkpt lat="44.23823" lon="0.71022">
        <ele>97.23</ele>
        <time>2023-05-30T12:52:35Z</time>
      </trkpt>
      <trkpt lat="44.23816" lon="0.7103">
        <ele>97.71</ele>
        <time>2023-05-30T12:52:41Z</time>
      </trkpt>
      <trkpt lat="44.23807" lon="0.71036">
        <ele>98.19</ele>
        <time>2023-05-30T12:52:47Z</time>
      </trkpt>
      <trkpt lat="44.23797" lon="0.71041">
        <ele>98.19</ele>
        <time>2023-05-30T12:52:53Z</time>
      </trkpt>
      <trkpt lat="44.23788" lon="0.71046">
        <ele>97.71</ele>
        <time>2023-05-30T12:52:59Z</time>
      </trkpt>
      <trkpt lat="44.23779" lon="0.71051">
        <ele>98.19</ele>
        <time>2023-05-30T12:53:05Z</time>
      </trkpt>
      <trkpt lat="44.23769" lon="0.71055">
        <ele>98.67</ele>
        <time>2023-05-30T12:53:12Z</time>
      </trkpt>
      <trkpt lat="44.23759" lon="0.7106">
        <ele>99.15</ele>
        <time>2023-05-30T12:53:19Z</time>
      </trkpt>
      <trkpt lat="44.23749" lon="0.71066">
        <ele>98.67</ele>
        <time>2023-05-30T12:53:26Z</time>
      </trkpt>
      <trkpt lat="44.2374" lon="0.71073">
        <ele>99.15</ele>
        <time>2023-05-30T12:53:33Z</time>
      </trkpt>
      <trkpt lat="44.23728" lon="0.71079">
        <ele>99.15</ele>
        <time>2023-05-30T12:53:41Z</time>
      </trkpt>
      <trkpt lat="44.23718" lon="0.71084">
        <ele>100.11</ele>
        <time>2023-05-30T12:53:47Z</time>
      </trkpt>
      <trkpt lat="44.23709" lon="0.71087">
        <ele>101.56</ele>
        <time>2023-05-30T12:53:53Z</time>
      </trkpt>
      <trkpt lat="44.23698" lon="0.71091">
        <ele>103.96</ele>
        <time>2023-05-30T12:54:00Z</time>
      </trkpt>
      <trkpt lat="44.23689" lon="0.71097">
        <ele>104.92</ele>
        <time>2023-05-30T12:54:07Z</time>
      </trkpt>
      <trkpt lat="44.2368" lon="0.71103">
        <ele>105.4</ele>
        <time>2023-05-30T12:54:14Z</time>
      </trkpt>
      <trkpt lat="44.23671" lon="0.7111">
        <ele>106.36</ele>
        <time>2023-05-30T12:54:20Z</time>
      </trkpt>
      <trkpt lat="44.23663" lon="0.71116">
        <ele>106.84</ele>
        <time>2023-05-30T12:54:26Z</time>
      </trkpt>
      <trkpt lat="44.23654" lon="0.71124">
        <ele>106.84</ele>
        <time>2023-05-30T12:54:33Z</time>
      </trkpt>
      <trkpt lat="44.23646" lon="0.71131">
        <ele>106.84</ele>
        <time>2023-05-30T12:54:39Z</time>
      </trkpt>
      <trkpt lat="44.23637" lon="0.71137">
        <ele>106.84</ele>
        <time>2023-05-30T12:54:45Z</time>
      </trkpt>
      <trkpt lat="44.23628" lon="0.71144">
        <ele>107.32</ele>
        <time>2023-05-30T12:54:51Z</time>
      </trkpt>
      <trkpt lat="44.2362" lon="0.71152">
        <ele>107.81</ele>
        <time>2023-05-30T12:54:57Z</time>
      </trkpt>
      <trkpt lat="44.23613" lon="0.71161">
        <ele>107.81</ele>
        <time>2023-05-30T12:55:03Z</time>
      </trkpt>
      <trkpt lat="44.23605" lon="0.71171">
        <ele>108.77</ele>
        <time>2023-05-30T12:55:10Z</time>
      </trkpt>
      <trkpt lat="44.23599" lon="0.71181">
        <ele>111.17</ele>
        <time>2023-05-30T12:55:17Z</time>
      </trkpt>
      <trkpt lat="44.23592" lon="0.71192">
        <ele>111.65</ele>
        <time>2023-05-30T12:55:23Z</time>
      </trkpt>
      <trkpt lat="44.23584" lon="0.71199">
        <ele>112.61</ele>
        <time>2023-05-30T12:55:29Z</time>
      </trkpt>
      <trkpt lat="44.23576" lon="0.71206">
        <ele>113.09</ele>
        <time>2023-05-30T12:55:35Z</time>
      </trkpt>
      <trkpt lat="44.23567" lon="0.71214">
        <ele>112.61</ele>
        <time>2023-05-30T12:55:41Z</time>
      </trkpt>
      <trkpt lat="44.23558" lon="0.71222">
        <ele>113.09</ele>
        <time>2023-05-30T12:55:47Z</time>
      </trkpt>
      <trkpt lat="44.23551" lon="0.71231">
        <ele>113.09</ele>
        <time>2023-05-30T12:55:53Z</time>
      </trkpt>
      <trkpt lat="44.23543" lon="0.71241">
        <ele>114.05</ele>
        <time>2023-05-30T12:56:01Z</time>
      </trkpt>
      <trkpt lat="44.23534" lon="0.71251">
        <ele>114.53</ele>
        <time>2023-05-30T12:56:10Z</time>
      </trkpt>
      <trkpt lat="44.23523" lon="0.7126">
        <ele>115.5</ele>
        <time>2023-05-30T12:56:17Z</time>
      </trkpt>
      <trkpt lat="44.23511" lon="0.71271">
        <ele>116.46</ele>
        <time>2023-05-30T12:56:26Z</time>
      </trkpt>
      <trkpt lat="44.235" lon="0.71279">
        <ele>115.5</ele>
        <time>2023-05-30T12:56:35Z</time>
      </trkpt>
      <trkpt lat="44.23484" lon="0.71285">
        <ele>116.46</ele>
        <time>2023-05-30T12:56:45Z</time>
      </trkpt>
      <trkpt lat="44.23469" lon="0.71292">
        <ele>117.42</ele>
        <time>2023-05-30T12:56:54Z</time>
      </trkpt>
      <trkpt lat="44.2346" lon="0.71301">
        <ele>118.38</ele>
        <time>2023-05-30T12:57:02Z</time>
      </trkpt>
      <trkpt lat="44.2345" lon="0.7131">
        <ele>118.86</ele>
        <time>2023-05-30T12:57:09Z</time>
      </trkpt>
      <trkpt lat="44.2344" lon="0.7132">
        <ele>120.3</ele>
        <time>2023-05-30T12:57:17Z</time>
      </trkpt>
      <trkpt lat="44.23429" lon="0.71331">
        <ele>122.22</ele>
        <time>2023-05-30T12:57:25Z</time>
      </trkpt>
      <trkpt lat="44.23421" lon="0.71341">
        <ele>124.63</ele>
        <time>2023-05-30T12:57:33Z</time>
      </trkpt>
      <trkpt lat="44.23411" lon="0.71352">
        <ele>125.59</ele>
        <time>2023-05-30T12:57:41Z</time>
      </trkpt>
      <trkpt lat="44.23401" lon="0.71366">
        <ele>126.55</ele>
        <time>2023-05-30T12:57:50Z</time>
      </trkpt>
      <trkpt lat="44.23384" lon="0.71514">
        <ele>136.16</ele>
        <time>2023-05-30T12:59:17Z</time>
      </trkpt>
      <trkpt lat="44.23365" lon="0.71535">
        <ele>139.05</ele>
        <time>2023-05-30T12:59:38Z</time>
      </trkpt>
      <trkpt lat="44.23368" lon="0.71557">
        <ele>143.37</ele>
        <time>2023-05-30T12:59:56Z</time>
      </trkpt>
      <trkpt lat="44.23372" lon="0.71575">
        <ele>145.78</ele>
        <time>2023-05-30T13:00:04Z</time>
      </trkpt>
      <trkpt lat="44.2337" lon="0.71592">
        <ele>148.18</ele>
        <time>2023-05-30T13:00:12Z</time>
      </trkpt>
      <trkpt lat="44.23368" lon="0.71609">
        <ele>150.58</ele>
        <time>2023-05-30T13:00:21Z</time>
      </trkpt>
      <trkpt lat="44.23369" lon="0.71626">
        <ele>154.43</ele>
        <time>2023-05-30T13:00:30Z</time>
      </trkpt>
      <trkpt lat="44.23375" lon="0.71645">
        <ele>157.79</ele>
        <time>2023-05-30T13:00:39Z</time>
      </trkpt>
      <trkpt lat="44.23384" lon="0.71657">
        <ele>158.75</ele>
        <time>2023-05-30T13:00:47Z</time>
      </trkpt>
      <trkpt lat="44.23375" lon="0.71661">
        <ele>159.72</ele>
        <time>2023-05-30T13:01:07Z</time>
      </trkpt>
      <trkpt lat="44.23353" lon="0.71646">
        <ele>160.68</ele>
        <time>2023-05-30T13:02:00Z</time>
      </trkpt>
      <trkpt lat="44.23347" lon="0.71633">
        <ele>160.2</ele>
        <time>2023-05-30T13:02:10Z</time>
      </trkpt>
      <trkpt lat="44.23342" lon="0.71617">
        <ele>159.72</ele>
        <time>2023-05-30T13:02:19Z</time>
      </trkpt>
      <trkpt lat="44.23337" lon="0.71599">
        <ele>159.72</ele>
        <time>2023-05-30T13:02:28Z</time>
      </trkpt>
      <trkpt lat="44.23332" lon="0.71587">
        <ele>159.72</ele>
        <time>2023-05-30T13:02:35Z</time>
      </trkpt>
      <trkpt lat="44.23324" lon="0.71576">
        <ele>159.72</ele>
        <time>2023-05-30T13:02:42Z</time>
      </trkpt>
      <trkpt lat="44.23315" lon="0.71564">
        <ele>160.2</ele>
        <time>2023-05-30T13:02:50Z</time>
      </trkpt>
      <trkpt lat="44.23309" lon="0.71552">
        <ele>160.2</ele>
        <time>2023-05-30T13:02:58Z</time>
      </trkpt>
      <trkpt lat="44.23301" lon="0.71541">
        <ele>160.68</ele>
        <time>2023-05-30T13:03:06Z</time>
      </trkpt>
      <trkpt lat="44.23295" lon="0.71528">
        <ele>160.68</ele>
        <time>2023-05-30T13:03:15Z</time>
      </trkpt>
      <trkpt lat="44.2329" lon="0.71514">
        <ele>160.68</ele>
        <time>2023-05-30T13:03:23Z</time>
      </trkpt>
      <trkpt lat="44.23283" lon="0.71499">
        <ele>160.2</ele>
        <time>2023-05-30T13:03:31Z</time>
      </trkpt>
      <trkpt lat="44.23277" lon="0.71482">
        <ele>159.72</ele>
        <time>2023-05-30T13:03:41Z</time>
      </trkpt>
      <trkpt lat="44.23271" lon="0.71466">
        <ele>158.27</ele>
        <time>2023-05-30T13:03:50Z</time>
      </trkpt>
      <trkpt lat="44.23266" lon="0.71448">
        <ele>157.31</ele>
        <time>2023-05-30T13:03:58Z</time>
      </trkpt>
      <trkpt lat="44.23262" lon="0.71433">
        <ele>155.39</ele>
        <time>2023-05-30T13:04:05Z</time>
      </trkpt>
      <trkpt lat="44.23257" lon="0.71416">
        <ele>153.47</ele>
        <time>2023-05-30T13:04:13Z</time>
      </trkpt>
      <trkpt lat="44.23252" lon="0.714">
        <ele>153.95</ele>
        <time>2023-05-30T13:04:20Z</time>
      </trkpt>
      <trkpt lat="44.23247" lon="0.71385">
        <ele>155.87</ele>
        <time>2023-05-30T13:04:28Z</time>
      </trkpt>
      <trkpt lat="44.23235" lon="0.71386">
        <ele>159.72</ele>
        <time>2023-05-30T13:04:35Z</time>
      </trkpt>
      <trkpt lat="44.23225" lon="0.71388">
        <ele>162.12</ele>
        <time>2023-05-30T13:04:41Z</time>
      </trkpt>
      <trkpt lat="44.23216" lon="0.71393">
        <ele>163.56</ele>
        <time>2023-05-30T13:04:49Z</time>
      </trkpt>
      <trkpt lat="44.23206" lon="0.71395">
        <ele>165</ele>
        <time>2023-05-30T13:04:55Z</time>
      </trkpt>
      <trkpt lat="44.23196" lon="0.71397">
        <ele>165.96</ele>
        <time>2023-05-30T13:05:01Z</time>
      </trkpt>
      <trkpt lat="44.23186" lon="0.71397">
        <ele>166.45</ele>
        <time>2023-05-30T13:05:07Z</time>
      </trkpt>
      <trkpt lat="44.23176" lon="0.71399">
        <ele>167.41</ele>
        <time>2023-05-30T13:05:15Z</time>
      </trkpt>
      <trkpt lat="44.23166" lon="0.71401">
        <ele>167.89</ele>
        <time>2023-05-30T13:05:21Z</time>
      </trkpt>
      <trkpt lat="44.23156" lon="0.71401">
        <ele>168.37</ele>
        <time>2023-05-30T13:05:27Z</time>
      </trkpt>
      <trkpt lat="44.23146" lon="0.714">
        <ele>169.33</ele>
        <time>2023-05-30T13:05:33Z</time>
      </trkpt>
      <trkpt lat="44.23136" lon="0.71399">
        <ele>169.81</ele>
        <time>2023-05-30T13:05:39Z</time>
      </trkpt>
      <trkpt lat="44.23127" lon="0.71399">
        <ele>169.81</ele>
        <time>2023-05-30T13:05:45Z</time>
      </trkpt>
      <trkpt lat="44.23117" lon="0.71399">
        <ele>169.33</ele>
        <time>2023-05-30T13:05:52Z</time>
      </trkpt>
      <trkpt lat="44.23107" lon="0.714">
        <ele>168.37</ele>
        <time>2023-05-30T13:05:59Z</time>
      </trkpt>
      <trkpt lat="44.23097" lon="0.71403">
        <ele>166.45</ele>
        <time>2023-05-30T13:06:06Z</time>
      </trkpt>
      <trkpt lat="44.23089" lon="0.7141">
        <ele>165</ele>
        <time>2023-05-30T13:06:13Z</time>
      </trkpt>
      <trkpt lat="44.23081" lon="0.71416">
        <ele>163.56</ele>
        <time>2023-05-30T13:06:20Z</time>
      </trkpt>
      <trkpt lat="44.2307" lon="0.7142">
        <ele>162.12</ele>
        <time>2023-05-30T13:06:27Z</time>
      </trkpt>
      <trkpt lat="44.2306" lon="0.71423">
        <ele>160.68</ele>
        <time>2023-05-30T13:06:34Z</time>
      </trkpt>
      <trkpt lat="44.2305" lon="0.71427">
        <ele>158.75</ele>
        <time>2023-05-30T13:06:41Z</time>
      </trkpt>
      <trkpt lat="44.23041" lon="0.71433">
        <ele>157.79</ele>
        <time>2023-05-30T13:06:48Z</time>
      </trkpt>
      <trkpt lat="44.23031" lon="0.71439">
        <ele>156.83</ele>
        <time>2023-05-30T13:06:55Z</time>
      </trkpt>
      <trkpt lat="44.23023" lon="0.71436">
        <ele>155.87</ele>
        <time>2023-05-30T13:07:03Z</time>
      </trkpt>
      <trkpt lat="44.2302" lon="0.71422">
        <ele>154.43</ele>
        <time>2023-05-30T13:07:12Z</time>
      </trkpt>
      <trkpt lat="44.23014" lon="0.71419">
        <ele>150.58</ele>
        <time>2023-05-30T13:07:29Z</time>
      </trkpt>
      <trkpt lat="44.23017" lon="0.71433">
        <ele>150.1</ele>
        <time>2023-05-30T13:07:37Z</time>
      </trkpt>
      <trkpt lat="44.23019" lon="0.71451">
        <ele>148.66</ele>
        <time>2023-05-30T13:07:46Z</time>
      </trkpt>
      <trkpt lat="44.23017" lon="0.71469">
        <ele>147.22</ele>
        <time>2023-05-30T13:07:56Z</time>
      </trkpt>
      <trkpt lat="44.23014" lon="0.71488">
        <ele>145.78</ele>
        <time>2023-05-30T13:08:05Z</time>
      </trkpt>
      <trkpt lat="44.23012" lon="0.71506">
        <ele>144.34</ele>
        <time>2023-05-30T13:08:13Z</time>
      </trkpt>
      <trkpt lat="44.2301" lon="0.71522">
        <ele>142.41</ele>
        <time>2023-05-30T13:08:21Z</time>
      </trkpt>
      <trkpt lat="44.23008" lon="0.7154">
        <ele>139.53</ele>
        <time>2023-05-30T13:08:30Z</time>
      </trkpt>
      <trkpt lat="44.23006" lon="0.71555">
        <ele>138.09</ele>
        <time>2023-05-30T13:08:37Z</time>
      </trkpt>
      <trkpt lat="44.23005" lon="0.71571">
        <ele>136.64</ele>
        <time>2023-05-30T13:08:44Z</time>
      </trkpt>
      <trkpt lat="44.23005" lon="0.71587">
        <ele>134.72</ele>
        <time>2023-05-30T13:08:52Z</time>
      </trkpt>
      <trkpt lat="44.23005" lon="0.71602">
        <ele>133.76</ele>
        <time>2023-05-30T13:08:59Z</time>
      </trkpt>
      <trkpt lat="44.23008" lon="0.71616">
        <ele>133.28</ele>
        <time>2023-05-30T13:09:06Z</time>
      </trkpt>
      <trkpt lat="44.23012" lon="0.71631">
        <ele>131.84</ele>
        <time>2023-05-30T13:09:13Z</time>
      </trkpt>
      <trkpt lat="44.23017" lon="0.71647">
        <ele>129.43</ele>
        <time>2023-05-30T13:09:22Z</time>
      </trkpt>
      <trkpt lat="44.23021" lon="0.71663">
        <ele>125.59</ele>
        <time>2023-05-30T13:09:30Z</time>
      </trkpt>
      <trkpt lat="44.23022" lon="0.71678">
        <ele>123.67</ele>
        <time>2023-05-30T13:09:38Z</time>
      </trkpt>
      <trkpt lat="44.2302" lon="0.71696">
        <ele>122.22</ele>
        <time>2023-05-30T13:09:46Z</time>
      </trkpt>
      <trkpt lat="44.23015" lon="0.71718">
        <ele>120.3</ele>
        <time>2023-05-30T13:09:56Z</time>
      </trkpt>
      <trkpt lat="44.23008" lon="0.71731">
        <ele>120.3</ele>
        <time>2023-05-30T13:10:04Z</time>
      </trkpt>
      <trkpt lat="44.23" lon="0.71741">
        <ele>119.82</ele>
        <time>2023-05-30T13:10:11Z</time>
      </trkpt>
      <trkpt lat="44.2299" lon="0.71748">
        <ele>118.86</ele>
        <time>2023-05-30T13:10:18Z</time>
      </trkpt>
      <trkpt lat="44.2298" lon="0.71753">
        <ele>118.38</ele>
        <time>2023-05-30T13:10:25Z</time>
      </trkpt>
      <trkpt lat="44.22971" lon="0.7176">
        <ele>118.38</ele>
        <time>2023-05-30T13:10:32Z</time>
      </trkpt>
      <trkpt lat="44.22962" lon="0.71768">
        <ele>118.38</ele>
        <time>2023-05-30T13:10:39Z</time>
      </trkpt>
      <trkpt lat="44.22952" lon="0.71774">
        <ele>119.34</ele>
        <time>2023-05-30T13:10:46Z</time>
      </trkpt>
      <trkpt lat="44.22942" lon="0.71782">
        <ele>120.78</ele>
        <time>2023-05-30T13:10:53Z</time>
      </trkpt>
      <trkpt lat="44.22933" lon="0.71787">
        <ele>122.22</ele>
        <time>2023-05-30T13:10:59Z</time>
      </trkpt>
      <trkpt lat="44.22925" lon="0.71793">
        <ele>123.19</ele>
        <time>2023-05-30T13:11:05Z</time>
      </trkpt>
      <trkpt lat="44.22917" lon="0.718">
        <ele>124.15</ele>
        <time>2023-05-30T13:11:11Z</time>
      </trkpt>
      <trkpt lat="44.22907" lon="0.71807">
        <ele>125.59</ele>
        <time>2023-05-30T13:11:18Z</time>
      </trkpt>
      <trkpt lat="44.22898" lon="0.71814">
        <ele>126.55</ele>
        <time>2023-05-30T13:11:25Z</time>
      </trkpt>
      <trkpt lat="44.2289" lon="0.71822">
        <ele>127.99</ele>
        <time>2023-05-30T13:11:32Z</time>
      </trkpt>
      <trkpt lat="44.22882" lon="0.71829">
        <ele>128.95</ele>
        <time>2023-05-30T13:11:38Z</time>
      </trkpt>
      <trkpt lat="44.22875" lon="0.71836">
        <ele>129.43</ele>
        <time>2023-05-30T13:11:44Z</time>
      </trkpt>
      <trkpt lat="44.22868" lon="0.71844">
        <ele>130.4</ele>
        <time>2023-05-30T13:11:50Z</time>
      </trkpt>
      <trkpt lat="44.22859" lon="0.71851">
        <ele>131.36</ele>
        <time>2023-05-30T13:11:57Z</time>
      </trkpt>
      <trkpt lat="44.22851" lon="0.71857">
        <ele>133.28</ele>
        <time>2023-05-30T13:12:03Z</time>
      </trkpt>
      <trkpt lat="44.22841" lon="0.71863">
        <ele>135.68</ele>
        <time>2023-05-30T13:12:11Z</time>
      </trkpt>
      <trkpt lat="44.22831" lon="0.71868">
        <ele>137.13</ele>
        <time>2023-05-30T13:12:18Z</time>
      </trkpt>
      <trkpt lat="44.22821" lon="0.71874">
        <ele>139.05</ele>
        <time>2023-05-30T13:12:26Z</time>
      </trkpt>
      <trkpt lat="44.22813" lon="0.71883">
        <ele>141.93</ele>
        <time>2023-05-30T13:12:34Z</time>
      </trkpt>
      <trkpt lat="44.22808" lon="0.71897">
        <ele>143.85</ele>
        <time>2023-05-30T13:12:42Z</time>
      </trkpt>
      <trkpt lat="44.22803" lon="0.71912">
        <ele>145.3</ele>
        <time>2023-05-30T13:12:49Z</time>
      </trkpt>
      <trkpt lat="44.22798" lon="0.71925">
        <ele>146.26</ele>
        <time>2023-05-30T13:12:56Z</time>
      </trkpt>
      <trkpt lat="44.22793" lon="0.71938">
        <ele>147.7</ele>
        <time>2023-05-30T13:13:05Z</time>
      </trkpt>
      <trkpt lat="44.22788" lon="0.71952">
        <ele>148.18</ele>
        <time>2023-05-30T13:13:13Z</time>
      </trkpt>
      <trkpt lat="44.2278" lon="0.71967">
        <ele>149.14</ele>
        <time>2023-05-30T13:13:20Z</time>
      </trkpt>
      <trkpt lat="44.2277" lon="0.71975">
        <ele>150.58</ele>
        <time>2023-05-30T13:13:27Z</time>
      </trkpt>
      <trkpt lat="44.22762" lon="0.71967">
        <ele>151.54</ele>
        <time>2023-05-30T13:13:35Z</time>
      </trkpt>
      <trkpt lat="44.22757" lon="0.71957">
        <ele>152.51</ele>
        <time>2023-05-30T13:13:41Z</time>
      </trkpt>
      <trkpt lat="44.22749" lon="0.71951">
        <ele>153.95</ele>
        <time>2023-05-30T13:13:49Z</time>
      </trkpt>
      <trkpt lat="44.22737" lon="0.71947">
        <ele>156.35</ele>
        <time>2023-05-30T13:13:58Z</time>
      </trkpt>
      <trkpt lat="44.22723" lon="0.71943">
        <ele>157.79</ele>
        <time>2023-05-30T13:14:06Z</time>
      </trkpt>
      <trkpt lat="44.22712" lon="0.71948">
        <ele>158.75</ele>
        <time>2023-05-30T13:14:14Z</time>
      </trkpt>
      <trkpt lat="44.22704" lon="0.71958">
        <ele>159.72</ele>
        <time>2023-05-30T13:14:21Z</time>
      </trkpt>
      <trkpt lat="44.22697" lon="0.71966">
        <ele>160.2</ele>
        <time>2023-05-30T13:14:27Z</time>
      </trkpt>
      <trkpt lat="44.22689" lon="0.71976">
        <ele>160.2</ele>
        <time>2023-05-30T13:14:34Z</time>
      </trkpt>
      <trkpt lat="44.22682" lon="0.71985">
        <ele>161.16</ele>
        <time>2023-05-30T13:14:40Z</time>
      </trkpt>
      <trkpt lat="44.22674" lon="0.71993">
        <ele>161.64</ele>
        <time>2023-05-30T13:14:47Z</time>
      </trkpt>
      <trkpt lat="44.22665" lon="0.72001">
        <ele>162.12</ele>
        <time>2023-05-30T13:14:54Z</time>
      </trkpt>
      <trkpt lat="44.22658" lon="0.7201">
        <ele>162.6</ele>
        <time>2023-05-30T13:15:00Z</time>
      </trkpt>
      <trkpt lat="44.22651" lon="0.72019">
        <ele>162.6</ele>
        <time>2023-05-30T13:15:07Z</time>
      </trkpt>
      <trkpt lat="44.22646" lon="0.7203">
        <ele>163.08</ele>
        <time>2023-05-30T13:15:14Z</time>
      </trkpt>
      <trkpt lat="44.22642" lon="0.72043">
        <ele>163.56</ele>
        <time>2023-05-30T13:15:20Z</time>
      </trkpt>
      <trkpt lat="44.22638" lon="0.72056">
        <ele>163.56</ele>
        <time>2023-05-30T13:15:27Z</time>
      </trkpt>
      <trkpt lat="44.22633" lon="0.72069">
        <ele>163.56</ele>
        <time>2023-05-30T13:15:35Z</time>
      </trkpt>
      <trkpt lat="44.22623" lon="0.72064">
        <ele>161.64</ele>
        <time>2023-05-30T13:16:07Z</time>
      </trkpt>
      <trkpt lat="44.22616" lon="0.72052">
        <ele>162.12</ele>
        <time>2023-05-30T13:16:16Z</time>
      </trkpt>
      <trkpt lat="44.22608" lon="0.72039">
        <ele>162.12</ele>
        <time>2023-05-30T13:16:20Z</time>
      </trkpt>
      <trkpt lat="44.226" lon="0.72025">
        <ele>162.12</ele>
        <time>2023-05-30T13:16:23Z</time>
      </trkpt>
      <trkpt lat="44.22594" lon="0.72014">
        <ele>162.12</ele>
        <time>2023-05-30T13:16:25Z</time>
      </trkpt>
      <trkpt lat="44.22589" lon="0.72002">
        <ele>162.6</ele>
        <time>2023-05-30T13:16:27Z</time>
      </trkpt>
      <trkpt lat="44.22582" lon="0.71989">
        <ele>163.56</ele>
        <time>2023-05-30T13:16:29Z</time>
      </trkpt>
      <trkpt lat="44.22576" lon="0.71976">
        <ele>164.52</ele>
        <time>2023-05-30T13:16:31Z</time>
      </trkpt>
      <trkpt lat="44.2257" lon="0.71962">
        <ele>165</ele>
        <time>2023-05-30T13:16:33Z</time>
      </trkpt>
      <trkpt lat="44.22563" lon="0.7195">
        <ele>165.48</ele>
        <time>2023-05-30T13:16:35Z</time>
      </trkpt>
      <trkpt lat="44.22555" lon="0.71938">
        <ele>166.45</ele>
        <time>2023-05-30T13:16:37Z</time>
      </trkpt>
      <trkpt lat="44.22546" lon="0.71927">
        <ele>166.93</ele>
        <time>2023-05-30T13:16:39Z</time>
      </trkpt>
      <trkpt lat="44.22537" lon="0.71917">
        <ele>167.89</ele>
        <time>2023-05-30T13:16:41Z</time>
      </trkpt>
      <trkpt lat="44.22528" lon="0.71909">
        <ele>168.85</ele>
        <time>2023-05-30T13:16:43Z</time>
      </trkpt>
      <trkpt lat="44.22518" lon="0.71902">
        <ele>169.81</ele>
        <time>2023-05-30T13:16:45Z</time>
      </trkpt>
      <trkpt lat="44.22507" lon="0.71896">
        <ele>170.77</ele>
        <time>2023-05-30T13:16:47Z</time>
      </trkpt>
      <trkpt lat="44.22497" lon="0.71891">
        <ele>171.73</ele>
        <time>2023-05-30T13:16:49Z</time>
      </trkpt>
      <trkpt lat="44.22487" lon="0.71886">
        <ele>173.17</ele>
        <time>2023-05-30T13:16:51Z</time>
      </trkpt>
      <trkpt lat="44.22478" lon="0.71882">
        <ele>174.62</ele>
        <time>2023-05-30T13:16:53Z</time>
      </trkpt>
      <trkpt lat="44.22469" lon="0.71879">
        <ele>176.06</ele>
        <time>2023-05-30T13:16:56Z</time>
      </trkpt>
      <trkpt lat="44.22459" lon="0.71879">
        <ele>177.5</ele>
        <time>2023-05-30T13:16:59Z</time>
      </trkpt>
      <trkpt lat="44.22451" lon="0.71885">
        <ele>178.94</ele>
        <time>2023-05-30T13:17:02Z</time>
      </trkpt>
      <trkpt lat="44.22443" lon="0.71895">
        <ele>179.9</ele>
        <time>2023-05-30T13:17:05Z</time>
      </trkpt>
      <trkpt lat="44.22437" lon="0.71905">
        <ele>181.35</ele>
        <time>2023-05-30T13:17:08Z</time>
      </trkpt>
      <trkpt lat="44.2243" lon="0.71917">
        <ele>182.31</ele>
        <time>2023-05-30T13:17:14Z</time>
      </trkpt>
      <trkpt lat="44.22424" lon="0.71927">
        <ele>182.79</ele>
        <time>2023-05-30T13:17:21Z</time>
      </trkpt>
      <trkpt lat="44.22417" lon="0.71937">
        <ele>182.79</ele>
        <time>2023-05-30T13:17:28Z</time>
      </trkpt>
      <trkpt lat="44.22411" lon="0.71947">
        <ele>183.27</ele>
        <time>2023-05-30T13:17:35Z</time>
      </trkpt>
      <trkpt lat="44.22405" lon="0.71958">
        <ele>182.79</ele>
        <time>2023-05-30T13:17:42Z</time>
      </trkpt>
      <trkpt lat="44.22399" lon="0.71968">
        <ele>182.31</ele>
        <time>2023-05-30T13:17:50Z</time>
      </trkpt>
      <trkpt lat="44.22392" lon="0.71977">
        <ele>182.31</ele>
        <time>2023-05-30T13:17:57Z</time>
      </trkpt>
      <trkpt lat="44.22386" lon="0.71988">
        <ele>181.83</ele>
        <time>2023-05-30T13:18:05Z</time>
      </trkpt>
      <trkpt lat="44.2238" lon="0.71999">
        <ele>181.83</ele>
        <time>2023-05-30T13:18:12Z</time>
      </trkpt>
      <trkpt lat="44.22374" lon="0.7201">
        <ele>181.83</ele>
        <time>2023-05-30T13:18:19Z</time>
      </trkpt>
      <trkpt lat="44.22369" lon="0.72019">
        <ele>181.83</ele>
        <time>2023-05-30T13:18:26Z</time>
      </trkpt>
      <trkpt lat="44.22361" lon="0.72013">
        <ele>181.35</ele>
        <time>2023-05-30T13:18:34Z</time>
      </trkpt>
      <trkpt lat="44.22355" lon="0.72003">
        <ele>179.9</ele>
        <time>2023-05-30T13:18:40Z</time>
      </trkpt>
      <trkpt lat="44.2235" lon="0.71991">
        <ele>178.94</ele>
        <time>2023-05-30T13:18:47Z</time>
      </trkpt>
      <trkpt lat="44.22344" lon="0.7198">
        <ele>177.98</ele>
        <time>2023-05-30T13:18:54Z</time>
      </trkpt>
      <trkpt lat="44.22338" lon="0.71968">
        <ele>176.54</ele>
        <time>2023-05-30T13:19:01Z</time>
      </trkpt>
      <trkpt lat="44.22331" lon="0.71956">
        <ele>175.58</ele>
        <time>2023-05-30T13:19:08Z</time>
      </trkpt>
      <trkpt lat="44.22326" lon="0.71945">
        <ele>174.62</ele>
        <time>2023-05-30T13:19:14Z</time>
      </trkpt>
      <trkpt lat="44.2232" lon="0.71934">
        <ele>173.17</ele>
        <time>2023-05-30T13:19:21Z</time>
      </trkpt>
      <trkpt lat="44.22314" lon="0.71923">
        <ele>171.73</ele>
        <time>2023-05-30T13:19:27Z</time>
      </trkpt>
      <trkpt lat="44.22309" lon="0.71911">
        <ele>170.29</ele>
        <time>2023-05-30T13:19:33Z</time>
      </trkpt>
      <trkpt lat="44.22304" lon="0.71901">
        <ele>168.85</ele>
        <time>2023-05-30T13:19:39Z</time>
      </trkpt>
      <trkpt lat="44.22298" lon="0.71889">
        <ele>168.37</ele>
        <time>2023-05-30T13:19:46Z</time>
      </trkpt>
      <trkpt lat="44.22292" lon="0.71878">
        <ele>167.41</ele>
        <time>2023-05-30T13:19:52Z</time>
      </trkpt>
      <trkpt lat="44.22286" lon="0.71868">
        <ele>166.93</ele>
        <time>2023-05-30T13:19:58Z</time>
      </trkpt>
      <trkpt lat="44.2228" lon="0.71855">
        <ele>165.96</ele>
        <time>2023-05-30T13:20:05Z</time>
      </trkpt>
      <trkpt lat="44.22274" lon="0.71845">
        <ele>165.48</ele>
        <time>2023-05-30T13:20:11Z</time>
      </trkpt>
      <trkpt lat="44.22268" lon="0.71834">
        <ele>165</ele>
        <time>2023-05-30T13:20:17Z</time>
      </trkpt>
      <trkpt lat="44.22263" lon="0.71823">
        <ele>164.52</ele>
        <time>2023-05-30T13:20:23Z</time>
      </trkpt>
      <trkpt lat="44.22257" lon="0.71812">
        <ele>164.52</ele>
        <time>2023-05-30T13:20:30Z</time>
      </trkpt>
      <trkpt lat="44.22251" lon="0.71802">
        <ele>164.52</ele>
        <time>2023-05-30T13:20:36Z</time>
      </trkpt>
      <trkpt lat="44.22245" lon="0.7179">
        <ele>164.52</ele>
        <time>2023-05-30T13:20:43Z</time>
      </trkpt>
      <trkpt lat="44.22239" lon="0.71777">
        <ele>164.52</ele>
        <time>2023-05-30T13:20:50Z</time>
      </trkpt>
      <trkpt lat="44.22233" lon="0.71766">
        <ele>164.52</ele>
        <time>2023-05-30T13:20:57Z</time>
      </trkpt>
      <trkpt lat="44.22227" lon="0.71755">
        <ele>164.04</ele>
        <time>2023-05-30T13:21:04Z</time>
      </trkpt>
      <trkpt lat="44.2222" lon="0.71743">
        <ele>163.08</ele>
        <time>2023-05-30T13:21:11Z</time>
      </trkpt>
      <trkpt lat="44.22213" lon="0.71734">
        <ele>161.64</ele>
        <time>2023-05-30T13:21:17Z</time>
      </trkpt>
      <trkpt lat="44.22206" lon="0.71723">
        <ele>160.2</ele>
        <time>2023-05-30T13:21:24Z</time>
      </trkpt>
      <trkpt lat="44.22199" lon="0.71712">
        <ele>159.24</ele>
        <time>2023-05-30T13:21:31Z</time>
      </trkpt>
      <trkpt lat="44.22192" lon="0.71702">
        <ele>158.27</ele>
        <time>2023-05-30T13:21:38Z</time>
      </trkpt>
      <trkpt lat="44.22184" lon="0.71692">
        <ele>158.27</ele>
        <time>2023-05-30T13:21:45Z</time>
      </trkpt>
      <trkpt lat="44.22178" lon="0.71678">
        <ele>160.2</ele>
        <time>2023-05-30T13:21:58Z</time>
      </trkpt>
      <trkpt lat="44.22171" lon="0.71669">
        <ele>159.24</ele>
        <time>2023-05-30T13:22:07Z</time>
      </trkpt>
      <trkpt lat="44.22164" lon="0.71656">
        <ele>159.24</ele>
        <time>2023-05-30T13:22:14Z</time>
      </trkpt>
      <trkpt lat="44.22156" lon="0.71641">
        <ele>158.75</ele>
        <time>2023-05-30T13:22:26Z</time>
      </trkpt>
      <trkpt lat="44.22149" lon="0.71627">
        <ele>158.75</ele>
        <time>2023-05-30T13:22:34Z</time>
      </trkpt>
      <trkpt lat="44.22141" lon="0.71613">
        <ele>158.75</ele>
        <time>2023-05-30T13:22:42Z</time>
      </trkpt>
      <trkpt lat="44.22134" lon="0.71594">
        <ele>158.27</ele>
        <time>2023-05-30T13:22:52Z</time>
      </trkpt>
      <trkpt lat="44.22121" lon="0.71576">
        <ele>154.91</ele>
        <time>2023-05-30T13:23:12Z</time>
      </trkpt>
      <trkpt lat="44.21958" lon="0.71587">
        <ele>171.73</ele>
        <time>2023-05-30T13:25:06Z</time>
      </trkpt>
      <trkpt lat="44.21932" lon="0.71564">
        <ele>174.62</ele>
        <time>2023-05-30T13:25:37Z</time>
      </trkpt>
      <trkpt lat="44.21939" lon="0.7149">
        <ele>161.16</ele>
        <time>2023-05-30T13:26:22Z</time>
      </trkpt>
      <trkpt lat="44.2195" lon="0.71417">
        <ele>145.78</ele>
        <time>2023-05-30T13:27:02Z</time>
      </trkpt>
      <trkpt lat="44.21951" lon="0.71393">
        <ele>144.34</ele>
        <time>2023-05-30T13:27:13Z</time>
      </trkpt>
      <trkpt lat="44.21954" lon="0.71378">
        <ele>144.82</ele>
        <time>2023-05-30T13:27:20Z</time>
      </trkpt>
      <trkpt lat="44.21957" lon="0.71356">
        <ele>146.26</ele>
        <time>2023-05-30T13:27:32Z</time>
      </trkpt>
      <trkpt lat="44.21978" lon="0.71307">
        <ele>145.78</ele>
        <time>2023-05-30T13:28:01Z</time>
      </trkpt>
      <trkpt lat="44.21988" lon="0.71222">
        <ele>133.28</ele>
        <time>2023-05-30T13:28:45Z</time>
      </trkpt>
      <trkpt lat="44.21982" lon="0.71195">
        <ele>121.26</ele>
        <time>2023-05-30T13:29:02Z</time>
      </trkpt>
      <trkpt lat="44.21977" lon="0.71145">
        <ele>98.19</ele>
        <time>2023-05-30T13:29:35Z</time>
      </trkpt>
      <trkpt lat="44.21982" lon="0.71116">
        <ele>101.08</ele>
        <time>2023-05-30T13:29:47Z</time>
      </trkpt>
      <trkpt lat="44.21988" lon="0.71087">
        <ele>100.11</ele>
        <time>2023-05-30T13:30:05Z</time>
      </trkpt>
      <trkpt lat="44.21993" lon="0.71066">
        <ele>103.96</ele>
        <time>2023-05-30T13:30:14Z</time>
      </trkpt>
      <trkpt lat="44.21997" lon="0.71048">
        <ele>106.84</ele>
        <time>2023-05-30T13:30:22Z</time>
      </trkpt>
      <trkpt lat="44.22002" lon="0.71029">
        <ele>108.29</ele>
        <time>2023-05-30T13:30:31Z</time>
      </trkpt>
      <trkpt lat="44.22009" lon="0.71009">
        <ele>109.73</ele>
        <time>2023-05-30T13:30:40Z</time>
      </trkpt>
      <trkpt lat="44.22012" lon="0.70995">
        <ele>110.69</ele>
        <time>2023-05-30T13:30:48Z</time>
      </trkpt>
      <trkpt lat="44.22021" lon="0.70975">
        <ele>113.09</ele>
        <time>2023-05-30T13:30:59Z</time>
      </trkpt>
      <trkpt lat="44.22027" lon="0.7096">
        <ele>112.61</ele>
        <time>2023-05-30T13:31:08Z</time>
      </trkpt>
      <trkpt lat="44.22052" lon="0.70913">
        <ele>106.84</ele>
        <time>2023-05-30T13:31:39Z</time>
      </trkpt>
      <trkpt lat="44.22058" lon="0.70892">
        <ele>102.52</ele>
        <time>2023-05-30T13:31:52Z</time>
      </trkpt>
      <trkpt lat="44.22067" lon="0.70779">
        <ele>106.36</ele>
        <time>2023-05-30T13:35:04Z</time>
      </trkpt>
      <trkpt lat="44.22074" lon="0.70756">
        <ele>103</ele>
        <time>2023-05-30T13:35:21Z</time>
      </trkpt>
      <trkpt lat="44.22066" lon="0.70746">
        <ele>101.56</ele>
        <time>2023-05-30T13:35:29Z</time>
      </trkpt>
      <trkpt lat="44.22057" lon="0.70741">
        <ele>101.08</ele>
        <time>2023-05-30T13:35:37Z</time>
      </trkpt>
      <trkpt lat="44.22046" lon="0.70736">
        <ele>100.6</ele>
        <time>2023-05-30T13:35:45Z</time>
      </trkpt>
      <trkpt lat="44.22035" lon="0.70732">
        <ele>100.11</ele>
        <time>2023-05-30T13:35:52Z</time>
      </trkpt>
      <trkpt lat="44.22024" lon="0.70731">
        <ele>99.63</ele>
        <time>2023-05-30T13:35:59Z</time>
      </trkpt>
      <trkpt lat="44.22012" lon="0.70729">
        <ele>99.63</ele>
        <time>2023-05-30T13:36:06Z</time>
      </trkpt>
      <trkpt lat="44.22" lon="0.70729">
        <ele>99.63</ele>
        <time>2023-05-30T13:36:13Z</time>
      </trkpt>
      <trkpt lat="44.21989" lon="0.70731">
        <ele>99.15</ele>
        <time>2023-05-30T13:36:20Z</time>
      </trkpt>
      <trkpt lat="44.21979" lon="0.70734">
        <ele>99.15</ele>
        <time>2023-05-30T13:36:27Z</time>
      </trkpt>
      <trkpt lat="44.21968" lon="0.70736">
        <ele>99.63</ele>
        <time>2023-05-30T13:36:35Z</time>
      </trkpt>
      <trkpt lat="44.21958" lon="0.70738">
        <ele>99.63</ele>
        <time>2023-05-30T13:36:42Z</time>
      </trkpt>
      <trkpt lat="44.21947" lon="0.70741">
        <ele>100.11</ele>
        <time>2023-05-30T13:36:50Z</time>
      </trkpt>
      <trkpt lat="44.21934" lon="0.70744">
        <ele>100.11</ele>
        <time>2023-05-30T13:36:58Z</time>
      </trkpt>
      <trkpt lat="44.21923" lon="0.70746">
        <ele>100.6</ele>
        <time>2023-05-30T13:37:05Z</time>
      </trkpt>
      <trkpt lat="44.21912" lon="0.70748">
        <ele>101.08</ele>
        <time>2023-05-30T13:37:11Z</time>
      </trkpt>
      <trkpt lat="44.21903" lon="0.70751">
        <ele>101.08</ele>
        <time>2023-05-30T13:37:17Z</time>
      </trkpt>
      <trkpt lat="44.21894" lon="0.70753">
        <ele>101.08</ele>
        <time>2023-05-30T13:37:23Z</time>
      </trkpt>
      <trkpt lat="44.21885" lon="0.70754">
        <ele>100.6</ele>
        <time>2023-05-30T13:37:29Z</time>
      </trkpt>
      <trkpt lat="44.21874" lon="0.70756">
        <ele>100.6</ele>
        <time>2023-05-30T13:37:36Z</time>
      </trkpt>
      <trkpt lat="44.21865" lon="0.70758">
        <ele>100.6</ele>
        <time>2023-05-30T13:37:42Z</time>
      </trkpt>
      <trkpt lat="44.21855" lon="0.70759">
        <ele>101.08</ele>
        <time>2023-05-30T13:37:49Z</time>
      </trkpt>
      <trkpt lat="44.21844" lon="0.70759">
        <ele>101.08</ele>
        <time>2023-05-30T13:37:56Z</time>
      </trkpt>
      <trkpt lat="44.21836" lon="0.70753">
        <ele>101.08</ele>
        <time>2023-05-30T13:38:02Z</time>
      </trkpt>
      <trkpt lat="44.21833" lon="0.7074">
        <ele>100.11</ele>
        <time>2023-05-30T13:38:08Z</time>
      </trkpt>
      <trkpt lat="44.21832" lon="0.70726">
        <ele>100.11</ele>
        <time>2023-05-30T13:38:14Z</time>
      </trkpt>
      <trkpt lat="44.21831" lon="0.70713">
        <ele>100.11</ele>
        <time>2023-05-30T13:38:20Z</time>
      </trkpt>
      <trkpt lat="44.21831" lon="0.70699">
        <ele>100.6</ele>
        <time>2023-05-30T13:38:26Z</time>
      </trkpt>
      <trkpt lat="44.21831" lon="0.70686">
        <ele>101.08</ele>
        <time>2023-05-30T13:38:33Z</time>
      </trkpt>
      <trkpt lat="44.21832" lon="0.7067">
        <ele>101.08</ele>
        <time>2023-05-30T13:38:40Z</time>
      </trkpt>
      <trkpt lat="44.21833" lon="0.70656">
        <ele>101.08</ele>
        <time>2023-05-30T13:38:47Z</time>
      </trkpt>
      <trkpt lat="44.21832" lon="0.70641">
        <ele>101.56</ele>
        <time>2023-05-30T13:38:54Z</time>
      </trkpt>
      <trkpt lat="44.21832" lon="0.70627">
        <ele>102.04</ele>
        <time>2023-05-30T13:39:00Z</time>
      </trkpt>
      <trkpt lat="44.2183" lon="0.70613">
        <ele>103</ele>
        <time>2023-05-30T13:39:06Z</time>
      </trkpt>
      <trkpt lat="44.21828" lon="0.70599">
        <ele>103.96</ele>
        <time>2023-05-30T13:39:13Z</time>
      </trkpt>
      <trkpt lat="44.21824" lon="0.70587">
        <ele>104.92</ele>
        <time>2023-05-30T13:39:20Z</time>
      </trkpt>
      <trkpt lat="44.21821" lon="0.70573">
        <ele>105.4</ele>
        <time>2023-05-30T13:39:27Z</time>
      </trkpt>
      <trkpt lat="44.21818" lon="0.7056">
        <ele>105.88</ele>
        <time>2023-05-30T13:39:35Z</time>
      </trkpt>
      <trkpt lat="44.21814" lon="0.70545">
        <ele>107.32</ele>
        <time>2023-05-30T13:39:43Z</time>
      </trkpt>
      <trkpt lat="44.2181" lon="0.7053">
        <ele>108.77</ele>
        <time>2023-05-30T13:39:50Z</time>
      </trkpt>
      <trkpt lat="44.21807" lon="0.70514">
        <ele>109.25</ele>
        <time>2023-05-30T13:39:55Z</time>
      </trkpt>
      <trkpt lat="44.21804" lon="0.70501">
        <ele>110.69</ele>
        <time>2023-05-30T13:40:01Z</time>
      </trkpt>
      <trkpt lat="44.21802" lon="0.70487">
        <ele>112.61</ele>
        <time>2023-05-30T13:40:09Z</time>
      </trkpt>
      <trkpt lat="44.218" lon="0.70474">
        <ele>114.53</ele>
        <time>2023-05-30T13:40:16Z</time>
      </trkpt>
      <trkpt lat="44.21798" lon="0.7046">
        <ele>115.5</ele>
        <time>2023-05-30T13:40:23Z</time>
      </trkpt>
      <trkpt lat="44.21796" lon="0.70446">
        <ele>116.46</ele>
        <time>2023-05-30T13:40:30Z</time>
      </trkpt>
      <trkpt lat="44.21796" lon="0.70433">
        <ele>117.9</ele>
        <time>2023-05-30T13:40:37Z</time>
      </trkpt>
      <trkpt lat="44.21794" lon="0.70419">
        <ele>118.86</ele>
        <time>2023-05-30T13:40:44Z</time>
      </trkpt>
      <trkpt lat="44.21792" lon="0.70405">
        <ele>118.86</ele>
        <time>2023-05-30T13:40:52Z</time>
      </trkpt>
      <trkpt lat="44.21791" lon="0.7039">
        <ele>118.86</ele>
        <time>2023-05-30T13:40:59Z</time>
      </trkpt>
      <trkpt lat="44.21789" lon="0.70377">
        <ele>119.34</ele>
        <time>2023-05-30T13:41:06Z</time>
      </trkpt>
      <trkpt lat="44.21789" lon="0.70361">
        <ele>119.82</ele>
        <time>2023-05-30T13:41:14Z</time>
      </trkpt>
      <trkpt lat="44.2179" lon="0.70347">
        <ele>121.26</ele>
        <time>2023-05-30T13:41:22Z</time>
      </trkpt>
      <trkpt lat="44.21791" lon="0.70333">
        <ele>121.74</ele>
        <time>2023-05-30T13:41:30Z</time>
      </trkpt>
      <trkpt lat="44.21793" lon="0.70319">
        <ele>122.71</ele>
        <time>2023-05-30T13:41:38Z</time>
      </trkpt>
      <trkpt lat="44.21793" lon="0.70303">
        <ele>123.19</ele>
        <time>2023-05-30T13:41:46Z</time>
      </trkpt>
      <trkpt lat="44.21793" lon="0.70288">
        <ele>123.67</ele>
        <time>2023-05-30T13:41:52Z</time>
      </trkpt>
      <trkpt lat="44.21793" lon="0.70273">
        <ele>126.07</ele>
        <time>2023-05-30T13:41:59Z</time>
      </trkpt>
      <trkpt lat="44.21794" lon="0.70257">
        <ele>127.51</ele>
        <time>2023-05-30T13:42:07Z</time>
      </trkpt>
      <trkpt lat="44.21795" lon="0.7024">
        <ele>129.92</ele>
        <time>2023-05-30T13:42:17Z</time>
      </trkpt>
      <trkpt lat="44.21792" lon="0.70223">
        <ele>131.36</ele>
        <time>2023-05-30T13:42:26Z</time>
      </trkpt>
      <trkpt lat="44.21794" lon="0.70204">
        <ele>131.84</ele>
        <time>2023-05-30T13:42:36Z</time>
      </trkpt>
      <trkpt lat="44.21795" lon="0.70187">
        <ele>132.32</ele>
        <time>2023-05-30T13:42:45Z</time>
      </trkpt>
      <trkpt lat="44.21797" lon="0.70156">
        <ele>136.64</ele>
        <time>2023-05-30T13:43:03Z</time>
      </trkpt>
      <trkpt lat="44.21801" lon="0.7013">
        <ele>139.05</ele>
        <time>2023-05-30T13:43:18Z</time>
      </trkpt>
      <trkpt lat="44.21705" lon="0.70027">
        <ele>149.62</ele>
        <time>2023-05-30T13:45:08Z</time>
      </trkpt>
      <trkpt lat="44.21693" lon="0.70033">
        <ele>148.66</ele>
        <time>2023-05-30T13:45:16Z</time>
      </trkpt>
      <trkpt lat="44.21682" lon="0.70041">
        <ele>149.14</ele>
        <time>2023-05-30T13:45:24Z</time>
      </trkpt>
      <trkpt lat="44.21673" lon="0.70053">
        <ele>152.51</ele>
        <time>2023-05-30T13:45:32Z</time>
      </trkpt>
      <trkpt lat="44.21664" lon="0.70059">
        <ele>156.35</ele>
        <time>2023-05-30T13:45:40Z</time>
      </trkpt>
      <trkpt lat="44.21654" lon="0.70064">
        <ele>158.27</ele>
        <time>2023-05-30T13:45:48Z</time>
      </trkpt>
      <trkpt lat="44.21645" lon="0.70068">
        <ele>159.24</ele>
        <time>2023-05-30T13:45:54Z</time>
      </trkpt>
      <trkpt lat="44.21634" lon="0.70073">
        <ele>159.72</ele>
        <time>2023-05-30T13:46:01Z</time>
      </trkpt>
      <trkpt lat="44.21623" lon="0.70078">
        <ele>161.16</ele>
        <time>2023-05-30T13:46:08Z</time>
      </trkpt>
      <trkpt lat="44.21614" lon="0.70084">
        <ele>161.16</ele>
        <time>2023-05-30T13:46:15Z</time>
      </trkpt>
      <trkpt lat="44.21604" lon="0.70091">
        <ele>161.64</ele>
        <time>2023-05-30T13:46:22Z</time>
      </trkpt>
      <trkpt lat="44.21595" lon="0.70097">
        <ele>162.12</ele>
        <time>2023-05-30T13:46:29Z</time>
      </trkpt>
      <trkpt lat="44.21585" lon="0.70102">
        <ele>162.6</ele>
        <time>2023-05-30T13:46:37Z</time>
      </trkpt>
      <trkpt lat="44.21575" lon="0.70108">
        <ele>163.08</ele>
        <time>2023-05-30T13:46:45Z</time>
      </trkpt>
      <trkpt lat="44.21564" lon="0.70113">
        <ele>164.04</ele>
        <time>2023-05-30T13:46:52Z</time>
      </trkpt>
      <trkpt lat="44.21555" lon="0.70115">
        <ele>165.96</ele>
        <time>2023-05-30T13:46:58Z</time>
      </trkpt>
      <trkpt lat="44.21545" lon="0.70118">
        <ele>166.45</ele>
        <time>2023-05-30T13:47:05Z</time>
      </trkpt>
      <trkpt lat="44.21535" lon="0.70121">
        <ele>166.45</ele>
        <time>2023-05-30T13:47:12Z</time>
      </trkpt>
      <trkpt lat="44.21526" lon="0.70122">
        <ele>165.96</ele>
        <time>2023-05-30T13:47:19Z</time>
      </trkpt>
      <trkpt lat="44.21515" lon="0.70124">
        <ele>164.04</ele>
        <time>2023-05-30T13:47:28Z</time>
      </trkpt>
      <trkpt lat="44.21503" lon="0.70126">
        <ele>162.6</ele>
        <time>2023-05-30T13:47:36Z</time>
      </trkpt>
      <trkpt lat="44.21493" lon="0.70128">
        <ele>162.12</ele>
        <time>2023-05-30T13:47:43Z</time>
      </trkpt>
      <trkpt lat="44.21483" lon="0.7013">
        <ele>161.64</ele>
        <time>2023-05-30T13:47:50Z</time>
      </trkpt>
      <trkpt lat="44.21473" lon="0.70132">
        <ele>161.16</ele>
        <time>2023-05-30T13:47:57Z</time>
      </trkpt>
      <trkpt lat="44.21463" lon="0.70136">
        <ele>160.68</ele>
        <time>2023-05-30T13:48:05Z</time>
      </trkpt>
      <trkpt lat="44.2145" lon="0.70141">
        <ele>160.68</ele>
        <time>2023-05-30T13:48:15Z</time>
      </trkpt>
      <trkpt lat="44.21435" lon="0.70148">
        <ele>161.16</ele>
        <time>2023-05-30T13:48:24Z</time>
      </trkpt>
      <trkpt lat="44.21422" lon="0.70151">
        <ele>163.08</ele>
        <time>2023-05-30T13:48:32Z</time>
      </trkpt>
      <trkpt lat="44.21411" lon="0.70153">
        <ele>165</ele>
        <time>2023-05-30T13:48:41Z</time>
      </trkpt>
      <trkpt lat="44.214" lon="0.70152">
        <ele>165.48</ele>
        <time>2023-05-30T13:48:49Z</time>
      </trkpt>
      <trkpt lat="44.2139" lon="0.70151">
        <ele>165.48</ele>
        <time>2023-05-30T13:48:56Z</time>
      </trkpt>
      <trkpt lat="44.2138" lon="0.70149">
        <ele>166.93</ele>
        <time>2023-05-30T13:49:03Z</time>
      </trkpt>
      <trkpt lat="44.21371" lon="0.70146">
        <ele>167.41</ele>
        <time>2023-05-30T13:49:10Z</time>
      </trkpt>
      <trkpt lat="44.21361" lon="0.70143">
        <ele>167.41</ele>
        <time>2023-05-30T13:49:17Z</time>
      </trkpt>
      <trkpt lat="44.21351" lon="0.70138">
        <ele>166.45</ele>
        <time>2023-05-30T13:49:24Z</time>
      </trkpt>
      <trkpt lat="44.21342" lon="0.70133">
        <ele>165</ele>
        <time>2023-05-30T13:49:31Z</time>
      </trkpt>
      <trkpt lat="44.21332" lon="0.70124">
        <ele>165.48</ele>
        <time>2023-05-30T13:49:38Z</time>
      </trkpt>
      <trkpt lat="44.21324" lon="0.70116">
        <ele>164.52</ele>
        <time>2023-05-30T13:49:45Z</time>
      </trkpt>
      <trkpt lat="44.21316" lon="0.70109">
        <ele>164.52</ele>
        <time>2023-05-30T13:49:51Z</time>
      </trkpt>
      <trkpt lat="44.21308" lon="0.70098">
        <ele>164.52</ele>
        <time>2023-05-30T13:49:58Z</time>
      </trkpt>
      <trkpt lat="44.21302" lon="0.70089">
        <ele>164.52</ele>
        <time>2023-05-30T13:50:05Z</time>
      </trkpt>
      <trkpt lat="44.21295" lon="0.70079">
        <ele>164.04</ele>
        <time>2023-05-30T13:50:11Z</time>
      </trkpt>
      <trkpt lat="44.21288" lon="0.70068">
        <ele>164.04</ele>
        <time>2023-05-30T13:50:17Z</time>
      </trkpt>
      <trkpt lat="44.21282" lon="0.70059">
        <ele>164.04</ele>
        <time>2023-05-30T13:50:23Z</time>
      </trkpt>
      <trkpt lat="44.21274" lon="0.70051">
        <ele>163.56</ele>
        <time>2023-05-30T13:50:30Z</time>
      </trkpt>
      <trkpt lat="44.21265" lon="0.70041">
        <ele>162.6</ele>
        <time>2023-05-30T13:50:37Z</time>
      </trkpt>
      <trkpt lat="44.21257" lon="0.70031">
        <ele>162.6</ele>
        <time>2023-05-30T13:50:44Z</time>
      </trkpt>
      <trkpt lat="44.2125" lon="0.70023">
        <ele>161.64</ele>
        <time>2023-05-30T13:50:50Z</time>
      </trkpt>
      <trkpt lat="44.21244" lon="0.70014">
        <ele>161.16</ele>
        <time>2023-05-30T13:50:57Z</time>
      </trkpt>
      <trkpt lat="44.21238" lon="0.70005">
        <ele>161.16</ele>
        <time>2023-05-30T13:51:03Z</time>
      </trkpt>
      <trkpt lat="44.21231" lon="0.69996">
        <ele>160.68</ele>
        <time>2023-05-30T13:51:09Z</time>
      </trkpt>
      <trkpt lat="44.21226" lon="0.69985">
        <ele>160.68</ele>
        <time>2023-05-30T13:51:16Z</time>
      </trkpt>
      <trkpt lat="44.21229" lon="0.69973">
        <ele>159.72</ele>
        <time>2023-05-30T13:51:23Z</time>
      </trkpt>
      <trkpt lat="44.21236" lon="0.69964">
        <ele>159.72</ele>
        <time>2023-05-30T13:51:29Z</time>
      </trkpt>
      <trkpt lat="44.21244" lon="0.69955">
        <ele>159.72</ele>
        <time>2023-05-30T13:51:36Z</time>
      </trkpt>
      <trkpt lat="44.21254" lon="0.69943">
        <ele>160.2</ele>
        <time>2023-05-30T13:51:41Z</time>
      </trkpt>
      <trkpt lat="44.21262" lon="0.69934">
        <ele>160.68</ele>
        <time>2023-05-30T13:51:44Z</time>
      </trkpt>
      <trkpt lat="44.21269" lon="0.69925">
        <ele>161.16</ele>
        <time>2023-05-30T13:51:47Z</time>
      </trkpt>
      <trkpt lat="44.21276" lon="0.69915">
        <ele>161.64</ele>
        <time>2023-05-30T13:51:50Z</time>
      </trkpt>
      <trkpt lat="44.21284" lon="0.69907">
        <ele>162.12</ele>
        <time>2023-05-30T13:51:53Z</time>
      </trkpt>
      <trkpt lat="44.21293" lon="0.69896">
        <ele>163.56</ele>
        <time>2023-05-30T13:51:57Z</time>
      </trkpt>
      <trkpt lat="44.213" lon="0.69887">
        <ele>164.04</ele>
        <time>2023-05-30T13:52:00Z</time>
      </trkpt>
      <trkpt lat="44.21309" lon="0.69878">
        <ele>165</ele>
        <time>2023-05-30T13:52:03Z</time>
      </trkpt>
      <trkpt lat="44.21319" lon="0.69867">
        <ele>165.96</ele>
        <time>2023-05-30T13:52:06Z</time>
      </trkpt>
      <trkpt lat="44.21328" lon="0.69856">
        <ele>166.93</ele>
        <time>2023-05-30T13:52:09Z</time>
      </trkpt>
      <trkpt lat="44.21338" lon="0.69844">
        <ele>167.89</ele>
        <time>2023-05-30T13:52:12Z</time>
      </trkpt>
      <trkpt lat="44.21349" lon="0.69831">
        <ele>167.41</ele>
        <time>2023-05-30T13:52:15Z</time>
      </trkpt>
      <trkpt lat="44.2136" lon="0.69819">
        <ele>167.41</ele>
        <time>2023-05-30T13:52:18Z</time>
      </trkpt>
      <trkpt lat="44.21369" lon="0.69809">
        <ele>166.45</ele>
        <time>2023-05-30T13:52:21Z</time>
      </trkpt>
      <trkpt lat="44.2138" lon="0.69796">
        <ele>166.45</ele>
        <time>2023-05-30T13:52:24Z</time>
      </trkpt>
      <trkpt lat="44.21391" lon="0.69785">
        <ele>166.45</ele>
        <time>2023-05-30T13:52:27Z</time>
      </trkpt>
      <trkpt lat="44.21403" lon="0.69772">
        <ele>166.45</ele>
        <time>2023-05-30T13:52:30Z</time>
      </trkpt>
      <trkpt lat="44.21415" lon="0.69761">
        <ele>167.41</ele>
        <time>2023-05-30T13:52:33Z</time>
      </trkpt>
      <trkpt lat="44.21424" lon="0.69749">
        <ele>167.41</ele>
        <time>2023-05-30T13:52:36Z</time>
      </trkpt>
      <trkpt lat="44.21432" lon="0.69734">
        <ele>166.93</ele>
        <time>2023-05-30T13:52:39Z</time>
      </trkpt>
      <trkpt lat="44.21437" lon="0.69719">
        <ele>166.45</ele>
        <time>2023-05-30T13:52:43Z</time>
      </trkpt>
      <trkpt lat="44.21447" lon="0.69686">
        <ele>163.08</ele>
        <time>2023-05-30T13:53:00Z</time>
      </trkpt>
      <trkpt lat="44.2145" lon="0.69658">
        <ele>155.39</ele>
        <time>2023-05-30T13:53:18Z</time>
      </trkpt>
      <trkpt lat="44.21453" lon="0.69641">
        <ele>151.54</ele>
        <time>2023-05-30T13:53:27Z</time>
      </trkpt>
      <trkpt lat="44.21455" lon="0.69622">
        <ele>147.7</ele>
        <time>2023-05-30T13:53:36Z</time>
      </trkpt>
      <trkpt lat="44.21459" lon="0.69602">
        <ele>142.41</ele>
        <time>2023-05-30T13:53:48Z</time>
      </trkpt>
      <trkpt lat="44.21464" lon="0.69582">
        <ele>139.53</ele>
        <time>2023-05-30T13:53:59Z</time>
      </trkpt>
      <trkpt lat="44.21508" lon="0.69541">
        <ele>154.43</ele>
        <time>2023-05-30T13:59:03Z</time>
      </trkpt>
      <trkpt lat="44.21555" lon="0.69519">
        <ele>152.03</ele>
        <time>2023-05-30T13:59:40Z</time>
      </trkpt>
      <trkpt lat="44.21596" lon="0.69472">
        <ele>144.82</ele>
        <time>2023-05-30T14:00:19Z</time>
      </trkpt>
      <trkpt lat="44.21601" lon="0.69459">
        <ele>145.3</ele>
        <time>2023-05-30T14:00:28Z</time>
      </trkpt>
      <trkpt lat="44.21606" lon="0.69447">
        <ele>145.3</ele>
        <time>2023-05-30T14:00:36Z</time>
      </trkpt>
      <trkpt lat="44.21602" lon="0.69427">
        <ele>148.18</ele>
        <time>2023-05-30T14:00:47Z</time>
      </trkpt>
      <trkpt lat="44.21591" lon="0.69416">
        <ele>150.58</ele>
        <time>2023-05-30T14:00:56Z</time>
      </trkpt>
      <trkpt lat="44.21583" lon="0.69404">
        <ele>150.58</ele>
        <time>2023-05-30T14:01:05Z</time>
      </trkpt>
      <trkpt lat="44.21574" lon="0.69394">
        <ele>151.06</ele>
        <time>2023-05-30T14:01:13Z</time>
      </trkpt>
      <trkpt lat="44.21564" lon="0.69382">
        <ele>150.58</ele>
        <time>2023-05-30T14:01:22Z</time>
      </trkpt>
      <trkpt lat="44.21555" lon="0.69369">
        <ele>151.06</ele>
        <time>2023-05-30T14:01:32Z</time>
      </trkpt>
      <trkpt lat="44.21546" lon="0.69355">
        <ele>153.47</ele>
        <time>2023-05-30T14:01:42Z</time>
      </trkpt>
      <trkpt lat="44.21539" lon="0.69344">
        <ele>154.91</ele>
        <time>2023-05-30T14:01:51Z</time>
      </trkpt>
      <trkpt lat="44.21532" lon="0.69333">
        <ele>156.35</ele>
        <time>2023-05-30T14:01:59Z</time>
      </trkpt>
      <trkpt lat="44.21525" lon="0.69322">
        <ele>157.31</ele>
        <time>2023-05-30T14:02:07Z</time>
      </trkpt>
      <trkpt lat="44.21518" lon="0.6931">
        <ele>158.75</ele>
        <time>2023-05-30T14:02:16Z</time>
      </trkpt>
      <trkpt lat="44.21512" lon="0.69298">
        <ele>159.72</ele>
        <time>2023-05-30T14:02:24Z</time>
      </trkpt>
      <trkpt lat="44.21506" lon="0.69286">
        <ele>159.72</ele>
        <time>2023-05-30T14:02:31Z</time>
      </trkpt>
      <trkpt lat="44.21501" lon="0.69274">
        <ele>159.72</ele>
        <time>2023-05-30T14:02:38Z</time>
      </trkpt>
      <trkpt lat="44.21496" lon="0.69263">
        <ele>158.75</ele>
        <time>2023-05-30T14:02:45Z</time>
      </trkpt>
      <trkpt lat="44.21492" lon="0.69251">
        <ele>157.31</ele>
        <time>2023-05-30T14:02:52Z</time>
      </trkpt>
      <trkpt lat="44.21486" lon="0.69239">
        <ele>156.83</ele>
        <time>2023-05-30T14:02:59Z</time>
      </trkpt>
      <trkpt lat="44.21481" lon="0.69227">
        <ele>155.87</ele>
        <time>2023-05-30T14:03:06Z</time>
      </trkpt>
      <trkpt lat="44.21476" lon="0.69214">
        <ele>155.87</ele>
        <time>2023-05-30T14:03:13Z</time>
      </trkpt>
      <trkpt lat="44.21472" lon="0.69201">
        <ele>155.39</ele>
        <time>2023-05-30T14:03:20Z</time>
      </trkpt>
      <trkpt lat="44.21467" lon="0.69189">
        <ele>155.39</ele>
        <time>2023-05-30T14:03:28Z</time>
      </trkpt>
      <trkpt lat="44.21455" lon="0.69177">
        <ele>155.39</ele>
        <time>2023-05-30T14:03:38Z</time>
      </trkpt>
      <trkpt lat="44.21441" lon="0.69176">
        <ele>154.91</ele>
        <time>2023-05-30T14:03:48Z</time>
      </trkpt>
      <trkpt lat="44.21421" lon="0.69175">
        <ele>153.95</ele>
        <time>2023-05-30T14:04:03Z</time>
      </trkpt>
      <trkpt lat="44.21407" lon="0.69171">
        <ele>152.99</ele>
        <time>2023-05-30T14:04:12Z</time>
      </trkpt>
      <trkpt lat="44.21393" lon="0.69167">
        <ele>153.95</ele>
        <time>2023-05-30T14:04:23Z</time>
      </trkpt>
      <trkpt lat="44.21381" lon="0.6917">
        <ele>152.51</ele>
        <time>2023-05-30T14:04:32Z</time>
      </trkpt>
      <trkpt lat="44.2137" lon="0.69177">
        <ele>152.03</ele>
        <time>2023-05-30T14:04:40Z</time>
      </trkpt>
      <trkpt lat="44.21359" lon="0.69182">
        <ele>152.03</ele>
        <time>2023-05-30T14:04:48Z</time>
      </trkpt>
      <trkpt lat="44.21347" lon="0.69186">
        <ele>151.06</ele>
        <time>2023-05-30T14:04:57Z</time>
      </trkpt>
      <trkpt lat="44.21334" lon="0.69188">
        <ele>151.54</ele>
        <time>2023-05-30T14:05:05Z</time>
      </trkpt>
      <trkpt lat="44.21322" lon="0.69187">
        <ele>151.54</ele>
        <time>2023-05-30T14:05:13Z</time>
      </trkpt>
      <trkpt lat="44.21311" lon="0.69183">
        <ele>152.51</ele>
        <time>2023-05-30T14:05:22Z</time>
      </trkpt>
      <trkpt lat="44.213" lon="0.69175">
        <ele>151.06</ele>
        <time>2023-05-30T14:05:32Z</time>
      </trkpt>
      <trkpt lat="44.21289" lon="0.69166">
        <ele>150.1</ele>
        <time>2023-05-30T14:05:40Z</time>
      </trkpt>
      <trkpt lat="44.21264" lon="0.69131">
        <ele>149.62</ele>
        <time>2023-05-30T14:06:06Z</time>
      </trkpt>
      <trkpt lat="44.21259" lon="0.69115">
        <ele>150.1</ele>
        <time>2023-05-30T14:06:15Z</time>
      </trkpt>
      <trkpt lat="44.21257" lon="0.691">
        <ele>151.06</ele>
        <time>2023-05-30T14:06:23Z</time>
      </trkpt>
      <trkpt lat="44.21253" lon="0.69086">
        <ele>153.47</ele>
        <time>2023-05-30T14:06:30Z</time>
      </trkpt>
      <trkpt lat="44.2125" lon="0.69071">
        <ele>154.43</ele>
        <time>2023-05-30T14:06:39Z</time>
      </trkpt>
      <trkpt lat="44.21247" lon="0.69056">
        <ele>155.39</ele>
        <time>2023-05-30T14:06:46Z</time>
      </trkpt>
      <trkpt lat="44.21243" lon="0.69042">
        <ele>156.83</ele>
        <time>2023-05-30T14:06:53Z</time>
      </trkpt>
      <trkpt lat="44.2124" lon="0.69029">
        <ele>158.75</ele>
        <time>2023-05-30T14:07:00Z</time>
      </trkpt>
      <trkpt lat="44.21238" lon="0.69015">
        <ele>159.72</ele>
        <time>2023-05-30T14:07:08Z</time>
      </trkpt>
      <trkpt lat="44.21233" lon="0.69001">
        <ele>159.72</ele>
        <time>2023-05-30T14:07:16Z</time>
      </trkpt>
      <trkpt lat="44.21226" lon="0.6899">
        <ele>159.24</ele>
        <time>2023-05-30T14:07:24Z</time>
      </trkpt>
      <trkpt lat="44.21217" lon="0.6898">
        <ele>159.72</ele>
        <time>2023-05-30T14:07:32Z</time>
      </trkpt>
      <trkpt lat="44.21208" lon="0.68972">
        <ele>158.75</ele>
        <time>2023-05-30T14:07:40Z</time>
      </trkpt>
      <trkpt lat="44.21199" lon="0.68966">
        <ele>156.83</ele>
        <time>2023-05-30T14:07:48Z</time>
      </trkpt>
      <trkpt lat="44.21189" lon="0.6896">
        <ele>154.91</ele>
        <time>2023-05-30T14:07:56Z</time>
      </trkpt>
      <trkpt lat="44.21178" lon="0.68954">
        <ele>153.47</ele>
        <time>2023-05-30T14:08:04Z</time>
      </trkpt>
      <trkpt lat="44.21168" lon="0.68947">
        <ele>152.03</ele>
        <time>2023-05-30T14:08:12Z</time>
      </trkpt>
      <trkpt lat="44.21156" lon="0.68941">
        <ele>151.06</ele>
        <time>2023-05-30T14:08:20Z</time>
      </trkpt>
      <trkpt lat="44.21146" lon="0.68934">
        <ele>150.58</ele>
        <time>2023-05-30T14:08:28Z</time>
      </trkpt>
      <trkpt lat="44.21137" lon="0.68928">
        <ele>151.06</ele>
        <time>2023-05-30T14:08:35Z</time>
      </trkpt>
      <trkpt lat="44.21128" lon="0.68923">
        <ele>150.58</ele>
        <time>2023-05-30T14:08:42Z</time>
      </trkpt>
      <trkpt lat="44.21118" lon="0.68918">
        <ele>150.1</ele>
        <time>2023-05-30T14:08:49Z</time>
      </trkpt>
      <trkpt lat="44.21108" lon="0.68913">
        <ele>150.1</ele>
        <time>2023-05-30T14:08:56Z</time>
      </trkpt>
      <trkpt lat="44.211" lon="0.68908">
        <ele>150.1</ele>
        <time>2023-05-30T14:09:03Z</time>
      </trkpt>
      <trkpt lat="44.21092" lon="0.689">
        <ele>150.1</ele>
        <time>2023-05-30T14:09:10Z</time>
      </trkpt>
      <trkpt lat="44.21082" lon="0.68887">
        <ele>150.58</ele>
        <time>2023-05-30T14:09:19Z</time>
      </trkpt>
      <trkpt lat="44.21074" lon="0.68876">
        <ele>150.1</ele>
        <time>2023-05-30T14:09:28Z</time>
      </trkpt>
      <trkpt lat="44.21066" lon="0.68863">
        <ele>148.66</ele>
        <time>2023-05-30T14:09:38Z</time>
      </trkpt>
      <trkpt lat="44.21058" lon="0.68848">
        <ele>147.7</ele>
        <time>2023-05-30T14:09:48Z</time>
      </trkpt>
      <trkpt lat="44.21044" lon="0.68839">
        <ele>145.78</ele>
        <time>2023-05-30T14:09:59Z</time>
      </trkpt>
      <trkpt lat="44.21029" lon="0.68829">
        <ele>145.78</ele>
        <time>2023-05-30T14:10:11Z</time>
      </trkpt>
      <trkpt lat="44.21014" lon="0.68822">
        <ele>144.82</ele>
        <time>2023-05-30T14:10:22Z</time>
      </trkpt>
      <trkpt lat="44.21002" lon="0.68816">
        <ele>146.26</ele>
        <time>2023-05-30T14:10:30Z</time>
      </trkpt>
      <trkpt lat="44.20991" lon="0.6881">
        <ele>148.18</ele>
        <time>2023-05-30T14:10:38Z</time>
      </trkpt>
      <trkpt lat="44.20981" lon="0.68804">
        <ele>147.7</ele>
        <time>2023-05-30T14:10:46Z</time>
      </trkpt>
      <trkpt lat="44.20963" lon="0.68793">
        <ele>147.22</ele>
        <time>2023-05-30T14:11:01Z</time>
      </trkpt>
      <trkpt lat="44.20946" lon="0.68789">
        <ele>149.14</ele>
        <time>2023-05-30T14:11:15Z</time>
      </trkpt>
      <trkpt lat="44.20934" lon="0.68788">
        <ele>153.47</ele>
        <time>2023-05-30T14:11:25Z</time>
      </trkpt>
      <trkpt lat="44.20924" lon="0.68792">
        <ele>155.39</ele>
        <time>2023-05-30T14:11:32Z</time>
      </trkpt>
      <trkpt lat="44.20912" lon="0.68799">
        <ele>156.35</ele>
        <time>2023-05-30T14:11:40Z</time>
      </trkpt>
      <trkpt lat="44.20903" lon="0.68804">
        <ele>156.83</ele>
        <time>2023-05-30T14:11:49Z</time>
      </trkpt>
      <trkpt lat="44.20885" lon="0.68816">
        <ele>156.35</ele>
        <time>2023-05-30T14:12:06Z</time>
      </trkpt>
      <trkpt lat="44.20873" lon="0.68824">
        <ele>156.35</ele>
        <time>2023-05-30T14:12:16Z</time>
      </trkpt>
      <trkpt lat="44.20851" lon="0.68832">
        <ele>155.39</ele>
        <time>2023-05-30T14:12:35Z</time>
      </trkpt>
      <trkpt lat="44.20837" lon="0.68833">
        <ele>156.83</ele>
        <time>2023-05-30T14:12:43Z</time>
      </trkpt>
      <trkpt lat="44.20827" lon="0.68828">
        <ele>158.27</ele>
        <time>2023-05-30T14:12:51Z</time>
      </trkpt>
      <trkpt lat="44.20816" lon="0.68823">
        <ele>158.27</ele>
        <time>2023-05-30T14:12:58Z</time>
      </trkpt>
      <trkpt lat="44.20805" lon="0.68819">
        <ele>159.24</ele>
        <time>2023-05-30T14:13:06Z</time>
      </trkpt>
      <trkpt lat="44.20793" lon="0.68816">
        <ele>158.75</ele>
        <time>2023-05-30T14:13:14Z</time>
      </trkpt>
      <trkpt lat="44.20783" lon="0.68812">
        <ele>160.2</ele>
        <time>2023-05-30T14:13:21Z</time>
      </trkpt>
      <trkpt lat="44.20772" lon="0.68809">
        <ele>160.2</ele>
        <time>2023-05-30T14:13:29Z</time>
      </trkpt>
      <trkpt lat="44.20762" lon="0.68806">
        <ele>159.72</ele>
        <time>2023-05-30T14:13:37Z</time>
      </trkpt>
      <trkpt lat="44.20752" lon="0.68802">
        <ele>159.72</ele>
        <time>2023-05-30T14:13:44Z</time>
      </trkpt>
      <trkpt lat="44.20742" lon="0.68798">
        <ele>158.75</ele>
        <time>2023-05-30T14:13:52Z</time>
      </trkpt>
      <trkpt lat="44.20732" lon="0.68796">
        <ele>157.79</ele>
        <time>2023-05-30T14:14:00Z</time>
      </trkpt>
      <trkpt lat="44.20722" lon="0.68793">
        <ele>157.79</ele>
        <time>2023-05-30T14:14:07Z</time>
      </trkpt>
      <trkpt lat="44.20711" lon="0.68788">
        <ele>156.83</ele>
        <time>2023-05-30T14:14:18Z</time>
      </trkpt>
      <trkpt lat="44.207" lon="0.68784">
        <ele>157.31</ele>
        <time>2023-05-30T14:14:26Z</time>
      </trkpt>
      <trkpt lat="44.2069" lon="0.68779">
        <ele>158.27</ele>
        <time>2023-05-30T14:14:33Z</time>
      </trkpt>
      <trkpt lat="44.2068" lon="0.68775">
        <ele>158.75</ele>
        <time>2023-05-30T14:14:40Z</time>
      </trkpt>
      <trkpt lat="44.2067" lon="0.68771">
        <ele>159.24</ele>
        <time>2023-05-30T14:14:48Z</time>
      </trkpt>
      <trkpt lat="44.20658" lon="0.68768">
        <ele>160.2</ele>
        <time>2023-05-30T14:14:56Z</time>
      </trkpt>
      <trkpt lat="44.20643" lon="0.68761">
        <ele>160.2</ele>
        <time>2023-05-30T14:15:09Z</time>
      </trkpt>
      <trkpt lat="44.20633" lon="0.68753">
        <ele>159.24</ele>
        <time>2023-05-30T14:15:17Z</time>
      </trkpt>
      <trkpt lat="44.20625" lon="0.68744">
        <ele>154.91</ele>
        <time>2023-05-30T14:15:38Z</time>
      </trkpt>
      <trkpt lat="44.20613" lon="0.68734">
        <ele>153.95</ele>
        <time>2023-05-30T14:15:58Z</time>
      </trkpt>
      <trkpt lat="44.20603" lon="0.68725">
        <ele>151.54</ele>
        <time>2023-05-30T14:16:07Z</time>
      </trkpt>
      <trkpt lat="44.20594" lon="0.68717">
        <ele>150.1</ele>
        <time>2023-05-30T14:16:15Z</time>
      </trkpt>
      <trkpt lat="44.20585" lon="0.68709">
        <ele>148.66</ele>
        <time>2023-05-30T14:16:22Z</time>
      </trkpt>
      <trkpt lat="44.20575" lon="0.68702">
        <ele>146.74</ele>
        <time>2023-05-30T14:16:30Z</time>
      </trkpt>
      <trkpt lat="44.20564" lon="0.68695">
        <ele>145.3</ele>
        <time>2023-05-30T14:16:40Z</time>
      </trkpt>
      <trkpt lat="44.20551" lon="0.68689">
        <ele>143.37</ele>
        <time>2023-05-30T14:16:50Z</time>
      </trkpt>
      <trkpt lat="44.20524" lon="0.68671">
        <ele>142.41</ele>
        <time>2023-05-30T14:17:15Z</time>
      </trkpt>
      <trkpt lat="44.20501" lon="0.68653">
        <ele>143.37</ele>
        <time>2023-05-30T14:17:34Z</time>
      </trkpt>
      <trkpt lat="44.20491" lon="0.68644">
        <ele>141.93</ele>
        <time>2023-05-30T14:17:42Z</time>
      </trkpt>
      <trkpt lat="44.20482" lon="0.68634">
        <ele>142.41</ele>
        <time>2023-05-30T14:17:51Z</time>
      </trkpt>
      <trkpt lat="44.20473" lon="0.68618">
        <ele>142.89</ele>
        <time>2023-05-30T14:18:03Z</time>
      </trkpt>
      <trkpt lat="44.20463" lon="0.68596">
        <ele>143.85</ele>
        <time>2023-05-30T14:18:19Z</time>
      </trkpt>
      <trkpt lat="44.20456" lon="0.6858">
        <ele>143.37</ele>
        <time>2023-05-30T14:18:29Z</time>
      </trkpt>
      <trkpt lat="44.20447" lon="0.68568">
        <ele>147.22</ele>
        <time>2023-05-30T14:18:38Z</time>
      </trkpt>
      <trkpt lat="44.20438" lon="0.6856">
        <ele>149.14</ele>
        <time>2023-05-30T14:18:47Z</time>
      </trkpt>
      <trkpt lat="44.20426" lon="0.6855">
        <ele>151.06</ele>
        <time>2023-05-30T14:19:00Z</time>
      </trkpt>
      <trkpt lat="44.204" lon="0.68526">
        <ele>150.1</ele>
        <time>2023-05-30T14:19:20Z</time>
      </trkpt>
      <trkpt lat="44.20384" lon="0.68512">
        <ele>147.7</ele>
        <time>2023-05-30T14:19:34Z</time>
      </trkpt>
      <trkpt lat="44.20369" lon="0.68492">
        <ele>142.89</ele>
        <time>2023-05-30T14:19:49Z</time>
      </trkpt>
      <trkpt lat="44.2032" lon="0.68437">
        <ele>147.22</ele>
        <time>2023-05-30T14:20:38Z</time>
      </trkpt>
      <trkpt lat="44.20298" lon="0.68429">
        <ele>149.62</ele>
        <time>2023-05-30T14:20:54Z</time>
      </trkpt>
      <trkpt lat="44.20284" lon="0.68434">
        <ele>150.58</ele>
        <time>2023-05-30T14:21:04Z</time>
      </trkpt>
      <trkpt lat="44.20266" lon="0.68449">
        <ele>152.03</ele>
        <time>2023-05-30T14:21:18Z</time>
      </trkpt>
      <trkpt lat="44.20258" lon="0.68482">
        <ele>152.99</ele>
        <time>2023-05-30T14:21:37Z</time>
      </trkpt>
      <trkpt lat="44.20239" lon="0.68517">
        <ele>154.43</ele>
        <time>2023-05-30T14:22:03Z</time>
      </trkpt>
      <trkpt lat="44.20207" lon="0.68569">
        <ele>158.27</ele>
        <time>2023-05-30T14:22:33Z</time>
      </trkpt>
      <trkpt lat="44.20193" lon="0.68583">
        <ele>156.83</ele>
        <time>2023-05-30T14:22:46Z</time>
      </trkpt>
      <trkpt lat="44.20182" lon="0.68595">
        <ele>156.83</ele>
        <time>2023-05-30T14:22:57Z</time>
      </trkpt>
      <trkpt lat="44.20165" lon="0.68608">
        <ele>157.31</ele>
        <time>2023-05-30T14:23:11Z</time>
      </trkpt>
      <trkpt lat="44.20097" lon="0.68639">
        <ele>167.41</ele>
        <time>2023-05-30T14:25:43Z</time>
      </trkpt>
      <trkpt lat="44.2008" lon="0.68651">
        <ele>166.45</ele>
        <time>2023-05-30T14:25:58Z</time>
      </trkpt>
      <trkpt lat="44.2007" lon="0.68658">
        <ele>165.96</ele>
        <time>2023-05-30T14:26:07Z</time>
      </trkpt>
      <trkpt lat="44.2006" lon="0.68666">
        <ele>166.45</ele>
        <time>2023-05-30T14:26:14Z</time>
      </trkpt>
      <trkpt lat="44.20052" lon="0.68674">
        <ele>165.48</ele>
        <time>2023-05-30T14:26:21Z</time>
      </trkpt>
      <trkpt lat="44.20044" lon="0.68682">
        <ele>164.52</ele>
        <time>2023-05-30T14:26:28Z</time>
      </trkpt>
      <trkpt lat="44.20036" lon="0.6869">
        <ele>164.04</ele>
        <time>2023-05-30T14:26:35Z</time>
      </trkpt>
      <trkpt lat="44.20028" lon="0.68698">
        <ele>163.56</ele>
        <time>2023-05-30T14:26:43Z</time>
      </trkpt>
      <trkpt lat="44.20024" lon="0.68698">
        <ele>161.16</ele>
        <time>2023-05-30T14:27:11Z</time>
      </trkpt>
      <trkpt lat="44.20016" lon="0.68684">
        <ele>158.75</ele>
        <time>2023-05-30T14:27:21Z</time>
      </trkpt>
      <trkpt lat="44.20011" lon="0.68668">
        <ele>155.39</ele>
        <time>2023-05-30T14:27:31Z</time>
      </trkpt>
      <trkpt lat="44.19992" lon="0.68621">
        <ele>141.45</ele>
        <time>2023-05-30T14:28:06Z</time>
      </trkpt>
      <trkpt lat="44.19982" lon="0.68591">
        <ele>135.2</ele>
        <time>2023-05-30T14:28:22Z</time>
      </trkpt>
      <trkpt lat="44.19976" lon="0.68566">
        <ele>135.68</ele>
        <time>2023-05-30T14:28:26Z</time>
      </trkpt>
      <trkpt lat="44.19973" lon="0.68541">
        <ele>137.13</ele>
        <time>2023-05-30T14:28:29Z</time>
      </trkpt>
      <trkpt lat="44.19972" lon="0.68521">
        <ele>138.57</ele>
        <time>2023-05-30T14:28:32Z</time>
      </trkpt>
      <trkpt lat="44.19972" lon="0.68503">
        <ele>139.53</ele>
        <time>2023-05-30T14:28:35Z</time>
      </trkpt>
      <trkpt lat="44.1997" lon="0.68488">
        <ele>140.01</ele>
        <time>2023-05-30T14:28:38Z</time>
      </trkpt>
      <trkpt lat="44.19964" lon="0.68477">
        <ele>140.01</ele>
        <time>2023-05-30T14:28:42Z</time>
      </trkpt>
      <trkpt lat="44.1995" lon="0.68468">
        <ele>139.05</ele>
        <time>2023-05-30T14:28:46Z</time>
      </trkpt>
      <trkpt lat="44.19939" lon="0.68461">
        <ele>139.05</ele>
        <time>2023-05-30T14:28:49Z</time>
      </trkpt>
      <trkpt lat="44.19928" lon="0.68455">
        <ele>138.57</ele>
        <time>2023-05-30T14:28:52Z</time>
      </trkpt>
      <trkpt lat="44.19917" lon="0.68447">
        <ele>138.57</ele>
        <time>2023-05-30T14:28:55Z</time>
      </trkpt>
      <trkpt lat="44.19904" lon="0.68438">
        <ele>138.09</ele>
        <time>2023-05-30T14:28:58Z</time>
      </trkpt>
      <trkpt lat="44.19895" lon="0.68432">
        <ele>137.13</ele>
        <time>2023-05-30T14:29:00Z</time>
      </trkpt>
      <trkpt lat="44.19884" lon="0.68426">
        <ele>136.16</ele>
        <time>2023-05-30T14:29:02Z</time>
      </trkpt>
      <trkpt lat="44.19872" lon="0.6842">
        <ele>135.2</ele>
        <time>2023-05-30T14:29:04Z</time>
      </trkpt>
      <trkpt lat="44.19861" lon="0.68413">
        <ele>134.24</ele>
        <time>2023-05-30T14:29:06Z</time>
      </trkpt>
      <trkpt lat="44.19851" lon="0.68404">
        <ele>133.76</ele>
        <time>2023-05-30T14:29:08Z</time>
      </trkpt>
      <trkpt lat="44.19843" lon="0.68391">
        <ele>132.32</ele>
        <time>2023-05-30T14:29:10Z</time>
      </trkpt>
      <trkpt lat="44.19834" lon="0.68377">
        <ele>131.84</ele>
        <time>2023-05-30T14:29:12Z</time>
      </trkpt>
      <trkpt lat="44.19825" lon="0.68369">
        <ele>130.88</ele>
        <time>2023-05-30T14:29:14Z</time>
      </trkpt>
      <trkpt lat="44.19815" lon="0.68363">
        <ele>129.92</ele>
        <time>2023-05-30T14:29:16Z</time>
      </trkpt>
      <trkpt lat="44.19806" lon="0.68357">
        <ele>128.95</ele>
        <time>2023-05-30T14:29:18Z</time>
      </trkpt>
      <trkpt lat="44.19797" lon="0.68344">
        <ele>127.51</ele>
        <time>2023-05-30T14:29:21Z</time>
      </trkpt>
      <trkpt lat="44.19787" lon="0.68333">
        <ele>126.55</ele>
        <time>2023-05-30T14:29:24Z</time>
      </trkpt>
      <trkpt lat="44.19779" lon="0.68324">
        <ele>125.59</ele>
        <time>2023-05-30T14:29:27Z</time>
      </trkpt>
      <trkpt lat="44.19768" lon="0.68322">
        <ele>125.11</ele>
        <time>2023-05-30T14:29:30Z</time>
      </trkpt>
      <trkpt lat="44.19754" lon="0.6832">
        <ele>125.11</ele>
        <time>2023-05-30T14:29:33Z</time>
      </trkpt>
      <trkpt lat="44.19742" lon="0.68318">
        <ele>125.11</ele>
        <time>2023-05-30T14:29:35Z</time>
      </trkpt>
      <trkpt lat="44.19731" lon="0.68317">
        <ele>125.11</ele>
        <time>2023-05-30T14:29:37Z</time>
      </trkpt>
      <trkpt lat="44.19716" lon="0.68315">
        <ele>125.11</ele>
        <time>2023-05-30T14:29:40Z</time>
      </trkpt>
      <trkpt lat="44.19706" lon="0.6831">
        <ele>124.63</ele>
        <time>2023-05-30T14:29:42Z</time>
      </trkpt>
      <trkpt lat="44.19694" lon="0.68303">
        <ele>124.15</ele>
        <time>2023-05-30T14:29:45Z</time>
      </trkpt>
      <trkpt lat="44.19675" lon="0.68297">
        <ele>128.47</ele>
        <time>2023-05-30T14:29:53Z</time>
      </trkpt>
      <trkpt lat="44.19633" lon="0.68316">
        <ele>134.24</ele>
        <time>2023-05-30T14:30:27Z</time>
      </trkpt>
      <trkpt lat="44.19603" lon="0.68336">
        <ele>141.93</ele>
        <time>2023-05-30T14:31:07Z</time>
      </trkpt>
      <trkpt lat="44.19593" lon="0.68347">
        <ele>141.45</ele>
        <time>2023-05-30T14:31:16Z</time>
      </trkpt>
      <trkpt lat="44.19583" lon="0.68357">
        <ele>137.61</ele>
        <time>2023-05-30T14:31:26Z</time>
      </trkpt>
      <trkpt lat="44.19573" lon="0.68364">
        <ele>135.2</ele>
        <time>2023-05-30T14:31:34Z</time>
      </trkpt>
      <trkpt lat="44.19564" lon="0.68373">
        <ele>133.28</ele>
        <time>2023-05-30T14:31:42Z</time>
      </trkpt>
      <trkpt lat="44.19556" lon="0.68383">
        <ele>132.32</ele>
        <time>2023-05-30T14:31:49Z</time>
      </trkpt>
      <trkpt lat="44.1955" lon="0.68393">
        <ele>131.84</ele>
        <time>2023-05-30T14:31:57Z</time>
      </trkpt>
      <trkpt lat="44.19541" lon="0.68403">
        <ele>130.88</ele>
        <time>2023-05-30T14:32:06Z</time>
      </trkpt>
      <trkpt lat="44.19529" lon="0.68412">
        <ele>128.95</ele>
        <time>2023-05-30T14:32:16Z</time>
      </trkpt>
      <trkpt lat="44.19521" lon="0.68421">
        <ele>127.03</ele>
        <time>2023-05-30T14:32:23Z</time>
      </trkpt>
      <trkpt lat="44.19513" lon="0.68429">
        <ele>125.11</ele>
        <time>2023-05-30T14:32:30Z</time>
      </trkpt>
      <trkpt lat="44.19504" lon="0.68436">
        <ele>122.71</ele>
        <time>2023-05-30T14:32:37Z</time>
      </trkpt>
      <trkpt lat="44.19495" lon="0.68445">
        <ele>121.74</ele>
        <time>2023-05-30T14:32:45Z</time>
      </trkpt>
      <trkpt lat="44.19486" lon="0.68452">
        <ele>121.26</ele>
        <time>2023-05-30T14:32:52Z</time>
      </trkpt>
      <trkpt lat="44.19478" lon="0.68459">
        <ele>120.78</ele>
        <time>2023-05-30T14:32:59Z</time>
      </trkpt>
      <trkpt lat="44.19468" lon="0.68468">
        <ele>119.82</ele>
        <time>2023-05-30T14:33:07Z</time>
      </trkpt>
      <trkpt lat="44.19458" lon="0.68476">
        <ele>117.9</ele>
        <time>2023-05-30T14:33:15Z</time>
      </trkpt>
      <trkpt lat="44.19447" lon="0.68484">
        <ele>115.98</ele>
        <time>2023-05-30T14:33:23Z</time>
      </trkpt>
      <trkpt lat="44.19437" lon="0.68492">
        <ele>115.98</ele>
        <time>2023-05-30T14:33:31Z</time>
      </trkpt>
      <trkpt lat="44.19428" lon="0.685">
        <ele>115.98</ele>
        <time>2023-05-30T14:33:39Z</time>
      </trkpt>
      <trkpt lat="44.19417" lon="0.68508">
        <ele>116.46</ele>
        <time>2023-05-30T14:33:47Z</time>
      </trkpt>
      <trkpt lat="44.19408" lon="0.68516">
        <ele>115.98</ele>
        <time>2023-05-30T14:33:54Z</time>
      </trkpt>
      <trkpt lat="44.194" lon="0.68524">
        <ele>114.53</ele>
        <time>2023-05-30T14:34:02Z</time>
      </trkpt>
      <trkpt lat="44.19392" lon="0.68532">
        <ele>113.09</ele>
        <time>2023-05-30T14:34:09Z</time>
      </trkpt>
      <trkpt lat="44.19384" lon="0.68539">
        <ele>112.13</ele>
        <time>2023-05-30T14:34:16Z</time>
      </trkpt>
      <trkpt lat="44.19376" lon="0.68547">
        <ele>111.17</ele>
        <time>2023-05-30T14:34:23Z</time>
      </trkpt>
      <trkpt lat="44.19368" lon="0.68555">
        <ele>110.21</ele>
        <time>2023-05-30T14:34:30Z</time>
      </trkpt>
      <trkpt lat="44.19361" lon="0.68565">
        <ele>110.21</ele>
        <time>2023-05-30T14:34:37Z</time>
      </trkpt>
      <trkpt lat="44.19354" lon="0.68575">
        <ele>110.69</ele>
        <time>2023-05-30T14:34:44Z</time>
      </trkpt>
      <trkpt lat="44.19347" lon="0.68584">
        <ele>110.21</ele>
        <time>2023-05-30T14:34:51Z</time>
      </trkpt>
      <trkpt lat="44.1934" lon="0.68595">
        <ele>108.77</ele>
        <time>2023-05-30T14:34:58Z</time>
      </trkpt>
      <trkpt lat="44.19332" lon="0.68605">
        <ele>107.32</ele>
        <time>2023-05-30T14:35:06Z</time>
      </trkpt>
      <trkpt lat="44.19324" lon="0.68617">
        <ele>106.84</ele>
        <time>2023-05-30T14:35:14Z</time>
      </trkpt>
      <trkpt lat="44.19316" lon="0.68628">
        <ele>105.88</ele>
        <time>2023-05-30T14:35:22Z</time>
      </trkpt>
      <trkpt lat="44.19309" lon="0.68641">
        <ele>103.48</ele>
        <time>2023-05-30T14:35:31Z</time>
      </trkpt>
      <trkpt lat="44.19303" lon="0.68654">
        <ele>101.56</ele>
        <time>2023-05-30T14:35:40Z</time>
      </trkpt>
      <trkpt lat="44.19298" lon="0.68666">
        <ele>99.63</ele>
        <time>2023-05-30T14:35:47Z</time>
      </trkpt>
      <trkpt lat="44.1929" lon="0.68679">
        <ele>97.71</ele>
        <time>2023-05-30T14:35:56Z</time>
      </trkpt>
      <trkpt lat="44.19283" lon="0.68696">
        <ele>96.75</ele>
        <time>2023-05-30T14:36:06Z</time>
      </trkpt>
      <trkpt lat="44.19273" lon="0.6871">
        <ele>93.39</ele>
        <time>2023-05-30T14:36:16Z</time>
      </trkpt>
      <trkpt lat="44.19268" lon="0.68723">
        <ele>90.98</ele>
        <time>2023-05-30T14:36:24Z</time>
      </trkpt>
      <trkpt lat="44.19261" lon="0.68736">
        <ele>89.06</ele>
        <time>2023-05-30T14:36:32Z</time>
      </trkpt>
      <trkpt lat="44.19253" lon="0.68751">
        <ele>86.18</ele>
        <time>2023-05-30T14:36:40Z</time>
      </trkpt>
      <trkpt lat="44.19246" lon="0.68765">
        <ele>82.81</ele>
        <time>2023-05-30T14:36:49Z</time>
      </trkpt>
      <trkpt lat="44.1924" lon="0.68777">
        <ele>80.89</ele>
        <time>2023-05-30T14:36:57Z</time>
      </trkpt>
      <trkpt lat="44.19233" lon="0.6879">
        <ele>78.48</ele>
        <time>2023-05-30T14:37:04Z</time>
      </trkpt>
      <trkpt lat="44.19227" lon="0.68804">
        <ele>75.6</ele>
        <time>2023-05-30T14:37:11Z</time>
      </trkpt>
      <trkpt lat="44.19221" lon="0.68815">
        <ele>73.2</ele>
        <time>2023-05-30T14:37:18Z</time>
      </trkpt>
      <trkpt lat="44.19216" lon="0.68826">
        <ele>72.24</ele>
        <time>2023-05-30T14:37:24Z</time>
      </trkpt>
      <trkpt lat="44.19211" lon="0.68836">
        <ele>70.79</ele>
        <time>2023-05-30T14:37:30Z</time>
      </trkpt>
      <trkpt lat="44.19207" lon="0.68846">
        <ele>68.39</ele>
        <time>2023-05-30T14:37:39Z</time>
      </trkpt>
      <trkpt lat="44.19203" lon="0.68859">
        <ele>67.91</ele>
        <time>2023-05-30T14:37:47Z</time>
      </trkpt>
      <trkpt lat="44.19197" lon="0.6887">
        <ele>68.39</ele>
        <time>2023-05-30T14:37:54Z</time>
      </trkpt>
      <trkpt lat="44.19194" lon="0.68882">
        <ele>68.39</ele>
        <time>2023-05-30T14:38:01Z</time>
      </trkpt>
      <trkpt lat="44.19188" lon="0.68894">
        <ele>69.83</ele>
        <time>2023-05-30T14:38:09Z</time>
      </trkpt>
      <trkpt lat="44.19183" lon="0.68906">
        <ele>70.31</ele>
        <time>2023-05-30T14:38:16Z</time>
      </trkpt>
      <trkpt lat="44.19178" lon="0.68917">
        <ele>70.31</ele>
        <time>2023-05-30T14:38:23Z</time>
      </trkpt>
      <trkpt lat="44.19173" lon="0.68928">
        <ele>70.31</ele>
        <time>2023-05-30T14:38:31Z</time>
      </trkpt>
      <trkpt lat="44.19166" lon="0.68939">
        <ele>70.31</ele>
        <time>2023-05-30T14:38:39Z</time>
      </trkpt>
      <trkpt lat="44.1916" lon="0.68951">
        <ele>70.79</ele>
        <time>2023-05-30T14:38:47Z</time>
      </trkpt>
      <trkpt lat="44.19154" lon="0.68964">
        <ele>69.83</ele>
        <time>2023-05-30T14:38:55Z</time>
      </trkpt>
      <trkpt lat="44.19148" lon="0.68976">
        <ele>69.35</ele>
        <time>2023-05-30T14:39:04Z</time>
      </trkpt>
      <trkpt lat="44.19145" lon="0.6899">
        <ele>68.87</ele>
        <time>2023-05-30T14:39:12Z</time>
      </trkpt>
      <trkpt lat="44.19152" lon="0.69002">
        <ele>66.95</ele>
        <time>2023-05-30T14:39:20Z</time>
      </trkpt>
      <trkpt lat="44.19158" lon="0.69016">
        <ele>64.55</ele>
        <time>2023-05-30T14:39:30Z</time>
      </trkpt>
      <trkpt lat="44.19158" lon="0.69031">
        <ele>65.03</ele>
        <time>2023-05-30T14:39:40Z</time>
      </trkpt>
      <trkpt lat="44.19161" lon="0.69046">
        <ele>65.51</ele>
        <time>2023-05-30T14:39:49Z</time>
      </trkpt>
      <trkpt lat="44.19164" lon="0.69061">
        <ele>64.55</ele>
        <time>2023-05-30T14:39:58Z</time>
      </trkpt>
      <trkpt lat="44.19168" lon="0.6907">
        <ele>62.14</ele>
        <time>2023-05-30T14:40:46Z</time>
      </trkpt>
      <trkpt lat="44.19177" lon="0.69083">
        <ele>62.62</ele>
        <time>2023-05-30T14:40:54Z</time>
      </trkpt>
      <trkpt lat="44.19184" lon="0.69094">
        <ele>63.58</ele>
        <time>2023-05-30T14:41:01Z</time>
      </trkpt>
      <trkpt lat="44.19191" lon="0.69105">
        <ele>64.07</ele>
        <time>2023-05-30T14:41:08Z</time>
      </trkpt>
      <trkpt lat="44.19197" lon="0.69116">
        <ele>64.55</ele>
        <time>2023-05-30T14:41:15Z</time>
      </trkpt>
      <trkpt lat="44.19204" lon="0.69127">
        <ele>64.55</ele>
        <time>2023-05-30T14:41:22Z</time>
      </trkpt>
      <trkpt lat="44.19211" lon="0.69138">
        <ele>65.03</ele>
        <time>2023-05-30T14:41:29Z</time>
      </trkpt>
      <trkpt lat="44.19218" lon="0.69149">
        <ele>65.51</ele>
        <time>2023-05-30T14:41:36Z</time>
      </trkpt>
      <trkpt lat="44.19224" lon="0.6916">
        <ele>65.99</ele>
        <time>2023-05-30T14:41:43Z</time>
      </trkpt>
      <trkpt lat="44.19231" lon="0.69172">
        <ele>66.47</ele>
        <time>2023-05-30T14:41:50Z</time>
      </trkpt>
      <trkpt lat="44.19238" lon="0.69183">
        <ele>66.47</ele>
        <time>2023-05-30T14:41:57Z</time>
      </trkpt>
      <trkpt lat="44.19245" lon="0.69195">
        <ele>66.47</ele>
        <time>2023-05-30T14:42:04Z</time>
      </trkpt>
      <trkpt lat="44.19252" lon="0.69204">
        <ele>66.47</ele>
        <time>2023-05-30T14:42:11Z</time>
      </trkpt>
      <trkpt lat="44.19259" lon="0.69214">
        <ele>66.95</ele>
        <time>2023-05-30T14:42:18Z</time>
      </trkpt>
      <trkpt lat="44.19266" lon="0.69224">
        <ele>66.95</ele>
        <time>2023-05-30T14:42:25Z</time>
      </trkpt>
      <trkpt lat="44.19274" lon="0.69235">
        <ele>66.95</ele>
        <time>2023-05-30T14:42:32Z</time>
      </trkpt>
      <trkpt lat="44.19281" lon="0.69245">
        <ele>66.95</ele>
        <time>2023-05-30T14:42:39Z</time>
      </trkpt>
      <trkpt lat="44.19289" lon="0.69255">
        <ele>65.99</ele>
        <time>2023-05-30T14:42:47Z</time>
      </trkpt>
      <trkpt lat="44.19299" lon="0.69264">
        <ele>66.95</ele>
        <time>2023-05-30T14:42:55Z</time>
      </trkpt>
      <trkpt lat="44.19308" lon="0.69274">
        <ele>67.91</ele>
        <time>2023-05-30T14:43:03Z</time>
      </trkpt>
      <trkpt lat="44.19317" lon="0.69282">
        <ele>66.95</ele>
        <time>2023-05-30T14:43:12Z</time>
      </trkpt>
      <trkpt lat="44.19325" lon="0.6929">
        <ele>65.03</ele>
        <time>2023-05-30T14:43:20Z</time>
      </trkpt>
      <trkpt lat="44.19332" lon="0.69299">
        <ele>63.58</ele>
        <time>2023-05-30T14:43:28Z</time>
      </trkpt>
      <trkpt lat="44.19341" lon="0.69309">
        <ele>61.66</ele>
        <time>2023-05-30T14:43:37Z</time>
      </trkpt>
      <trkpt lat="44.19351" lon="0.69315">
        <ele>60.7</ele>
        <time>2023-05-30T14:43:44Z</time>
      </trkpt>
      <trkpt lat="44.19362" lon="0.69323">
        <ele>59.74</ele>
        <time>2023-05-30T14:43:53Z</time>
      </trkpt>
      <trkpt lat="44.19377" lon="0.69333">
        <ele>59.74</ele>
        <time>2023-05-30T14:44:03Z</time>
      </trkpt>
      <trkpt lat="44.19395" lon="0.69343">
        <ele>60.7</ele>
        <time>2023-05-30T14:44:13Z</time>
      </trkpt>
      <trkpt lat="44.1941" lon="0.69354">
        <ele>60.22</ele>
        <time>2023-05-30T14:44:24Z</time>
      </trkpt>
      <trkpt lat="44.19423" lon="0.69368">
        <ele>61.18</ele>
        <time>2023-05-30T14:44:34Z</time>
      </trkpt>
      <trkpt lat="44.19431" lon="0.6938">
        <ele>63.1</ele>
        <time>2023-05-30T14:44:41Z</time>
      </trkpt>
      <trkpt lat="44.1944" lon="0.6939">
        <ele>64.55</ele>
        <time>2023-05-30T14:44:48Z</time>
      </trkpt>
      <trkpt lat="44.1945" lon="0.69399">
        <ele>65.03</ele>
        <time>2023-05-30T14:44:55Z</time>
      </trkpt>
      <trkpt lat="44.19461" lon="0.69407">
        <ele>64.55</ele>
        <time>2023-05-30T14:45:04Z</time>
      </trkpt>
      <trkpt lat="44.1947" lon="0.69413">
        <ele>64.55</ele>
        <time>2023-05-30T14:45:11Z</time>
      </trkpt>
      <trkpt lat="44.19479" lon="0.69421">
        <ele>65.03</ele>
        <time>2023-05-30T14:45:18Z</time>
      </trkpt>
      <trkpt lat="44.19484" lon="0.69434">
        <ele>66.95</ele>
        <time>2023-05-30T14:45:26Z</time>
      </trkpt>
      <trkpt lat="44.19488" lon="0.69449">
        <ele>66.47</ele>
        <time>2023-05-30T14:45:34Z</time>
      </trkpt>
      <trkpt lat="44.19493" lon="0.69463">
        <ele>65.51</ele>
        <time>2023-05-30T14:45:43Z</time>
      </trkpt>
      <trkpt lat="44.19497" lon="0.69482">
        <ele>65.99</ele>
        <time>2023-05-30T14:45:52Z</time>
      </trkpt>
      <trkpt lat="44.19501" lon="0.69495">
        <ele>66.95</ele>
        <time>2023-05-30T14:45:59Z</time>
      </trkpt>
      <trkpt lat="44.19509" lon="0.69506">
        <ele>66.95</ele>
        <time>2023-05-30T14:46:06Z</time>
      </trkpt>
      <trkpt lat="44.19516" lon="0.69516">
        <ele>67.43</ele>
        <time>2023-05-30T14:46:13Z</time>
      </trkpt>
      <trkpt lat="44.19525" lon="0.69525">
        <ele>67.91</ele>
        <time>2023-05-30T14:46:20Z</time>
      </trkpt>
      <trkpt lat="44.19532" lon="0.69536">
        <ele>67.43</ele>
        <time>2023-05-30T14:46:27Z</time>
      </trkpt>
      <trkpt lat="44.19539" lon="0.69546">
        <ele>67.43</ele>
        <time>2023-05-30T14:46:34Z</time>
      </trkpt>
      <trkpt lat="44.19546" lon="0.69558">
        <ele>67.43</ele>
        <time>2023-05-30T14:46:41Z</time>
      </trkpt>
      <trkpt lat="44.1955" lon="0.69573">
        <ele>67.91</ele>
        <time>2023-05-30T14:46:48Z</time>
      </trkpt>
      <trkpt lat="44.19554" lon="0.69587">
        <ele>67.91</ele>
        <time>2023-05-30T14:46:55Z</time>
      </trkpt>
      <trkpt lat="44.19561" lon="0.69599">
        <ele>65.51</ele>
        <time>2023-05-30T14:47:42Z</time>
      </trkpt>
      <trkpt lat="44.19568" lon="0.69609">
        <ele>65.99</ele>
        <time>2023-05-30T14:47:50Z</time>
      </trkpt>
      <trkpt lat="44.19573" lon="0.69622">
        <ele>65.99</ele>
        <time>2023-05-30T14:47:58Z</time>
      </trkpt>
      <trkpt lat="44.19581" lon="0.69632">
        <ele>65.99</ele>
        <time>2023-05-30T14:48:06Z</time>
      </trkpt>
      <trkpt lat="44.19588" lon="0.6964">
        <ele>66.47</ele>
        <time>2023-05-30T14:48:13Z</time>
      </trkpt>
      <trkpt lat="44.19595" lon="0.69649">
        <ele>66.95</ele>
        <time>2023-05-30T14:48:20Z</time>
      </trkpt>
      <trkpt lat="44.19601" lon="0.6966">
        <ele>66.95</ele>
        <time>2023-05-30T14:48:28Z</time>
      </trkpt>
      <trkpt lat="44.19607" lon="0.69671">
        <ele>68.87</ele>
        <time>2023-05-30T14:48:36Z</time>
      </trkpt>
      <trkpt lat="44.19613" lon="0.69684">
        <ele>68.87</ele>
        <time>2023-05-30T14:48:46Z</time>
      </trkpt>
      <trkpt lat="44.19617" lon="0.69698">
        <ele>69.83</ele>
        <time>2023-05-30T14:48:54Z</time>
      </trkpt>
      <trkpt lat="44.19622" lon="0.69712">
        <ele>71.27</ele>
        <time>2023-05-30T14:49:02Z</time>
      </trkpt>
      <trkpt lat="44.19627" lon="0.69724">
        <ele>71.27</ele>
        <time>2023-05-30T14:49:10Z</time>
      </trkpt>
      <trkpt lat="44.19631" lon="0.69736">
        <ele>71.27</ele>
        <time>2023-05-30T14:49:18Z</time>
      </trkpt>
      <trkpt lat="44.19634" lon="0.6975">
        <ele>71.27</ele>
        <time>2023-05-30T14:49:26Z</time>
      </trkpt>
      <trkpt lat="44.19634" lon="0.69769">
        <ele>71.76</ele>
        <time>2023-05-30T14:49:42Z</time>
      </trkpt>
      <trkpt lat="44.19656" lon="0.69798">
        <ele>72.72</ele>
        <time>2023-05-30T14:51:29Z</time>
      </trkpt>
      <trkpt lat="44.1964" lon="0.69794">
        <ele>65.03</ele>
        <time>2023-05-30T14:52:19Z</time>
      </trkpt>
      <trkpt lat="44.19633" lon="0.69796">
        <ele>65.99</ele>
        <time>2023-05-30T14:55:43Z</time>
      </trkpt>
    </trkseg>
  </trk>
</gpx>